[[{"header":{"parameterUnit":"m.s-1","parameterCategory":1,"la1":30.6,"la2":28.766,"lo1":-90.7593,"lo2":-88.6598,"dy":0.0162,"dx":0.0183,"nx":116,"ny":114,"refTime":"2023-05-22T00:00:00:Z","depth":0,"parameterNumber":2,"parameterNumberName":"U-component_of_WINDS"},"data":[0.0,0.0,0.0,0.0,0.0,0.0,0.0,0.0,0.0,0.0,0.0,0.0,0.0,0.0,0.0,0.0,0.0,0.0,0.0,0.0,0.0,0.0,0.0,0.0,0.0,0.0,0.0,0.0,0.0,0.0,0.0,0.0,0.0,0.0,0.0,0.0,0.0,0.0,0.0,0.0,0.0,0.0,0.0,0.0,0.0,0.0,0.0,0.0,0.0,0.0,0.0,0.0,0.0,0.0,0.0,0.0,0.0,0.0,0.0,0.0,0.0,0.0,0.0,0.0,0.0,0.0,0.0,0.0,0.0,0.0,0.0,0.0,0.0,0.0,0.0,0.0,0.0,0.0,0.0,0.0,0.0,0.0,0.0,0.0,0.0,0.0,0.0,0.0,0.0,0.0,0.0,0.0,0.0,0.0,0.0,0.0,0.0,0.0,0.0,0.0,0.0,0.0,0.0,0.0,0.0,0.0,0.0,0.0,0.0,0.0,0.0,0.0,0.0,0.0,0.0,0.0,0.0,0.0,0.0,0.0,0.0,0.0,0.0,0.0,0.0,0.0,0.0,0.0,0.0,0.0,0.0,0.0,0.0,0.0,0.0,0.0,0.0,0.0,0.0,0.0,0.0,0.0,0.0,0.0,0.0,0.0,0.0,0.0,0.0,0.0,0.0,0.0,0.0,0.0,0.0,0.0,0.0,0.0,0.0,0.0,0.0,0.0,0.0,0.0,0.0,0.0,0.0,0.0,0.0,0.0,0.0,0.0,0.0,0.0,0.0,0.0,0.0,0.0,0.0,0.0,0.0,0.0,0.0,0.0,0.0,0.0,0.0,0.0,0.0,0.0,0.0,0.0,0.0,0.0,0.0,0.0,0.0,0.0,0.0,0.0,0.0,0.0,0.0,0.0,0.0,0.0,0.0,0.0,0.0,0.0,0.0,0.0,0.0,0.0,0.0,0.0,0.0,0.0,0.0,0.0,0.0,0.0,0.0,0.0,0.0,0.0,0.0,0.0,0.0,0.0,0.0,0.0,0.0,0.0,0.0,0.0,0.0,0.0,0.0,0.0,0.0,0.0,0.0,0.0,0.0,0.0,0.0,0.0,0.0,0.0,0.0,0.0,0.0,0.0,0.0,0.0,0.0,0.0,0.0,0.0,0.0,0.0,0.0,0.0,0.0,0.0,0.0,0.0,0.0,0.0,0.0,0.0,0.0,0.0,0.0,0.0,0.0,0.0,0.0,0.0,0.0,0.0,0.0,0.0,0.0,0.0,0.0,0.0,0.0,0.0,0.0,0.0,0.0,0.0,0.0,0.0,0.0,0.0,0.0,0.0,0.0,0.0,0.0,0.0,0.0,0.0,0.0,0.0,0.0,0.0,0.0,0.0,0.0,0.0,0.0,0.0,0.0,0.0,0.0,0.0,0.0,0.0,0.0,0.0,0.0,0.0,0.0,0.0,0.0,0.0,0.0,0.0,0.0,0.0,0.0,0.0,0.0,0.0,0.0,0.0,0.0,0.0,0.0,0.0,0.0,0.0,0.0,0.0,0.0,0.0,0.0,0.0,0.0,0.0,0.0,0.0,0.0,0.0,0.0,0.0,0.0,0.0,0.0,0.0,0.0,0.0,0.0,0.0,0.0,0.0,0.0,0.0,0.0,0.0,0.0,0.0,0.0,0.0,0.0,0.0,0.0,0.0,0.0,0.0,0.0,0.0,0.0,0.0,0.0,0.0,0.0,0.0,0.0,0.0,0.0,0.0,0.0,0.0,0.0,0.0,0.0,0.0,0.0,0.0,0.0,0.0,0.0,0.0,0.0,0.0,0.0,0.0,0.0,0.0,0.0,0.0,0.0,0.0,0.0,0.0,0.0,0.0,0.0,0.0,0.0,0.0,0.0,0.0,0.0,0.0,0.0,0.0,0.0,0.0,0.0,0.0,0.0,0.0,0.0,0.0,0.0,0.0,0.0,0.0,0.0,0.0,0.0,0.0,0.0,0.0,0.0,0.0,0.0,0.0,0.0,0.0,0.0,0.0,0.0,0.0,0.0,0.0,0.0,0.0,0.0,0.0,0.0,0.0,0.0,0.0,0.0,0.0,0.0,0.0,0.0,0.0,0.0,0.0,0.0,0.0,0.0,0.0,0.0,0.0,0.0,0.0,0.0,0.0,0.0,0.0,0.0,0.0,0.0,0.0,0.0,0.0,0.0,0.0,0.0,0.0,0.0,0.0,0.0,0.0,0.0,0.0,0.0,0.0,0.0,0.0,0.0,0.0,0.0,0.0,0.0,0.0,0.0,0.0,0.0,0.0,0.0,0.0,0.0,0.0,0.0,0.0,0.0,0.0,0.0,0.0,0.0,0.0,0.0,0.0,0.0,0.0,0.0,0.0,0.0,0.0,0.0,0.0,0.0,0.0,0.0,0.0,0.0,0.0,0.0,0.0,0.0,0.0,0.0,0.0,0.0,0.0,0.0,0.0,0.0,0.0,0.0,0.0,0.0,0.0,0.0,0.0,0.0,0.0,0.0,0.0,0.0,0.0,0.0,0.0,0.0,0.0,0.0,0.0,0.0,0.0,0.0,0.0,0.0,0.0,0.0,0.0,0.0,0.0,0.0,0.0,0.0,0.0,0.0,0.0,0.0,0.0,0.0,0.0,0.0,0.0,0.0,0.0,0.0,0.0,0.0,0.0,0.0,0.0,0.0,0.0,0.0,0.0,0.0,0.0,0.0,0.0,0.0,0.0,0.0,0.0,0.0,0.0,0.0,0.0,0.0,0.0,0.0,0.0,0.0,0.0,0.0,0.0,0.0,0.0,0.0,0.0,0.0,0.0,0.0,0.0,0.0,0.0,0.0,0.0,0.0,0.0,0.0,0.0,0.0,0.0,0.0,0.0,0.0,0.0,0.0,0.0,0.0,0.0,0.0,0.0,0.0,0.0,0.0,0.0,0.0,0.0,0.0,0.0,0.0,0.0,0.0,0.0,0.0,0.0,0.0,0.0,0.0,0.0,0.0,0.0,0.0,0.0,0.0,0.0,0.0,0.0,0.0,0.0,0.0,0.0,0.0,0.0,0.0,0.0,0.0,0.0,0.0,0.0,0.0,0.0,0.0,0.0,0.0,0.0,0.0,0.0,0.0,0.0,0.0,0.0,0.0,0.0,0.0,0.0,0.0,0.0,0.0,0.0,0.0,0.0,0.0,0.0,0.0,0.0,0.0,0.0,0.0,0.0,0.0,0.0,0.0,0.0,0.0,0.0,0.0,0.0,0.0,0.0,0.0,0.0,0.0,0.0,0.0,0.0,0.0,0.0,0.0,0.0,0.0,0.0,0.0,0.0,0.0,0.0,0.0,0.0,0.0,0.0,0.0,0.0,0.0,0.0,0.0,0.0,0.0,0.0,0.0,0.0,0.0,0.0,0.0,0.0,0.0,0.0,0.0,0.0,0.0,0.0,0.0,0.0,0.0,0.0,0.0,0.0,0.0,0.0,0.0,0.0,0.0,0.0,0.0,0.0,0.0,0.0,0.0,0.0,0.0,0.0,0.0,0.0,0.0,0.0,0.0,0.0,0.0,0.0,0.0,0.0,0.0,0.0,0.0,0.0,0.0,0.0,0.0,0.0,0.0,0.0,0.0,0.0,0.0,0.0,0.0,0.0,0.0,0.0,0.0,0.0,0.0,0.0,0.0,0.0,0.0,0.0,0.0,0.0,0.0,0.0,0.0,0.0,0.0,0.0,0.0,0.0,0.0,0.0,0.0,0.0,0.0,0.0,0.0,0.0,0.0,0.0,0.0,0.0,0.0,0.0,0.0,0.0,0.0,0.0,0.0,0.0,0.0,0.0,0.0,0.0,0.0,0.0,0.0,0.0,0.0,0.0,0.0,0.0,0.0,0.0,0.0,0.0,0.0,0.0,0.0,0.0,0.0,0.0,0.0,0.0,0.0,0.0,0.0,0.0,0.0,0.0,0.0,0.0,0.0,0.0,0.0,0.0,0.0,0.0,0.0,0.0,0.0,0.0,0.0,0.0,0.0,0.0,0.0,0.0,0.0,0.0,0.0,0.0,0.0,0.0,0.0,0.0,0.0,0.0,0.0,0.0,0.0,0.0,0.0,0.0,0.0,0.0,0.0,0.0,0.0,0.0,0.0,0.0,0.0,0.0,0.0,0.0,0.0,0.0,0.0,0.0,0.0,0.0,0.0,0.0,0.0,0.0,0.0,0.0,0.0,0.0,0.0,0.0,0.0,0.0,0.0,0.0,0.0,0.0,0.0,0.0,0.0,0.0,0.0,0.0,0.0,0.0,0.0,0.0,0.0,0.0,0.0,0.0,0.0,0.0,0.0,0.0,0.0,0.0,0.0,0.0,0.0,0.0,0.0,0.0,0.0,0.0,0.0,0.0,0.0,0.0,0.0,0.0,0.0,0.0,0.0,0.0,0.0,0.0,0.0,0.0,0.0,0.0,0.0,0.0,0.0,0.0,0.0,0.0,0.0,0.0,0.0,0.0,0.0,0.0,0.0,0.0,0.0,0.0,0.0,0.0,0.0,0.0,0.0,0.0,0.0,0.0,0.0,0.0,0.0,0.0,0.0,0.0,0.0,0.0,0.0,0.0,0.0,0.0,0.0,0.0,0.0,0.0,0.0,0.0,0.0,0.0,0.0,0.0,0.0,0.0,0.0,0.0,0.0,0.0,0.0,0.0,0.0,0.0,0.0,0.0,0.0,0.0,0.0,0.0,0.0,0.0,0.0,0.0,0.0,0.0,0.0,0.0,0.0,0.0,0.0,0.0,0.0,0.0,0.0,0.0,0.0,0.0,0.0,0.0,0.0,0.0,0.0,0.0,0.0,0.0,0.0,0.0,0.0,0.0,0.0,0.0,0.0,0.0,0.0,0.0,0.0,0.0,0.0,0.0,0.0,0.0,0.0,0.0,0.0,0.0,0.0,0.0,0.0,0.0,0.0,0.0,0.0,0.0,0.0,0.0,0.0,0.0,0.0,0.0,0.0,0.0,0.0,0.0,0.0,0.0,0.0,0.0,0.0,0.0,0.0,0.0,0.0,0.0,0.0,0.0,0.0,0.0,0.0,0.0,0.0,0.0,0.0,0.0,0.0,0.0,0.0,0.0,0.0,0.0,0.0,0.0,0.0,0.0,0.0,0.0,0.0,0.0,0.0,0.0,0.0,0.0,0.0,0.0,0.0,0.0,0.0,0.0,0.0,0.0,0.0,0.0,0.0,0.0,0.0,0.0,0.0,0.0,0.0,0.0,0.0,0.0,0.0,0.0,0.0,0.0,0.0,0.0,0.0,0.0,0.0,0.0,0.0,0.0,0.0,0.0,0.0,0.0,0.0,0.0,0.0,0.0,0.0,0.0,0.0,0.0,0.0,0.0,0.0,0.0,0.0,0.0,0.0,0.0,0.0,0.0,0.0,0.0,0.0,0.0,0.0,0.0,0.0,0.0,0.0,0.0,0.0,0.0,0.0,0.0,0.0,0.0,0.0,0.0,0.0,0.0,0.0,0.0,0.0,0.0,0.0,0.0,0.0,0.0,0.0,0.0,0.0,0.0,0.0,0.0,0.0,0.0,0.0,0.0,0.0,0.0,0.0,0.0,0.0,0.0,0.0,0.0,0.0,0.0,0.0,0.0,0.0,0.0,0.0,0.0,0.0,0.0,0.0,0.0,0.0,0.0,0.0,0.0,0.0,0.0,0.0,0.0,0.0,0.0,0.0,0.0,0.0,0.0,0.0,0.0,0.0,0.0,0.0,0.0,0.0,0.0,0.0,0.0,0.0,0.0,0.0,0.0,0.0,0.0,0.0,0.0,0.0,0.0,0.0,0.0,0.0,0.0,0.0,0.0,0.0,0.0,0.0,0.0,0.0,0.0,0.0,0.0,0.0,0.0,0.0,0.0,0.0,0.0,0.0,0.0,0.0,0.0,0.0,0.0,0.0,0.0,0.0,0.0,0.0,0.0,0.0,0.0,0.0,0.0,0.0,0.0,0.0,0.0,0.0,0.0,0.0,0.0,0.0,0.0,0.0,0.0,0.0,0.0,0.0,0.0,0.0,0.0,0.0,0.0,0.0,0.0,0.0,0.0,0.0,0.0,0.0,0.0,2.8052,0.0,0.0,0.0,0.0,0.0,0.0,0.0,0.0,0.0,0.0,0.0,0.0,0.0,0.0,0.0,0.0,0.0,0.0,0.0,0.0,0.0,0.0,0.0,0.0,0.0,0.0,0.0,0.0,0.0,0.0,0.0,0.0,0.0,0.0,0.0,0.0,0.0,0.0,0.0,2.8994,2.8887,2.8658,2.8658,2.8682,2.8725,0.0,0.0,0.0,0.0,0.0,0.0,0.0,0.0,0.0,0.0,0.0,0.0,0.0,0.0,0.0,0.0,0.0,0.0,0.0,0.0,0.0,0.0,0.0,0.0,0.0,0.0,0.0,0.0,0.0,0.0,0.0,0.0,0.0,0.0,0.0,0.0,0.0,0.0,0.0,0.0,0.0,0.0,0.0,0.0,0.0,0.0,0.0,0.0,0.0,0.0,0.0,0.0,0.0,0.0,0.0,0.0,0.0,0.0,0.0,0.0,0.0,0.0,0.0,0.0,0.0,0.0,0.0,0.0,0.0,0.0,0.0,2.8452,0.0,0.0,0.0,0.0,0.0,0.0,0.0,0.0,0.0,0.0,0.0,0.0,0.0,0.0,0.0,0.0,0.0,0.0,0.0,0.0,0.0,0.0,0.0,2.5421,2.5746,2.6567,2.66,2.686,0.0,0.0,0.0,0.0,0.0,0.0,0.0,2.9017,2.8994,2.8929,2.8858,2.8633,2.8264,2.8237,2.8219,2.8246,2.8583,0.0,0.0,0.0,0.0,0.0,0.0,0.0,0.0,0.0,0.0,0.0,0.0,0.0,0.0,0.0,0.0,0.0,0.0,0.0,0.0,0.0,0.0,0.0,0.0,0.0,0.0,0.0,0.0,0.0,0.0,0.0,0.0,0.0,0.0,0.0,0.0,0.0,0.0,0.0,0.0,0.0,0.0,0.0,0.0,0.0,0.0,0.0,0.0,0.0,0.0,0.0,0.0,0.0,0.0,0.0,0.0,0.0,0.0,0.0,0.0,0.0,0.0,0.0,3.3182,3.3121,3.2806,3.2854,3.2758,3.2497,3.1513,3.0917,3.052,0.0,0.0,0.0,0.0,0.0,0.0,0.0,0.0,0.0,0.0,0.0,0.0,0.0,0.0,0.0,0.0,0.0,0.0,0.0,0.0,0.0,0.0,2.623,2.6586,2.744,2.7374,2.7618,2.8457,0.0,0.0,0.0,0.0,0.0,2.9017,2.9062,2.8934,2.8651,2.8299,2.7982,2.7713,2.7829,2.7754,2.756,2.788,2.8037,2.8065,0.0,0.0,0.0,0.0,0.0,0.0,0.0,0.0,0.0,0.0,0.0,0.0,0.0,0.0,0.0,0.0,0.0,0.0,0.0,0.0,0.0,0.0,0.0,0.0,0.0,0.0,0.0,0.0,0.0,0.0,0.0,0.0,0.0,0.0,0.0,0.0,0.0,0.0,0.0,0.0,0.0,3.0292,3.0292,0.0,0.0,0.0,0.0,0.0,0.0,0.0,0.0,0.0,0.0,0.0,0.0,0.0,3.2917,3.3511,3.3726,3.411,3.4694,3.5344,3.551,3.5259,3.5702,3.5771,3.5475,3.4603,0.0,3.1169,3.0943,0.0,0.0,0.0,0.0,0.0,0.0,0.0,0.0,0.0,0.0,0.0,0.0,0.0,0.0,0.0,0.0,0.0,0.0,0.0,0.0,0.0,2.7031,2.7314,2.8132,2.802,2.8282,2.9147,2.9221,0.0,0.0,0.0,2.9353,2.9017,2.8881,2.8633,2.8308,2.8093,2.7811,2.7487,2.7487,2.7334,2.7019,2.7147,2.7487,2.7897,2.8047,0.0,0.0,0.0,0.0,0.0,0.0,0.0,0.0,0.0,0.0,0.0,0.0,0.0,0.0,0.0,0.0,0.0,0.0,0.0,0.0,0.0,0.0,0.0,0.0,0.0,0.0,0.0,0.0,0.0,0.0,0.0,0.0,0.0,0.0,0.0,0.0,0.0,0.0,0.0,3.0247,3.0425,3.0918,3.1008,3.1213,0.0,0.0,0.0,0.0,0.0,0.0,0.0,0.0,0.0,3.4075,3.4533,3.4882,3.5078,3.5647,3.6065,3.6349,3.6512,3.6487,3.6254,3.6348,3.6278,3.6006,3.5647,3.487,3.3777,3.2465,3.1918,3.1863,0.0,0.0,0.0,0.0,3.1334,3.1384,0.0,0.0,0.0,0.0,0.0,0.0,0.0,0.0,0.0,0.0,0.0,0.0,2.7821,2.7804,2.8017,2.8782,2.8721,2.8913,2.957,2.9734,2.9662,2.9314,2.9455,2.9355,2.9017,2.8651,2.8308,2.7992,2.8081,2.7935,2.7598,2.7742,2.7619,2.73,2.7317,2.7396,2.7589,2.7707,2.7908,2.8139,0.0,0.0,0.0,0.0,0.0,0.0,0.0,0.0,0.0,0.0,0.0,0.0,0.0,0.0,0.0,0.0,0.0,0.0,0.0,0.0,0.0,0.0,0.0,0.0,0.0,0.0,0.0,0.0,0.0,0.0,0.0,0.0,0.0,0.0,0.0,0.0,0.0,3.0844,3.1073,3.1738,3.1847,3.211,0.0,0.0,0.0,0.0,0.0,0.0,3.4885,3.489,3.5126,3.5666,3.6274,3.6615,3.6723,3.7387,3.7825,3.7991,3.7694,3.7486,3.7322,3.6905,3.665,3.6508,3.6476,3.6463,3.6236,3.4146,3.3294,3.3221,3.2638,3.2411,3.2519,3.2492,3.2519,3.258,0.0,0.0,0.0,0.0,0.0,0.0,0.0,0.0,0.0,0.0,0.0,2.6962,2.8404,2.8544,2.882,2.9476,2.9532,2.9551,2.9608,2.9608,2.9532,2.9314,2.9314,2.9228,2.9017,2.8412,2.7992,2.773,2.8146,2.8283,2.815,2.8801,2.9073,2.8965,2.8892,2.808,2.6791,2.7178,2.7317,2.7409,2.8039,0.0,0.0,0.0,0.0,0.0,0.0,0.0,0.0,0.0,0.0,0.0,0.0,0.0,0.0,0.0,0.0,0.0,0.0,0.0,0.0,0.0,0.0,0.0,0.0,0.0,0.0,0.0,0.0,0.0,0.0,0.0,0.0,0.0,0.0,0.0,0.0,0.0,0.0,3.263,3.2649,0.0,0.0,0.0,0.0,3.5076,3.6479,3.7376,3.7414,3.7299,3.7258,3.7296,3.7313,3.7688,3.835,3.8558,3.8956,3.9584,3.927,3.9088,3.9061,3.825,3.7891,3.791,3.7843,3.7791,3.77,3.629,3.5726,3.5696,3.5616,3.5641,3.5763,3.5703,3.5703,3.5775,0.0,0.0,0.0,0.0,0.0,0.0,0.0,0.0,2.6429,2.7295,2.7769,2.836,2.9317,2.9315,2.9288,2.9398,2.9291,2.9206,2.9206,2.9353,2.9314,2.9115,2.9228,2.902,2.8438,2.873,2.8647,2.8164,2.8747,2.8991,2.8853,2.9038,2.9102,2.9047,2.9011,2.867,2.8164,2.7794,2.7756,2.7996,2.7752,2.7929,0.0,0.0,0.0,0.0,0.0,0.0,0.0,0.0,0.0,0.0,0.0,0.0,0.0,0.0,0.0,0.0,0.0,0.0,0.0,0.0,0.0,0.0,0.0,0.0,0.0,0.0,0.0,0.0,0.0,0.0,0.0,0.0,0.0,0.0,0.0,0.0,0.0,3.4178,3.4312,0.0,3.5821,3.6419,3.6728,3.6728,3.7186,3.7715,3.8265,3.8243,3.8428,3.8874,3.8893,3.8977,3.9218,3.9218,3.9325,3.9558,3.9027,3.8748,3.8737,3.8034,3.7757,3.7757,3.7739,3.7703,3.7667,3.72,3.6831,3.654,3.6001,3.5864,3.5939,3.5926,3.5939,3.6,0.0,0.0,0.0,0.0,0.0,0.0,0.0,0.0,2.6911,2.7788,2.8471,2.916,2.9829,2.9716,2.9532,2.9314,2.9115,2.8994,2.8994,2.9115,2.9138,2.9017,2.9115,2.8918,2.8411,2.8916,2.9026,2.8664,2.9385,2.9674,2.9532,2.9768,2.983,2.9719,2.9719,2.9719,2.9668,2.8924,2.8575,2.8561,2.79,2.7914,2.8276,0.0,0.0,0.0,0.0,0.0,0.0,0.0,0.0,0.0,0.0,0.0,0.0,0.0,0.0,0.0,0.0,0.0,0.0,0.0,0.0,0.0,0.0,0.0,0.0,0.0,0.0,0.0,0.0,0.0,0.0,0.0,0.0,0.0,0.0,0.0,3.4486,3.5846,3.6018,3.6457,3.7563,3.7852,3.7965,3.7926,3.8071,3.8404,3.8968,3.8984,3.9316,4.0061,4.0032,4.0134,4.0378,4.0319,4.0221,4.0049,3.9528,3.9213,3.9049,3.8528,3.8267,3.8249,3.8002,3.7877,3.7877,3.7684,3.7452,3.7156,3.66,3.6417,3.6483,3.6566,3.6598,3.6644,0.0,0.0,0.0,0.0,0.0,0.0,0.0,2.6196,2.693,2.7788,2.8509,2.9198,2.9829,2.9716,2.9532,2.9314,2.9115,2.9017,2.9017,2.9017,2.8994,2.8994,2.8947,2.8956,2.9018,2.9059,2.9138,2.9228,3.0048,3.035,3.0258,3.0955,3.1274,3.119,3.119,3.119,3.114,3.0446,2.9719,2.9011,2.8528,2.8368,2.8427,0.0,0.0,0.0,0.0,0.0,0.0,0.0,0.0,0.0,0.0,0.0,0.0,0.0,0.0,0.0,0.0,0.0,0.0,0.0,0.0,0.0,0.0,0.0,0.0,0.0,0.0,0.0,0.0,0.0,0.0,0.0,0.0,0.0,3.6311,3.6422,3.68,3.7547,3.7624,3.7624,3.7681,3.8303,3.8674,3.8534,3.9282,3.9708,3.9637,3.9608,3.9951,4.0816,4.0723,4.1025,4.1892,4.1829,4.1593,4.1206,4.0914,4.0577,4.0184,3.9761,3.9575,3.954,3.8784,3.8429,3.8376,3.7877,3.7648,3.7612,3.7594,3.7577,3.7613,3.7828,3.7899,3.7899,0.0,0.0,0.0,0.0,0.0,0.0,0.0,2.6703,2.7624,2.7875,2.9027,2.9861,2.9902,2.9716,2.9532,2.9314,2.9115,2.9067,2.9206,2.9089,2.8994,2.8994,2.9496,2.9701,2.9502,3.0285,3.058,3.0422,3.0857,3.1045,3.1006,3.115,3.123,3.119,3.119,3.119,3.119,3.097,3.0768,3.0463,2.9287,2.8955,2.9075,0.0,0.0,0.0,0.0,0.0,0.0,0.0,0.0,0.0,0.0,0.0,0.0,0.0,0.0,0.0,0.0,0.0,0.0,0.0,0.0,0.0,0.0,0.0,0.0,0.0,0.0,0.0,0.0,0.0,0.0,0.0,0.0,3.6236,3.6293,3.6787,3.7451,3.8303,3.8398,3.8645,3.9214,3.9309,3.935,3.9307,3.9952,4.0338,4.033,4.0865,4.1268,4.152,4.1492,4.1577,4.1829,4.1763,4.1523,4.113,4.0732,4.0294,3.9902,3.954,3.9388,3.937,3.9159,3.9054,3.9036,3.8906,3.8483,3.7941,3.768,3.7577,3.7631,3.7667,3.7577,3.7431,0.0,0.0,0.0,0.0,0.0,0.0,0.0,2.6916,2.7904,2.7904,2.9243,3.0157,3.0034,2.9855,2.9644,2.9455,2.9249,2.9138,2.9163,2.9067,2.8994,2.8952,2.9649,2.9987,2.9826,3.0747,3.1148,3.102,3.1168,3.1252,3.1252,3.123,3.119,3.119,3.119,3.119,3.119,3.1151,3.1112,3.1027,3.0128,2.9722,2.9551,2.9025,2.8932,2.9054,2.867,2.8556,2.8586,2.8564,0.0,0.0,0.0,0.0,0.0,0.0,0.0,0.0,0.0,0.0,0.0,0.0,0.0,0.0,0.0,0.0,0.0,0.0,0.0,0.0,0.0,0.0,0.0,0.0,3.6869,3.7156,3.7179,3.7616,3.8241,3.9031,3.9082,3.9381,4.0231,4.0139,4.0146,4.0457,4.0884,4.1082,4.1055,4.1502,4.1913,4.2248,4.2238,4.2377,4.2683,4.2514,4.2212,4.1772,4.1305,4.0846,4.0435,4.0192,4.008,0.0,3.9765,3.9625,3.9608,3.9258,3.8856,0.0,0.0,0.0,0.0,0.0,3.7111,3.6904,0.0,0.0,0.0,0.0,0.0,0.0,0.0,2.6839,2.7759,2.7758,2.9102,3.0051,3.0051,2.9962,2.9822,2.9626,2.9435,2.9249,2.9044,2.904,2.8975,2.8887,2.9648,3.0071,3.0057,3.0793,3.1219,3.1269,3.123,3.119,3.119,3.119,3.119,3.119,3.119,3.1151,3.1055,3.0975,3.0878,3.0797,3.0757,3.0453,2.9977,2.9621,2.9454,2.9386,2.9007,2.893,2.9006,2.8574,0.0,0.0,0.0,0.0,0.0,0.0,0.0,0.0,0.0,0.0,0.0,0.0,0.0,0.0,0.0,0.0,0.0,0.0,0.0,0.0,0.0,0.0,0.0,0.0,3.797,3.8474,3.8522,3.875,3.912,3.9727,3.975,4.004,4.0923,4.0843,4.098,4.1651,4.1828,4.1865,4.1827,0.0,0.0,0.0,0.0,4.3187,4.3814,4.3526,4.3105,4.2616,4.2198,4.1753,4.1363,4.1255,4.1209,4.1157,4.053,4.0207,4.0155,3.9442,3.9138,3.8981,3.8408,3.783,3.7233,3.7031,3.6823,3.6591,0.0,0.0,0.0,0.0,0.0,0.0,0.0,2.6369,2.6908,2.6853,2.8195,2.914,2.914,2.9601,2.9822,2.9626,2.9551,2.9455,2.927,2.9206,2.9075,2.8905,2.9917,3.0449,3.0392,3.1183,3.1576,3.162,3.1329,3.119,3.119,3.119,3.1151,3.1055,3.1151,3.0878,3.0309,3.0393,3.0166,2.9717,2.9673,3.01,3.065,3.0032,2.9783,2.9756,2.942,2.9298,2.9414,2.9892,3.0094,3.022,3.0594,3.0858,0.0,0.0,0.0,0.0,0.0,0.0,0.0,0.0,0.0,0.0,0.0,0.0,0.0,0.0,0.0,0.0,0.0,0.0,0.0,3.7972,3.8188,3.8496,3.9183,3.9839,4.0282,4.0405,4.0424,4.0715,4.1557,4.1549,4.1539,4.1706,4.2203,4.2514,4.2502,4.3069,4.3463,4.3629,4.3629,4.3483,4.3248,4.3194,4.2792,4.205,0.0,0.0,4.1255,4.1209,4.1209,4.1192,4.1052,4.1,4.0983,4.0826,4.0471,3.9949,3.9188,3.8828,3.8618,3.8254,3.7685,3.7068,0.0,0.0,0.0,0.0,0.0,0.0,0.0,2.623,2.6837,2.7208,2.8241,2.9098,2.9516,2.9846,2.9972,2.9769,2.957,2.9395,2.9251,2.9123,2.8984,2.8858,2.9981,3.0493,3.0242,3.1203,3.162,3.1449,3.1291,3.119,3.119,3.0958,3.0797,3.0658,3.0477,3.0166,2.9761,2.9745,2.9569,2.93,2.9496,2.9924,3.0335,3.0079,3.0109,3.0224,2.9736,2.9539,2.9581,2.9946,3.0082,3.0159,3.0646,3.0884,3.1038,0.0,0.0,0.0,0.0,0.0,0.0,0.0,0.0,0.0,0.0,0.0,0.0,0.0,0.0,3.661,0.0,0.0,3.7962,3.8807,3.8914,3.9164,3.993,4.0371,4.0606,4.0606,4.0933,4.1484,4.2286,4.2262,4.2389,4.2779,4.3082,4.3259,4.3259,4.3615,4.3771,4.3719,4.3548,4.3284,4.2977,4.2657,4.2244,4.1796,4.1613,4.1363,4.1152,4.1088,4.1041,4.1041,4.1041,4.1041,4.1041,4.0707,4.0435,4.0075,3.9474,3.9015,3.8614,3.8182,3.7661,3.7152,0.0,0.0,0.0,0.0,0.0,0.0,0.0,2.6087,2.6695,2.7348,2.821,2.902,2.9652,3.0008,3.0123,2.9972,2.9551,2.9293,2.9293,2.903,2.8858,2.881,2.9871,3.0295,2.9997,3.1045,3.1449,3.119,3.119,3.119,3.119,3.0797,3.0518,3.0393,3.0038,2.9673,2.9316,2.9239,2.9057,2.8888,2.9287,2.9528,2.9661,2.9865,3.0267,3.0608,3.0129,2.9951,2.9928,2.9951,3.0007,3.0143,3.0698,3.0902,3.1023,3.1297,3.1363,0.0,0.0,0.0,0.0,0.0,0.0,0.0,0.0,0.0,3.6118,3.6096,3.6738,3.7507,3.8139,3.8402,3.8801,3.9646,3.9771,4.0019,4.0718,4.0924,4.1017,4.1017,4.151,4.2207,4.3025,4.2996,4.318,4.3828,4.3818,4.3753,4.3753,4.3771,4.3686,4.3582,4.3231,4.2977,4.2768,4.2133,4.1709,4.1534,4.1198,4.1047,4.1047,4.0935,4.0888,4.0888,4.0888,4.0823,4.071,4.022,3.9952,3.9851,3.9437,3.8874,3.8323,3.7978,3.7602,3.7335,0.0,0.0,0.0,0.0,0.0,0.0,0.0,0.0,2.5667,2.5758,2.7036,2.7972,2.8053,2.9347,3.0194,3.0171,2.9644,2.9375,2.9533,2.9097,2.881,2.8785,2.955,2.9951,2.9919,3.0791,3.123,3.119,3.119,3.119,3.119,3.1015,3.0895,3.0814,3.0773,3.014,2.912,2.9164,2.856,2.7625,2.8039,2.851,2.9044,2.9377,3.0011,3.0733,3.0771,3.0778,3.0801,3.1079,3.1399,3.1706,3.2071,3.2388,3.2742,3.3229,3.3369,3.3478,3.3942,3.4157,3.4437,3.5338,3.5586,3.5754,0.0,0.0,3.6849,3.6801,3.7486,3.8091,3.8128,3.8763,3.953,4.0352,4.0448,4.0691,4.1464,4.2092,4.2465,4.2465,4.2539,4.2909,4.3725,4.3721,4.3693,4.3786,4.3701,4.3615,4.3615,4.3566,4.3532,4.3532,4.3142,4.2711,4.2279,4.1778,4.1373,4.1012,4.0918,4.0935,4.0935,4.0935,4.0888,4.0888,4.0888,4.0597,4.012,4.0003,3.98,3.9437,3.9044,3.8875,3.8808,3.8706,3.8455,3.8119,0.0,0.0,0.0,0.0,0.0,0.0,0.0,0.0,0.0,2.6198,2.6812,2.7382,2.7815,2.8833,2.9679,3.0161,2.9751,2.9475,2.9476,2.9056,2.8669,2.8386,2.8959,2.9368,2.959,3.0233,3.0768,3.119,3.119,3.119,3.119,3.0518,3.0123,2.9995,2.9377,2.8732,2.8091,2.8125,2.7845,2.7335,2.822,2.859,2.8748,2.9689,3.0113,3.0199,3.0568,3.0651,0.0,3.1061,3.1162,3.1261,3.1896,3.2074,3.2162,3.2908,3.3081,3.3172,3.3643,3.44,3.5107,0.0,3.5838,3.6429,3.6783,3.7256,3.7642,3.7598,3.8296,3.8901,3.885,3.9149,3.9653,0.0,4.0532,4.0943,4.2129,4.2563,4.2891,4.3296,4.3268,4.3398,4.3781,4.3753,4.3667,4.3667,4.36,4.3548,4.3548,4.3532,4.3375,4.316,4.2711,4.2257,4.1778,4.1373,4.1088,4.0888,4.0888,4.0888,4.0888,4.0888,4.0888,4.0871,4.0549,4.022,3.9952,3.9299,3.8941,3.8723,3.823,3.8075,3.8108,3.8466,3.8492,3.8368,0.0,0.0,0.0,0.0,0.0,0.0,0.0,0.0,0.0,0.0,2.6663,2.7171,2.8145,2.8739,2.937,3.0163,2.9899,2.9625,2.9438,2.9101,2.87,2.8281,2.8699,2.9026,2.9228,2.9896,3.0421,3.0903,3.1106,3.1095,3.0918,3.0123,2.9585,2.93,2.8543,2.8057,2.7775,2.781,2.7725,2.7575,2.8479,2.8764,2.8748,2.981,3.007,2.9941,3.0342,3.0526,3.0568,3.0855,3.0918,3.0988,3.1637,3.1694,3.1733,3.2586,3.2991,3.3297,3.3724,3.4724,0.0,3.5818,3.6478,3.7154,3.7378,3.7951,3.8387,3.8387,3.8891,3.9346,3.932,3.932,3.9629,4.0579,4.0794,4.1361,4.2835,4.3058,4.3249,4.3679,4.3634,4.36,4.3719,4.3634,4.3582,4.3582,4.3532,4.3497,4.3497,4.341,4.3196,4.292,4.2338,4.1864,4.1516,4.1071,4.0888,4.0888,4.0888,4.0888,4.0871,4.071,4.0566,4.0402,3.9969,3.968,3.9473,3.8668,3.8238,3.8026,3.7626,3.748,3.7539,3.7992,3.8294,3.8448,0.0,0.0,0.0,0.0,0.0,0.0,0.0,0.0,0.0,0.0,0.0,0.0,0.0,2.9178,2.9492,3.0227,3.0103,2.9842,2.9533,2.9235,2.8971,2.8694,2.9062,2.9148,2.8829,2.992,3.0375,3.0142,3.0852,3.0878,3.0293,3.0166,2.9745,2.9194,2.93,2.9088,2.8685,2.8935,2.8716,2.8186,2.8542,2.8779,2.8951,2.938,2.9782,3.0231,3.0426,3.0526,3.0526,3.0814,3.1213,3.1579,3.1617,3.1856,3.2197,3.2894,3.3804,3.4736,3.5146,0.0,3.6263,3.7442,3.7802,3.8061,3.8841,3.91,3.9146,3.9091,3.9137,3.9183,3.9129,3.9101,3.964,4.1293,4.1553,4.2099,4.3638,4.3814,4.3734,4.3615,4.3566,4.3479,0.0,4.3497,4.3479,4.3479,4.3497,4.3497,4.3497,4.3105,4.292,4.2882,4.199,4.1516,4.1472,4.1071,4.0888,4.0888,4.0888,4.0888,4.0871,4.0269,3.9749,3.9259,3.9259,3.8903,3.8334,3.8278,3.7985,3.7539,3.7539,3.748,3.748,3.7539,3.7892,3.8448,0.0,0.0,0.0,0.0,0.0,0.0,0.0,0.0,0.0,0.0,0.0,0.0,0.0,0.0,0.0,0.0,2.987,2.9971,2.9791,2.9401,2.8993,2.8573,2.8541,2.8488,2.8462,2.9317,2.9809,2.996,3.0701,3.0935,3.0675,3.0225,2.9924,2.9689,2.8904,2.8384,2.8143,2.7845,2.7675,2.769,2.8238,2.8511,2.8701,2.9438,2.9589,2.956,0.0,3.0609,3.079,3.1032,3.1078,3.1123,3.1504,3.1524,3.1668,3.2915,3.3776,3.4438,3.5105,0.0,3.6827,3.7289,3.7993,3.8645,3.898,3.9064,3.9073,3.9101,3.9073,3.9064,3.9036,3.9007,3.9301,4.0369,4.104,4.173,4.2709,4.3336,4.3634,4.3548,4.3513,0.0,0.0,0.0,0.0,4.3497,4.3497,4.3375,4.3123,4.2957,4.2847,4.2789,4.2458,4.2404,4.2614,4.2486,4.2455,4.2437,4.1871,4.1174,4.0286,4.0103,3.9697,3.9206,3.8794,3.8518,3.8294,3.7943,3.7685,3.748,3.748,3.748,3.748,3.748,3.7759,3.8075,0.0,0.0,0.0,0.0,0.0,0.0,0.0,0.0,0.0,0.0,0.0,0.0,0.0,0.0,0.0,0.0,0.0,2.9838,2.9893,2.9635,2.9229,2.8745,2.8535,2.8353,2.8264,2.9119,2.9592,2.9671,3.0549,3.0814,3.0426,3.0027,2.9705,2.9409,2.8654,2.8271,2.8174,2.786,2.7825,2.8024,2.8431,2.8622,2.8764,2.9319,2.9425,0.0,3.0199,3.0675,3.0935,3.123,3.1252,3.1218,3.1542,3.1788,3.2139,3.3104,3.4006,3.4851,3.5657,3.6558,3.7352,3.7692,3.8357,3.891,3.895,3.895,3.8979,3.9036,3.9007,3.895,3.895,3.8921,3.9139,3.989,4.0745,4.1557,4.2243,4.3085,4.3582,4.3532,4.3497,4.3497,0.0,0.0,0.0,4.3497,4.3375,4.3269,4.3281,4.2987,4.2917,4.3114,4.2964,4.2988,4.3214,4.3214,4.3214,4.3214,4.243,4.1478,4.0469,4.0258,3.9842,3.93,3.8898,3.8723,3.8723,3.8356,3.8207,3.8207,3.8207,3.8049,3.7859,3.7859,3.7789,3.7786,0.0,0.0,0.0,0.0,0.0,0.0,0.0,0.0,0.0,0.0,0.0,0.0,0.0,0.0,0.0,0.0,0.0,0.0,2.9842,2.9893,2.9689,2.9151,2.906,2.8748,2.8237,2.9294,2.9689,2.9299,3.0434,3.0502,2.9661,2.9633,2.9243,2.8493,2.8653,2.8685,2.8732,2.8936,2.9029,2.9075,2.9075,2.9075,2.9121,2.9121,2.9305,2.9649,3.0309,3.0683,3.0885,3.1368,3.1651,3.18,3.1852,3.2558,3.3387,3.3475,3.4544,3.5852,3.6692,3.7286,3.7844,3.8603,3.887,3.8918,3.8881,3.8862,3.8862,3.8862,3.8862,3.8862,0.0,0.0,3.915,3.9907,4.0702,4.1501,4.2216,4.3045,4.3545,0.0,0.0,0.0,0.0,0.0,0.0,4.3465,0.0,4.3224,4.3888,4.3172,4.3085,4.3793,4.3447,4.3301,4.3285,4.3285,4.3268,4.3233,4.2549,4.1875,4.1236,4.0668,4.0043,3.9503,3.9503,3.9503,3.9503,3.9503,3.9503,3.9503,3.9503,3.9123,3.857,3.857,3.8128,3.7528,0.0,0.0,0.0,0.0,0.0,0.0,0.0,0.0,0.0,0.0,0.0,0.0,0.0,0.0,0.0,0.0,0.0,0.0,2.9378,2.9794,2.9916,2.9624,2.9377,2.8979,2.8456,2.9096,2.9479,2.9523,3.0003,3.0269,3.0335,3.0113,2.9826,2.9409,2.8935,2.8764,2.8811,2.8253,2.822,2.8589,2.8589,2.8936,2.9499,2.9589,2.9881,3.0309,3.0885,3.1044,3.1123,3.1637,3.1839,3.1962,3.2475,3.2824,3.3263,3.4406,3.503,3.5645,3.6969,3.7864,3.8474,3.8674,3.9209,3.9436,3.8569,3.836,3.8392,3.8455,3.8423,3.8473,0.0,0.0,0.0,3.9026,3.9724,0.0,4.1328,4.2136,0.0,4.3424,0.0,4.3375,4.3069,4.3445,0.0,0.0,4.3261,4.3161,4.305,4.3346,4.3733,4.4143,4.4076,4.4268,4.4837,4.4397,4.3875,4.3243,4.2624,4.1774,4.0609,4.0464,4.0043,3.9503,3.9503,3.9503,3.9503,3.9503,3.9503,3.9503,3.9503,3.9408,3.925,3.925,3.8544,3.7639,0.0,0.0,0.0,0.0,0.0,0.0,0.0,0.0,0.0,0.0,0.0,0.0,0.0,0.0,0.0,0.0,0.0,0.0,0.0,2.9524,2.9762,2.9893,2.9607,2.9237,2.8764,2.9168,2.936,2.9301,2.9917,3.0226,3.0239,3.0385,3.0241,2.9793,2.9303,2.9028,2.8858,2.8574,2.859,0.0,0.0,2.9454,2.9924,3.0011,3.0225,3.0559,3.1083,3.1411,3.1562,0.0,0.0,3.1977,3.2662,3.3145,3.3662,3.4852,0.0,3.6024,3.7605,3.8363,3.8743,3.8922,3.929,3.9367,3.8398,3.815,3.8216,3.8428,3.8446,0.0,3.8701,0.0,0.0,0.0,0.0,0.0,4.1001,4.1791,4.2598,0.0,4.3809,0.0,4.3427,4.388,4.4026,0.0,4.3527,4.3553,4.3647,4.3895,4.426,4.4768,4.4785,4.487,4.5015,4.4669,4.4114,4.3361,4.2798,4.2064,4.1342,4.1034,4.0721,4.0419,0.0,4.0419,4.0419,4.0419,4.0291,4.0096,4.0096,3.9713,3.9237,3.9237,3.8592,3.7732,0.0,0.0,0.0,0.0,0.0,0.0,0.0,0.0,0.0,0.0,0.0,0.0,0.0,0.0,0.0,0.0,0.0,0.0,0.0,0.0,2.9476,3.0046,2.988,2.9588,2.9196,2.9363,2.9332,2.8988,2.9847,3.0155,2.9871,3.0392,3.0377,2.9837,2.9705,2.9454,2.909,2.9425,2.956,2.9605,3.0017,3.0241,3.0377,0.0,3.0502,3.0723,3.1218,3.1691,3.2073,3.1873,3.18,3.1975,3.28,3.3542,3.4249,3.5094,3.587,3.6787,3.822,3.877,3.8953,3.9175,3.9281,3.9118,3.8233,3.8034,3.8135,3.8546,0.0,3.8627,3.8707,3.8707,3.8707,3.8707,0.0,4.0065,4.0983,4.1699,4.2488,4.3387,4.4213,4.451,4.4059,4.4414,4.4441,4.3992,4.4003,4.427,4.4813,4.4591,4.4734,4.5406,4.5318,4.5032,4.4502,4.4316,4.3956,4.3393,4.2756,4.2459,4.2459,4.1835,4.1588,4.1588,4.1588,0.0,4.1588,4.1588,4.1256,4.0799,4.0799,4.0086,3.9001,3.9001,3.8561,3.7767,0.0,0.0,0.0,0.0,0.0,0.0,0.0,0.0,0.0,0.0,2.5402,2.5546,0.0,0.0,0.0,0.0,0.0,0.0,0.0,0.0,0.0,3.0384,3.0208,2.9975,2.9691,2.9454,2.9384,2.9475,2.9278,2.9534,3.0194,2.9989,3.0035,3.0208,3.0011,2.9941,2.9957,2.981,2.981,2.9941,2.9984,3.0309,3.0723,3.0845,0.0,0.0,3.1671,3.1929,3.2144,3.191,3.1856,3.2117,3.3477,3.3973,3.4352,3.5714,3.6663,3.743,3.8018,3.913,3.9864,3.893,3.9278,3.9403,3.7954,3.7614,0.0,0.0,3.8201,3.8303,3.8627,3.8707,3.8707,3.8707,0.0,0.0,0.0,0.0,4.1864,0.0,0.0,0.0,0.0,0.0,0.0,0.0,0.0,4.4889,4.4438,4.4924,4.5285,4.5423,4.4906,4.4614,4.4502,4.3486,4.288,4.2756,4.2077,4.1769,4.1785,4.1654,4.1588,4.1588,4.1588,0.0,4.1588,4.1588,4.1256,4.0799,4.0799,4.0347,3.9738,3.9738,3.9033,3.8042,0.0,0.0,0.0,0.0,0.0,0.0,0.0,0.0,2.4962,2.4981,2.5116,2.5288,2.5525,2.5541,0.0,0.0,0.0,0.0,0.0,0.0,0.0,0.0,3.0355,3.016,2.9961,2.9704,2.9491,2.9337,0.0,2.9612,2.9881,3.0471,3.0679,3.064,3.0917,3.0931,3.0751,3.0566,3.0525,3.0583,3.0584,3.0838,3.1157,0.0,0.0,0.0,0.0,3.2001,3.2179,3.2001,3.1965,3.2262,3.3692,3.4138,3.4431,3.5953,3.6679,3.7213,3.8415,3.9018,3.9276,3.9027,3.9018,3.872,3.7474,0.0,0.0,0.0,3.8252,3.8401,3.8401,0.0,0.0,0.0,0.0,0.0,0.0,0.0,0.0,0.0,0.0,0.0,0.0,0.0,0.0,0.0,0.0,4.5268,4.4889,4.5234,4.5264,4.4961,4.4669,4.4202,4.3545,4.2896,4.2396,4.2093,4.1769,4.1588,4.1588,4.1588,4.1588,4.1588,4.1588,0.0,4.1588,4.1588,4.1107,4.0339,4.0339,3.9763,3.9045,3.9045,3.8634,3.8165,0.0,0.0,0.0,0.0,0.0,0.0,0.0,2.4663,2.4712,2.4737,2.4766,2.4943,2.5312,2.5401,2.5463,0.0,0.0,0.0,0.0,0.0,0.0,0.0,0.0,0.0,0.0,0.0,0.0,0.0,2.9672,0.0,0.0,0.0,0.0,0.0,3.1582,3.1725,3.1543,3.1411,3.1391,0.0,0.0,3.1483,0.0,0.0,0.0,0.0,0.0,0.0,3.2232,3.2108,3.2108,3.2423,3.3827,3.4237,3.4549,3.6093,3.6606,3.7047,3.8524,3.8649,3.8444,3.8818,3.855,3.7963,3.7132,3.7356,0.0,0.0,3.8368,3.8483,3.8168,0.0,3.8101,0.0,3.8101,0.0,0.0,0.0,0.0,0.0,0.0,0.0,0.0,0.0,0.0,0.0,0.0,0.0,4.5423,4.5423,4.514,4.4502,4.4373,4.3722,4.2585,4.2459,4.2158,4.1588,4.1588,4.1588,4.1588,4.1588,4.1588,4.1588,4.1588,0.0,0.0,4.1456,4.082,3.9905,3.9763,3.9133,3.8202,3.8202,3.8202,3.8202,0.0,0.0,0.0,0.0,0.0,0.0,0.0,2.4388,2.4458,2.451,2.454,2.4613,2.4845,2.5075,2.5305,0.0,0.0,0.0,0.0,0.0,0.0,0.0,0.0,0.0,0.0,0.0,0.0,0.0,0.0,0.0,0.0,0.0,0.0,0.0,0.0,0.0,3.2282,3.2299,0.0,0.0,0.0,0.0,0.0,0.0,0.0,0.0,0.0,0.0,0.0,0.0,0.0,3.2617,3.4032,3.4446,3.4683,3.6249,0.0,0.0,3.7723,3.8183,3.8451,3.7871,3.7706,3.7572,3.715,0.0,0.0,3.8034,3.8135,3.8135,3.8101,3.8101,3.8101,3.8101,3.8101,3.8525,0.0,0.0,0.0,0.0,0.0,0.0,0.0,0.0,0.0,0.0,0.0,0.0,4.5423,4.5423,4.514,4.4502,4.3881,4.3273,4.2585,4.2029,4.1654,4.1588,4.1588,4.1588,4.1588,4.1588,4.1588,4.1588,4.1588,0.0,0.0,4.1055,4.0493,3.9834,3.9364,3.8797,3.8202,3.8202,3.8202,3.8202,0.0,0.0,0.0,0.0,0.0,0.0,0.0,2.4116,2.4173,2.4192,2.4229,2.4319,2.4487,2.467,2.4892,0.0,0.0,0.0,0.0,0.0,0.0,0.0,0.0,0.0,0.0,0.0,0.0,3.0057,0.0,0.0,0.0,0.0,0.0,0.0,0.0,0.0,0.0,0.0,0.0,0.0,0.0,0.0,0.0,0.0,0.0,0.0,0.0,0.0,0.0,0.0,0.0,0.0,3.4215,3.4708,0.0,0.0,3.6917,3.7206,3.7532,3.755,3.7505,3.7577,3.7366,3.7056,3.68,0.0,3.7413,3.7395,3.7578,3.765,3.7432,3.7578,3.7721,3.7721,3.7948,0.0,0.0,0.0,0.0,0.0,0.0,0.0,0.0,0.0,0.0,0.0,0.0,0.0,4.5423,4.5086,4.4541,4.3939,4.329,4.2632,4.2013,4.1704,4.1588,4.1588,4.1588,4.1588,4.1588,4.1588,4.1588,4.1588,4.1588,0.0,0.0,4.1003,4.0424,3.9834,3.9292,3.8723,3.8202,3.8202,3.8202,3.8202,0.0,0.0,0.0,0.0,0.0,2.3792,2.3873,2.3896,2.3955,2.3976,2.4016,2.4114,2.4211,2.4302,2.4441,2.4678,0.0,0.0,0.0,0.0,0.0,0.0,0.0,0.0,0.0,0.0,0.0,3.0396,3.0379,0.0,0.0,0.0,0.0,0.0,0.0,0.0,0.0,0.0,0.0,0.0,0.0,0.0,0.0,0.0,0.0,0.0,0.0,0.0,0.0,0.0,0.0,0.0,3.4181,3.4765,3.5314,0.0,3.6829,3.6893,3.7269,3.7067,3.6888,3.7269,3.705,3.6748,0.0,0.0,3.7111,3.6939,3.7132,3.7266,3.7132,3.7321,3.7542,3.765,3.7913,3.8135,3.8252,0.0,0.0,0.0,0.0,0.0,0.0,0.0,0.0,0.0,0.0,0.0,0.0,4.4669,4.4013,4.3512,4.2925,4.2269,4.1588,4.1588,4.1588,4.1588,4.1588,4.1588,4.1588,4.1588,4.1588,4.1588,4.1588,0.0,0.0,4.0836,4.027,3.9819,3.9075,3.8575,3.8202,3.8202,3.8202,3.8202,0.0,0.0,0.0,0.0,0.0,0.0,0.0,2.381,2.3816,2.3896,2.3976,2.3996,2.3996,2.3996,2.4074,2.419,0.0,0.0,0.0,0.0,0.0,0.0,0.0,0.0,0.0,0.0,3.0677,3.0597,3.0523,3.0459,3.0412,3.1011,0.0,0.0,0.0,0.0,0.0,0.0,0.0,0.0,0.0,0.0,0.0,0.0,0.0,0.0,0.0,0.0,0.0,0.0,0.0,0.0,0.0,3.4528,3.535,3.6629,3.6891,3.6788,3.6788,3.6766,3.6742,3.6788,3.6766,3.6702,0.0,0.0,3.7052,3.6956,3.69,3.7017,3.7432,3.7505,3.7614,3.8034,3.8101,3.8252,3.8627,0.0,0.0,0.0,0.0,0.0,0.0,0.0,0.0,0.0,0.0,0.0,0.0,4.4226,4.3512,4.3512,4.2925,4.2269,4.1588,4.1588,4.1588,4.1588,4.1588,4.1588,4.1588,4.1588,4.1588,0.0,0.0,0.0,0.0,4.0393,3.9889,3.9763,3.862,3.8202,3.8202,3.8202,3.8202,3.8202,0.0,0.0,0.0,0.0,0.0,0.0,0.0,2.3765,2.3807,2.3828,2.3852,2.3858,2.3858,2.3896,2.3937,2.3996,0.0,0.0,0.0,0.0,0.0,0.0,0.0,0.0,0.0,0.0,3.0425,3.0526,3.0609,3.0918,3.1442,3.2182,3.2893,0.0,0.0,0.0,0.0,0.0,0.0,0.0,0.0,0.0,0.0,0.0,0.0,0.0,0.0,0.0,0.0,0.0,0.0,0.0,0.0,0.0,0.0,3.6053,3.6527,0.0,3.6811,3.6788,3.6748,3.6725,3.6742,3.6661,3.6585,3.6626,3.6632,3.6533,3.6492,3.6597,3.7017,3.7094,3.7321,3.7982,3.7879,3.7721,0.0,0.0,0.0,0.0,0.0,0.0,0.0,0.0,0.0,0.0,0.0,0.0,0.0,4.4169,4.3512,4.3512,4.249,4.1835,4.1588,4.1588,4.1588,4.1588,4.1588,4.1588,4.1588,4.1189,4.1055,0.0,0.0,0.0,0.0,4.0185,3.9889,3.9763,3.8634,3.8202,3.8202,3.8202,3.8202,3.8202,0.0,0.0,0.0,0.0,0.0,0.0,0.0,2.3674,2.3739,2.3761,2.3768,2.3792,2.3771,2.3813,2.3855,2.3876,0.0,0.0,0.0,0.0,0.0,0.0,0.0,0.0,0.0,2.9972,3.0083,3.0318,3.07,3.121,3.181,3.3003,3.3782,3.4217,3.4971,0.0,0.0,0.0,0.0,0.0,0.0,0.0,3.4144,0.0,0.0,0.0,0.0,0.0,0.0,0.0,0.0,0.0,0.0,0.0,0.0,0.0,3.6221,3.7066,3.6908,3.6829,3.6788,3.6766,3.6684,0.0,0.0,3.6444,3.6402,3.6301,3.6301,3.6409,3.6821,3.69,3.7132,3.7774,3.765,0.0,0.0,0.0,0.0,0.0,0.0,0.0,0.0,0.0,0.0,0.0,0.0,0.0,0.0,4.4169,4.3512,4.3512,4.2253,4.1588,4.1588,4.1588,4.1588,4.1588,4.1588,4.1588,4.1588,4.1256,4.1003,0.0,0.0,0.0,0.0,3.9849,3.9565,3.9493,3.856,3.8202,3.8202,3.8202,3.8202,3.8202,0.0,0.0,0.0,0.0,0.0,0.0,0.0,0.0,0.0,2.3678,2.3743,2.3765,2.37,2.3743,2.3807,2.3795,0.0,0.0,0.0,0.0,0.0,0.0,0.0,0.0,0.0,2.9565,2.9704,2.995,3.0767,3.1331,3.1674,3.3408,3.4264,3.44,3.5206,3.5602,3.5686,3.5433,3.5187,3.4947,3.4939,3.4958,0.0,0.0,0.0,0.0,0.0,0.0,0.0,0.0,0.0,0.0,0.0,0.0,0.0,0.0,0.0,0.0,0.0,3.6908,3.6788,3.6788,0.0,0.0,0.0,3.6402,0.0,3.6301,3.6301,3.6409,3.6821,3.686,3.7017,3.7432,0.0,0.0,0.0,0.0,0.0,0.0,0.0,0.0,0.0,0.0,0.0,0.0,0.0,0.0,0.0,4.4169,4.3512,4.3512,4.2253,4.1588,4.1588,4.1588,4.1588,4.1588,4.1588,4.1573,4.1525,4.1509,4.1162,0.0,0.0,0.0,0.0,3.9218,3.906,3.9031,3.8427,3.8202,3.8202,3.8202,3.8202,3.8202,0.0,0.0,0.0,0.0,0.0,0.0,0.0,0.0,0.0,0.0,2.3656,2.3765,2.37,2.3743,2.3765,0.0,0.0,0.0,0.0,0.0,0.0,0.0,0.0,0.0,0.0,2.9243,2.9344,2.9622,3.0375,3.1164,3.2007,3.2944,3.3891,3.4844,3.5106,3.5396,3.5708,3.5627,3.5512,3.535,3.529,3.5205,0.0,0.0,0.0,0.0,3.4793,3.4672,0.0,0.0,0.0,0.0,0.0,0.0,0.0,0.0,3.5927,3.7259,3.7066,0.0,3.6788,3.6725,3.6602,3.6444,0.0,0.0,0.0,0.0,0.0,0.0,0.0,0.0,0.0,0.0,0.0,0.0,0.0,0.0,0.0,0.0,0.0,0.0,0.0,0.0,0.0,0.0,0.0,0.0,0.0,4.4169,4.3512,4.3512,4.2253,4.1588,4.1588,4.1588,4.1588,4.1588,4.1588,4.132,4.083,4.0391,3.9534,0.0,0.0,0.0,3.8516,3.8389,3.8629,3.9031,3.8427,3.8202,3.8202,3.8202,3.8202,3.8202,0.0,0.0,0.0,0.0,0.0,0.0,0.0,0.0,0.0,0.0,0.0,0.0,0.0,0.0,0.0,0.0,0.0,0.0,0.0,0.0,0.0,0.0,0.0,0.0,2.8915,2.886,2.9122,2.9734,3.0491,3.1418,3.243,3.3243,3.3976,3.4656,3.4889,3.5185,3.5486,3.5604,3.5647,3.563,3.5605,0.0,0.0,0.0,0.0,0.0,3.4978,3.4851,0.0,3.4539,3.4539,3.4495,0.0,0.0,0.0,0.0,3.6058,3.7354,3.7105,3.6908,3.6788,3.6742,3.6602,3.6444,3.6343,0.0,0.0,0.0,0.0,0.0,0.0,0.0,0.0,0.0,0.0,0.0,0.0,0.0,0.0,0.0,0.0,0.0,0.0,0.0,0.0,0.0,0.0,0.0,0.0,4.4169,4.3512,4.3512,4.2253,4.1588,4.1588,4.1588,4.143,4.113,4.113,4.0767,4.0087,3.9736,3.8982,0.0,0.0,0.0,3.7296,3.7296,3.7693,3.8238,3.7944,3.7955,3.8202,3.8202,3.8202,3.8202,0.0,0.0,0.0,0.0,0.0,0.0,0.0,0.0,0.0,0.0,0.0,0.0,0.0,0.0,0.0,0.0,0.0,0.0,0.0,0.0,0.0,0.0,0.0,2.8466,2.8562,2.8567,2.9006,2.994,3.0836,3.177,3.2686,3.3599,3.4078,3.4176,3.4679,3.5019,3.5229,3.5509,3.5706,3.581,3.5812,0.0,0.0,0.0,0.0,0.0,0.0,0.0,0.0,3.4668,3.4602,3.4476,3.3899,0.0,0.0,0.0,0.0,0.0,3.7126,3.6908,3.6788,3.6725,3.6643,3.6502,3.6343,3.6301,0.0,0.0,0.0,0.0,0.0,3.6597,0.0,0.0,0.0,0.0,0.0,0.0,0.0,0.0,0.0,0.0,0.0,0.0,0.0,0.0,0.0,0.0,0.0,4.4169,4.3403,4.3228,4.2029,4.1383,4.1272,4.1383,4.1146,4.0609,4.0498,4.0056,3.9345,3.9345,3.8698,3.7597,0.0,0.0,3.6156,3.6156,3.6562,3.7172,3.7259,3.7622,3.8072,3.8173,3.8202,3.8202,0.0,0.0,0.0,0.0,0.0,0.0,0.0,0.0,0.0,0.0,0.0,0.0,0.0,0.0,0.0,0.0,0.0,0.0,0.0,0.0,0.0,0.0,2.811,2.8128,2.8406,2.8731,2.9169,2.9647,3.0991,3.1793,3.213,3.2859,3.3449,3.3963,3.4623,3.5044,3.5309,3.5631,3.5801,3.588,3.5882,0.0,0.0,0.0,0.0,0.0,0.0,0.0,0.0,3.4689,3.4602,3.4476,3.3899,0.0,0.0,0.0,0.0,0.0,3.7147,3.6908,3.6788,3.6788,3.6725,3.6643,3.6502,3.6402,0.0,0.0,0.0,0.0,0.0,3.6557,0.0,0.0,0.0,0.0,0.0,0.0,0.0,0.0,0.0,0.0,0.0,0.0,0.0,0.0,0.0,0.0,0.0,4.3939,4.2993,4.1862,4.1087,4.0451,3.9819,4.0435,4.0704,4.0593,3.9977,3.9313,3.8665,3.8665,3.7748,3.6216,0.0,3.5962,3.5517,3.5517,3.588,3.6519,3.7085,3.736,3.7506,3.8014,3.8202,3.8202,0.0,0.0,0.0,0.0,0.0,0.0,0.0,0.0,0.0,0.0,0.0,0.0,0.0,0.0,0.0,0.0,0.0,0.0,0.0,0.0,0.0,2.7713,2.7771,2.7961,2.8327,2.8959,2.9565,3.0202,3.1255,3.2025,3.2613,3.2991,3.3408,3.3869,3.4352,3.4773,3.5158,3.5538,3.5745,3.5853,0.0,0.0,0.0,0.0,0.0,0.0,0.0,0.0,0.0,0.0,3.4645,3.4604,3.4037,0.0,0.0,0.0,0.0,0.0,3.7069,3.6908,3.6869,3.6748,3.6684,3.6544,3.6402,3.6343,0.0,0.0,0.0,0.0,0.0,0.0,0.0,0.0,0.0,0.0,0.0,0.0,0.0,0.0,0.0,0.0,0.0,0.0,0.0,0.0,0.0,0.0,0.0,0.0,4.2468,4.1451,4.0523,3.9835,3.9503,3.9487,3.9471,3.9471,3.9123,3.8618,3.7954,3.7954,3.7387,3.6321,0.0,3.5644,3.5295,3.4986,3.5227,3.5822,3.6141,3.6693,3.7375,3.7984,3.8202,3.8202,0.0,0.0,0.0,0.0,0.0,0.0,0.0,0.0,0.0,0.0,0.0,0.0,0.0,0.0,0.0,0.0,0.0,0.0,0.0,0.0,2.7444,2.7132,2.7382,2.783,2.8413,2.9226,3.0058,3.098,3.1703,3.2463,3.3135,3.3292,3.3502,3.3847,3.4213,3.4604,3.5055,3.5477,3.5725,3.5838,0.0,0.0,0.0,0.0,0.0,0.0,0.0,0.0,0.0,0.0,0.0,0.0,0.0,0.0,0.0,3.5486,3.6552,3.7843,3.7069,3.6908,3.6908,3.6725,3.6643,3.6527,3.6385,3.636,0.0,0.0,0.0,0.0,0.0,0.0,0.0,0.0,0.0,0.0,0.0,0.0,0.0,0.0,0.0,0.0,0.0,0.0,0.0,0.0,0.0,0.0,0.0,0.0,4.1823,4.0852,3.9831,3.9187,3.9029,3.8523,3.8349,3.8507,3.8349,3.8002,3.748,3.748,3.7225,3.6646,3.6117,3.5593,3.5169,3.4601,3.4704,3.5154,3.5369,3.6156,3.736,3.7825,3.8086,3.8202,0.0,0.0,0.0,0.0,0.0,0.0,0.0,0.0,0.0,0.0,0.0,0.0,0.0,0.0,0.0,0.0,0.0,0.0,0.0,0.0,2.7132,2.6937,2.6985,2.7615,2.8815,2.9589,3.0535,3.1703,3.2527,3.3037,3.3292,3.3352,3.3577,3.3902,3.4373,3.4774,3.5113,3.56,3.583,3.5889,3.5897,0.0,0.0,0.0,0.0,0.0,0.0,0.0,0.0,0.0,0.0,0.0,0.0,0.0,3.6827,3.5551,3.6669,3.8062,3.7206,3.6908,3.6788,3.6725,3.6725,3.6748,3.6544,3.6502,0.0,3.6343,0.0,0.0,0.0,0.0,0.0,0.0,0.0,0.0,0.0,0.0,0.0,0.0,0.0,0.0,0.0,0.0,0.0,0.0,0.0,0.0,0.0,0.0,0.0,3.9567,3.8918,3.827,3.7622,3.7575,3.7875,3.8507,3.7859,3.7528,3.748,3.748,3.7225,3.6646,3.6117,3.5593,3.5169,3.4601,3.4443,3.4545,3.514,3.6156,3.7317,3.736,3.7723,3.8277,0.0,0.0,0.0,0.0,0.0,0.0,0.0,0.0,0.0,0.0,0.0,0.0,0.0,0.0,0.0,0.0,0.0,0.0,0.0,0.0,2.7149,2.659,2.7051,2.7941,2.9253,2.9697,3.0561,3.1793,3.2629,3.3183,3.3352,3.3481,3.3698,3.4049,3.447,3.4865,3.5243,3.556,3.5757,3.5904,3.589,3.5898,0.0,0.0,0.0,0.0,0.0,0.0,0.0,0.0,3.487,3.4727,3.4316,3.5544,3.6876,3.5724,3.6783,3.8096,3.7129,3.6829,3.6748,3.6585,3.6643,3.6667,3.6444,3.6402,3.6343,3.6301,3.6301,0.0,0.0,0.0,0.0,0.0,0.0,0.0,0.0,0.0,0.0,0.0,0.0,0.0,0.0,0.0,0.0,0.0,0.0,0.0,0.0,0.0,0.0,3.9309,3.836,3.7749,3.748,3.748,3.7607,3.7875,3.7607,3.748,3.748,3.748,3.7421,3.7165,3.6646,3.6117,3.5608,3.5103,3.4721,3.4472,3.5111,3.5662,3.6199,3.7012,3.7447,3.7768,0.0,0.0,0.0,0.0,0.0,0.0,0.0,0.0,0.0,0.0,0.0,0.0,0.0,0.0,0.0,0.0,0.0,0.0,2.5927,2.6715,2.6891,2.6365,2.7195,2.8276,2.9522,3.0016,3.09,3.2187,3.2834,3.3226,3.3382,3.3549,3.3962,3.4544,3.4948,3.5524,3.6164,3.6385,3.6589,3.6718,3.6723,3.6562,0.0,0.0,0.0,0.0,0.0,0.0,0.0,0.0,3.4908,3.4785,3.4685,3.5797,3.6932,3.6121,3.7108,3.8259,3.7283,3.7013,3.6974,3.6753,3.6708,3.6643,3.6343,3.6343,3.6343,3.6301,3.649,3.699,3.8049,0.0,0.0,0.0,0.0,0.0,0.0,0.0,0.0,0.0,0.0,0.0,0.0,0.0,0.0,0.0,0.0,0.0,0.0,0.0,3.9648,3.8936,3.8017,3.748,3.748,3.748,3.748,3.748,3.748,3.748,3.748,3.748,3.748,3.748,3.6907,3.6507,3.6117,3.5479,3.4854,3.4457,3.4893,3.5183,3.5543,3.6373,3.6954,3.7448,0.0,0.0,0.0,0.0,0.0,0.0,0.0,0.0,0.0,0.0,0.0,0.0,0.0,0.0,0.0,0.0,0.0,0.0,2.674,2.6487,2.6295,2.6206,2.7367,2.8545,2.9692,3.0641,3.1744,3.2979,3.3201,3.331,3.331,3.3577,3.4318,3.5417,3.5907,3.6807,3.8016,3.8287,3.8436,3.8506,3.8498,3.7985,3.7207,0.0,0.0,0.0,0.0,0.0,0.0,0.0,3.5013,3.4879,3.5338,3.6245,3.7044,3.6771,3.7685,3.8621,3.7738,3.7505,3.7469,3.7264,0.0,0.0,3.6343,3.6402,3.6444,3.636,3.6956,3.7732,3.8474,0.0,0.0,0.0,0.0,0.0,0.0,0.0,0.0,0.0,0.0,0.0,0.0,0.0,0.0,0.0,0.0,0.0,0.0,3.9506,3.892,3.8351,3.7786,3.748,3.748,3.748,3.748,3.748,3.748,3.748,3.748,3.748,3.748,3.748,3.6907,3.6708,3.6646,3.5623,3.4854,3.4414,3.4414,3.4791,3.5427,3.5427,3.6185,3.7375,0.0,0.0,0.0,0.0,0.0,0.0,0.0,0.0,0.0,0.0,0.0,0.0,0.0,0.0,0.0,0.0,0.0,0.0,2.6906,2.707,2.7038,2.6758,2.7757,2.8795,2.9887,3.1561,3.2634,3.3055,3.3274,3.3393,3.347,3.433,3.5047,3.5581,3.6505,3.7349,3.8015,3.8197,3.8358,3.8507,3.8502,3.8358,3.8105,0.0,0.0,0.0,0.0,0.0,0.0,0.0,0.0,0.0,3.5552,3.6377,3.7068,3.6936,3.7635,3.8259,3.7376,3.7281,0.0,3.693,0.0,0.0,0.0,3.6343,0.0,0.0,3.8146,3.9112,3.9319,0.0,0.0,0.0,0.0,0.0,0.0,0.0,0.0,0.0,0.0,0.0,0.0,0.0,0.0,0.0,0.0,0.0,0.0,3.9714,3.9152,3.892,3.8017,3.748,3.748,3.748,3.748,3.748,3.748,3.748,3.748,3.748,3.748,3.748,3.7345,3.7029,3.6646,3.5623,3.4854,3.4414,3.4414,3.453,3.4748,3.5198,3.5965,3.6894,0.0,0.0,0.0,0.0,0.0,0.0,0.0,0.0,0.0,0.0,0.0,0.0,0.0,0.0,0.0,0.0,0.0,0.0,0.0,2.7215,2.74,2.7532,2.8598,2.9793,3.1154,3.2416,3.3073,3.3165,3.3334,3.3586,3.3953,3.4789,3.5725,3.6677,3.7497,3.8319,3.9069,3.9217,3.9377,3.9535,3.9541,3.9334,3.9014,0.0,0.0,0.0,0.0,0.0,0.0,0.0,0.0,0.0,3.6592,3.7169,3.7555,3.7687,3.8157,3.8499,3.7808,3.7756,0.0,3.7469,3.7246,3.6921,3.6409,0.0,0.0,0.0,0.0,3.9802,0.0,0.0,0.0,0.0,0.0,0.0,0.0,0.0,0.0,0.0,0.0,0.0,0.0,0.0,0.0,0.0,0.0,0.0,0.0,3.9662,3.9082,3.8865,3.796,3.748,3.748,3.748,3.748,3.748,3.748,3.748,3.748,3.748,3.748,3.748,3.748,3.7089,3.6321,3.5737,3.5037,3.4414,3.4414,3.4534,3.4712,3.4903,3.5755,3.6869,0.0,0.0,0.0,0.0,0.0,0.0,0.0,0.0,0.0,0.0,2.2728,0.0,0.0,0.0,0.0,0.0,0.0,0.0,0.0,0.0,2.7493,2.8382,2.9699,3.1258,3.2961,3.3073,3.3165,3.3292,3.3382,3.3821,3.4631,3.51,3.6352,3.8244,3.8646,3.9528,4.0734,4.0849,4.0972,4.1095,4.1106,4.0632,3.9907,3.9844,0.0,0.0,0.0,0.0,0.0,0.0,0.0,0.0,3.8037,3.8252,3.8278,3.8664,3.898,3.9055,3.867,3.8597,0.0,3.8387,3.7737,0.0,3.6492,3.7041,3.7854,3.8456,0.0,0.0,0.0,0.0,0.0,0.0,0.0,0.0,0.0,0.0,0.0,0.0,0.0,0.0,0.0,0.0,0.0,0.0,0.0,0.0,0.0,3.9506,3.8974,3.8407,3.7786,3.748,3.748,3.748,3.748,3.748,3.748,3.748,3.748,3.748,3.748,3.748,3.748,3.6892,3.5976,3.5913,3.535,3.4481,3.4414,3.4735,3.5103,3.4601,3.5556,3.7089,0.0,0.0,0.0,0.0,0.0,0.0,0.0,0.0,0.0,0.0,0.0,0.0,0.0,0.0,0.0,0.0,0.0,0.0,0.0,0.0,2.7572,2.8526,3.0442,3.1946,3.2961,3.3152,3.3292,3.3382,3.3452,3.3909,3.4779,3.5725,3.6956,3.8466,3.9276,4.0079,4.0859,4.0888,4.0988,4.1097,4.1095,4.0989,4.0812,4.0796,4.0658,0.0,0.0,0.0,0.0,0.0,0.0,0.0,3.8108,3.8252,3.8278,3.8664,3.8789,3.87,3.8314,3.841,0.0,0.0,3.7524,3.6999,3.6821,3.7883,3.8866,0.0,0.0,0.0,0.0,0.0,0.0,0.0,0.0,0.0,0.0,0.0,0.0,0.0,0.0,0.0,0.0,0.0,0.0,0.0,0.0,0.0,4.071,3.9782,3.9152,3.9028,3.8017,3.748,3.748,3.748,3.748,0.0,3.748,3.748,3.748,3.748,3.748,3.748,3.748,3.715,3.6523,3.6039,3.5544,3.4986,3.4534,3.4735,3.5103,3.4601,3.5624,3.7267,0.0,0.0,0.0,0.0,0.0,0.0,0.0,0.0,0.0,0.0,0.0,0.0,0.0,0.0,0.0,0.0,0.0,0.0,0.0,0.0,0.0,3.0021,3.1569,3.2581,3.3024,3.3244,3.3433,3.3578,3.4092,3.4789,3.5689,3.6303,3.7539,3.9299,3.9853,4.0369,4.0849,4.0878,4.098,4.1091,4.1095,4.1106,4.11,4.1107,4.1069,4.0933,4.0454,0.0,0.0,0.0,0.0,0.0,0.0,0.0,3.8845,3.9044,3.8894,3.867,3.8597,0.0,0.0,3.7943,0.0,3.7488,3.6999,3.7972,0.0,0.0,0.0,0.0,0.0,0.0,0.0,0.0,0.0,0.0,0.0,0.0,0.0,0.0,0.0,0.0,0.0,0.0,0.0,0.0,0.0,4.0888,4.0888,3.9833,3.9206,3.9206,3.8075,3.748,3.748,3.748,3.748,3.748,3.748,3.748,3.748,3.748,3.748,3.748,3.748,3.7225,3.6662,3.6383,3.5991,3.5479,3.4971,3.5234,3.5816,3.5052,3.6134,3.7946,0.0,0.0,0.0,0.0,0.0,0.0,0.0,0.0,0.0,0.0,0.0,0.0,0.0,0.0,0.0,0.0,0.0,0.0,0.0,0.0,0.0,3.1666,3.255,3.3042,3.3117,3.3327,3.3597,3.3821,3.4807,3.5801,3.6758,3.6962,3.815,4.01,4.0247,4.0487,4.0789,4.0869,4.098,4.1085,4.11,4.1091,4.11,4.1107,4.1051,4.0992,4.0947,4.0762,4.0526,4.0281,0.0,0.0,0.0,0.0,3.9495,3.9444,3.9073,3.873,3.897,0.0,3.8468,3.7959,3.8077,0.0,3.7285,3.7927,0.0,0.0,0.0,0.0,0.0,0.0,0.0,0.0,0.0,0.0,0.0,0.0,0.0,0.0,0.0,0.0,0.0,0.0,0.0,0.0,0.0,4.0776,4.0871,3.9714,3.9082,3.9206,3.8075,3.748,3.748,3.748,3.748,3.748,3.748,3.748,3.748,3.748,3.748,3.748,3.748,3.7225,3.6846,3.6723,3.6445,3.5976,3.5479,3.5879,3.6585,3.5688,3.6713,3.8608,0.0,0.0,0.0,0.0,0.0,0.0,0.0,0.0,0.0,0.0,0.0,0.0,0.0,0.0,0.0,0.0,0.0,0.0,0.0,0.0,0.0,3.1727,3.2624,3.3135,3.3262,3.3588,3.3813,3.3954,3.5075,3.6227,3.7394,3.7867,3.8807,4.01,4.0247,4.0496,4.0792,4.0878,4.0935,4.103,4.1075,4.1106,4.1106,4.1104,4.1054,4.1007,4.0992,4.0879,4.07,4.0332,4.0176,0.0,0.0,0.0,3.9495,3.9495,3.9101,3.87,3.873,0.0,3.8548,0.0,3.8291,3.8259,0.0,0.0,0.0,0.0,0.0,0.0,0.0,0.0,0.0,0.0,0.0,0.0,0.0,0.0,0.0,0.0,0.0,0.0,0.0,0.0,0.0,0.0,4.0434,4.0336,4.0871,3.9315,3.8684,3.9189,3.8075,3.748,3.748,3.748,3.748,3.748,3.748,3.748,3.748,3.748,3.748,3.748,3.748,3.748,3.7361,3.6907,3.6662,3.6523,3.5991,3.618,3.6646,3.6054,3.7036,3.8673,0.0,0.0,0.0,0.0,0.0,0.0,0.0,0.0,0.0,0.0,0.0,0.0,0.0,0.0,0.0,0.0,0.0,0.0,0.0,0.0,0.0,3.2437,3.2875,3.3238,3.352,3.377,3.4087,3.4394,3.591,3.7012,3.7747,3.8937,3.9776,4.0334,4.0434,4.0554,4.0738,4.0868,4.0935,4.1003,4.1064,4.11,4.1106,4.1094,4.1055,4.0994,4.0955,4.089,4.075,4.0348,4.0194,4.0139,3.9727,0.0,0.0,0.0,3.9183,3.8799,3.873,3.864,3.8517,0.0,3.8392,3.8504,3.805,0.0,0.0,0.0,0.0,0.0,0.0,0.0,0.0,0.0,0.0,0.0,0.0,0.0,0.0,0.0,0.0,0.0,0.0,0.0,0.0,0.0,3.9392,3.9217,3.9153,3.8136,3.758,3.7527,3.7102,3.688,3.688,3.7275,3.748,3.748,3.748,3.748,3.748,3.748,3.748,3.748,3.748,3.748,3.748,3.7225,3.7165,3.7089,3.6585,3.6708,3.7089,3.6585,3.756,3.9124,0.0,0.0,0.0,0.0,0.0,0.0,0.0,0.0,0.0,0.0,0.0,0.0,0.0,0.0,0.0,0.0,0.0,0.0,0.0,0.0,0.0,3.3024,3.3135,3.3357,3.3734,3.3979,3.4302,3.4733,3.6557,3.7622,3.7939,3.9629,4.0447,4.0504,4.0564,4.0635,4.0681,4.0818,4.0907,4.0971,4.1039,4.1064,4.1089,4.1082,4.1054,4.0999,4.0928,0.0,0.0,0.0,0.0,0.0,0.0,0.0,0.0,0.0,0.0,0.0,0.0,0.0,3.836,3.8147,3.8442,3.8664,0.0,0.0,0.0,0.0,0.0,0.0,0.0,0.0,0.0,0.0,0.0,0.0,0.0,0.0,0.0,0.0,0.0,0.0,0.0,0.0,0.0,0.0,3.8487,3.8225,3.7848,3.717,3.6577,3.6194,3.6175,3.6169,3.6169,3.6864,3.7291,3.748,3.748,3.748,3.748,3.748,3.748,3.748,3.748,3.748,3.748,3.748,3.7524,3.7583,3.7089,3.721,3.7567,3.7134,3.8058,3.9565,0.0,0.0,0.0,0.0,0.0,0.0,0.0,0.0,0.0,0.0,0.0,0.0,0.0,2.763,2.8059,2.8947,2.9265,3.0076,3.1685,3.1793,3.2229,3.3226,3.3352,0.0,3.3795,3.4195,3.4508,3.4793,3.6728,3.7764,3.7939,3.9629,4.0447,4.0504,4.0573,4.0598,4.0602,4.0745,0.0,0.0,4.0949,4.1018,4.1018,0.0,0.0,0.0,0.0,0.0,0.0,0.0,0.0,0.0,0.0,3.9602,3.9602,0.0,0.0,0.0,0.0,3.8032,0.0,3.8455,3.8535,0.0,0.0,0.0,0.0,0.0,0.0,0.0,0.0,0.0,0.0,0.0,0.0,0.0,0.0,0.0,0.0,0.0,0.0,0.0,0.0,0.0,0.0,0.0,3.812,3.7804,3.7801,3.675,3.6157,3.6194,3.5712,3.5442,3.5442,3.6137,3.6817,3.748,3.748,3.748,3.748,3.748,3.748,3.748,3.748,3.748,3.748,3.748,3.7626,3.7828,3.7583,3.7626,3.7886,3.7828,3.8527,3.9628,0.0,0.0,0.0,0.0,0.0,0.0,0.0,0.0,0.0,0.0,0.0,0.0,0.0,2.8456,2.8935,2.9809,3.0535,3.1404,3.2509,3.2691,3.2937,3.3334,3.3569,3.3813,3.4104,3.4467,3.5058,3.5891,3.7158,3.8101,3.8757,3.9928,4.0479,4.0504,4.0564,4.0593,4.0602,4.0738,0.0,0.0,0.0,0.0,0.0,0.0,0.0,0.0,0.0,0.0,0.0,0.0,0.0,0.0,0.0,3.9602,3.9602,3.9602,3.911,0.0,0.0,0.0,0.0,3.7877,3.8198,0.0,0.0,0.0,0.0,0.0,0.0,0.0,0.0,0.0,0.0,0.0,0.0,0.0,0.0,0.0,0.0,0.0,0.0,0.0,0.0,0.0,0.0,0.0,0.0,3.6565,3.5914,3.5819,3.535,3.4377,3.4915,3.5272,3.5379,3.6074,3.6548,3.6801,3.7259,3.748,3.748,3.748,3.748,3.748,3.748,3.748,3.748,3.748,3.7583,3.7626,3.7524,3.7583,3.7685,3.7828,3.8603,3.9628,0.0,0.0,0.0,0.0,0.0,0.0,0.0,0.0,0.0,0.0,0.0,0.0,0.0,0.0,2.9857,3.0698,3.1666,3.2481,3.3142,3.3327,3.3484,3.3662,3.3873,3.4152,3.4445,3.4713,3.5381,3.6523,3.7381,3.8271,3.9231,4.0079,4.0515,4.0539,4.0579,4.0588,0.0,0.0,0.0,4.0804,0.0,0.0,4.0978,0.0,0.0,0.0,0.0,0.0,0.0,0.0,0.0,0.0,0.0,3.9631,3.9596,3.9571,3.9129,0.0,3.8591,0.0,0.0,0.0,0.0,0.0,0.0,0.0,0.0,0.0,0.0,0.0,0.0,0.0,0.0,0.0,0.0,0.0,0.0,0.0,0.0,0.0,0.0,0.0,0.0,0.0,0.0,0.0,0.0,0.0,3.4864,3.5161,3.4721,3.3346,3.409,3.4665,3.5015,3.5726,3.62,3.6437,3.7148,3.748,3.748,3.748,3.748,3.748,3.748,3.748,3.748,3.748,3.7524,3.7626,3.7626,3.7626,3.7685,3.8059,3.8825,3.9813,0.0,0.0,0.0,0.0,0.0,0.0,0.0,0.0,0.0,2.7736,0.0,0.0,0.0,0.0,0.0,3.1671,3.2532,3.316,3.3486,3.3634,3.3854,3.4176,3.4334,3.4548,3.4831,3.4908,3.5512,3.6668,3.7455,3.8309,3.9269,4.0098,4.055,4.0607,4.0593,4.0588,4.0621,0.0,4.0746,4.0803,0.0,4.0894,4.0909,0.0,0.0,0.0,4.1006,4.0965,0.0,4.0597,0.0,0.0,0.0,3.9754,3.9577,3.952,3.9073,0.0,0.0,0.0,0.0,0.0,0.0,0.0,0.0,0.0,0.0,0.0,0.0,0.0,0.0,0.0,0.0,0.0,0.0,0.0,0.0,0.0,0.0,0.0,0.0,0.0,0.0,0.0,0.0,0.0,3.6301,3.5881,3.4864,3.4785,3.435,3.3346,3.3309,3.3609,3.4257,3.4984,3.571,3.6406,3.7117,3.7464,3.748,3.748,3.748,3.748,3.748,3.748,3.7539,3.748,3.7626,3.7886,3.7886,3.7886,3.7943,3.8567,3.9291,4.0087,0.0,0.0,0.0,0.0,0.0,0.0,0.0,0.0,2.8574,0.0,0.0,0.0,3.0778,3.1635,3.2313,3.2608,3.3076,3.3437,3.3625,3.3949,3.4176,3.4288,3.4572,3.5076,3.5741,3.6004,3.6886,3.8405,3.8668,3.9272,4.0146,4.0377,4.0543,4.0607,4.0593,4.0621,4.0687,4.0746,0.0,4.0803,4.0876,4.0898,0.0,0.0,0.0,0.0,0.0,4.0917,4.0867,0.0,4.0408,4.0211,0.0,0.0,0.0,3.9495,0.0,0.0,3.8263,0.0,0.0,0.0,0.0,0.0,0.0,0.0,0.0,0.0,0.0,0.0,0.0,0.0,0.0,0.0,0.0,0.0,0.0,0.0,0.0,0.0,0.0,0.0,0.0,0.0,0.0,0.0,3.6301,3.6028,3.5436,3.469,3.4184,3.3899,3.3503,3.3388,3.3577,3.4257,3.4968,3.5679,3.639,3.6975,3.748,3.748,3.748,3.748,3.748,3.7642,3.7786,3.7583,3.7524,3.7626,3.7828,3.7786,3.7685,3.8278,3.8827,3.9354,0.0,0.0,0.0,0.0,0.0,0.0,2.8323,2.9024,2.9549,0.0,0.0,0.0,3.2085,3.2662,3.3011,3.3042,3.335,3.3643,3.3805,3.4554,3.5055,3.5122,3.5761,3.6329,3.6786,3.7039,3.7808,3.9144,3.9176,3.965,4.0489,4.0489,4.0539,4.0607,0.0,0.0,0.0,0.0,0.0,0.0,4.0878,0.0,0.0,4.1013,4.1018,0.0,0.0,0.0,4.0867,4.0699,4.0442,0.0,0.0,0.0,0.0,0.0,0.0,0.0,0.0,0.0,0.0,0.0,0.0,0.0,3.7685,3.7913,0.0,0.0,0.0,0.0,0.0,0.0,0.0,0.0,0.0,0.0,0.0,0.0,0.0,0.0,0.0,0.0,0.0,3.6533,3.6301,3.6301,3.6301,3.5985,3.5283,3.4513,3.4,3.3745,3.345,3.3309,3.3309,3.3957,3.4668,3.5394,3.609,3.6801,3.748,3.748,3.748,3.748,3.748,3.7583,3.7727,3.7583,3.7583,3.7685,3.796,3.7918,3.7743,3.8488,3.8999,3.9509,0.0,0.0,0.0,2.8567,2.9286,2.9755,2.9331,3.0077,3.0666,0.0,3.1404,3.2235,3.3014,3.3158,3.326,3.326,3.3702,3.4081,3.4284,3.5484,3.6251,3.6444,3.733,3.7857,3.7934,3.8003,3.8473,3.9346,3.9346,3.9727,4.0489,4.0489,4.0539,4.0607,0.0,0.0,0.0,0.0,0.0,4.0815,4.0874,4.0905,0.0,0.0,4.1047,0.0,4.0988,4.0945,4.0877,4.0796,4.054,0.0,0.0,0.0,0.0,0.0,3.8884,0.0,0.0,0.0,0.0,0.0,0.0,0.0,3.7827,3.7966,3.815,0.0,0.0,0.0,0.0,0.0,0.0,0.0,0.0,0.0,0.0,0.0,0.0,0.0,0.0,0.0,3.7017,3.6557,3.6301,3.6301,3.6301,3.5881,3.4864,3.4415,3.3899,3.3309,3.3309,3.3309,3.3309,3.3878,3.4589,3.5394,3.6011,3.6722,3.748,3.748,3.748,3.748,3.748,3.7539,3.7524,3.7539,3.7685,3.7943,3.8205,3.8205,3.8059,3.8876,3.9452,3.9942,0.0,0.0,0.0,2.9898,3.0571,3.0969,3.046,3.1141,3.1655,3.156,3.2319,3.2906,3.3068,3.3661,3.4087,3.4217,3.5292,3.6025,3.6168,3.6864,3.7338,3.7431,3.7672,3.8125,3.8814,3.8898,3.9369,4.0252,4.0261,4.0335,4.0489,4.0489,4.0539,4.0607,4.0593,0.0,0.0,0.0,0.0,4.0873,4.0885,0.0,4.0918,4.0983,4.0972,4.0926,4.0926,4.0888,4.0796,0.0,4.0519,4.0372,0.0,0.0,0.0,0.0,0.0,0.0,0.0,0.0,0.0,0.0,0.0,0.0,3.7185,3.7223,3.7319,0.0,0.0,0.0,0.0,0.0,0.0,0.0,0.0,0.0,0.0,0.0,0.0,0.0,0.0,0.0,3.7395,3.6719,3.6301,3.6301,3.6301,3.5881,3.4864,3.4738,3.4251,3.3346,3.3309,3.3309,3.3309,3.3435,3.413,3.5394,3.5521,3.6248,3.748,3.748,3.748,3.748,3.748,3.7642,3.7786,3.7583,3.7685,3.7886,3.7943,3.8132,3.8335,3.8504,3.8737,3.9198,0.0,0.0,0.0,3.111,3.1714,3.2103,3.1637,3.2234,3.2683,3.2475,3.3242,3.3808,3.3851,3.4586,3.5137,3.5186,3.6076,3.6696,3.6746,3.7688,3.8289,3.8363,3.8816,3.9325,3.9783,3.9903,4.0154,4.0598,4.0636,4.0649,4.0648,4.0662,4.0668,4.0708,4.0733,4.0778,0.0,0.0,4.0977,4.1001,4.0967,0.0,4.0917,4.0969,4.0957,4.0907,4.0907,4.0859,4.0776,4.0675,4.0519,0.0,0.0,3.9892,3.9679,0.0,3.8913,3.8245,0.0,0.0,0.0,3.6987,0.0,0.0,0.0,3.7243,3.7339,0.0,0.0,0.0,0.0,0.0,0.0,0.0,0.0,0.0,0.0,0.0,0.0,0.0,0.0,0.0,3.7505,3.6781,3.6301,3.6301,3.6301,3.5881,3.4864,3.4769,3.435,3.3346,3.3309,3.3309,3.3309,3.3309,3.4004,3.5394,3.5394,3.6121,3.748,3.748,3.748,3.748,3.748,3.7583,3.7685,3.7685,3.7786,3.7886,3.7886,3.8189,3.86,3.86,3.8821,3.9254,3.1261,0.0,0.0,3.2227,3.282,3.3185,3.2797,3.325,3.3625,3.3579,3.437,3.4939,3.5027,0.0,0.0,0.0,3.6885,3.7312,0.0,0.0,0.0,3.9239,3.9996,4.0444,4.0511,4.0648,4.0725,4.0725,4.0761,4.0801,4.0807,4.0791,4.0807,4.08,4.0862,4.0904,0.0,0.0,0.0,4.1071,0.0,4.0994,4.0935,4.0969,4.0964,4.0917,4.0878,4.0839,4.0784,4.0757,0.0,4.0251,4.0177,3.9935,0.0,0.0,0.0,0.0,0.0,0.0,0.0,0.0,0.0,3.7048,0.0,0.0,0.0,3.7774,0.0,0.0,0.0,0.0,0.0,0.0,0.0,0.0,0.0,0.0,0.0,0.0,0.0,0.0,0.0,3.6781,3.6301,3.6301,3.6301,3.5881,3.4864,3.4769,3.435,3.3346,3.3309,3.3309,3.3309,3.3309,3.3941,3.5189,3.5315,3.6058,3.7275,3.7417,3.748,3.748,3.748,3.748,3.7539,3.7786,3.7886,3.7886,3.7943,3.8359,3.8805,3.8805,3.904,3.9454,3.2547,3.3061,0.0,0.0,3.3956,3.4358,3.3974,3.4024,3.4383,3.5126,3.595,0.0,0.0,0.0,0.0,0.0,0.0,0.0,3.9358,0.0,0.0,4.0136,4.0373,4.0516,4.0596,4.0706,4.0792,4.0792,4.0791,4.0801,4.0801,4.0807,4.0799,4.0801,4.0876,0.0,0.0,0.0,4.1063,0.0,4.1073,4.1086,0.0,4.1019,4.1011,4.098,4.0849,4.0815,4.0757,0.0,4.0504,4.0389,0.0,3.9914,3.9823,0.0,0.0,0.0,0.0,0.0,0.0,0.0,3.6987,0.0,0.0,0.0,3.7048,3.697,0.0,3.798,3.798,0.0,0.0,0.0,0.0,0.0,0.0,0.0,0.0,0.0,0.0,0.0,0.0,3.6781,3.6301,3.6301,3.6301,3.5881,3.4864,3.4769,3.435,3.3346,3.3309,3.3309,3.3309,3.3309,3.3672,3.4431,3.5078,3.5805,3.6564,3.7196,3.748,3.748,3.748,3.748,3.7539,3.7786,3.7886,3.7943,3.8205,3.8544,3.8805,3.8805,3.904,3.9441,3.3473,3.397,0.0,0.0,0.0,3.4983,3.5165,3.5502,0.0,0.0,0.0,0.0,0.0,0.0,0.0,0.0,0.0,3.9717,0.0,0.0,0.0,0.0,0.0,0.0,4.0706,4.0859,4.0926,4.0907,4.0955,4.0969,4.0972,4.0979,4.0992,4.1035,4.1023,0.0,4.1025,0.0,4.1082,0.0,0.0,0.0,0.0,4.1033,4.0976,4.0927,4.0828,4.0804,4.0788,0.0,4.0504,0.0,0.0,0.0,0.0,0.0,0.0,0.0,0.0,0.0,0.0,0.0,0.0,0.0,3.697,0.0,3.697,0.0,0.0,0.0,0.0,0.0,0.0,0.0,0.0,0.0,0.0,0.0,0.0,0.0,0.0,0.0,0.0,0.0,0.0,0.0,3.6301,3.5881,3.4864,3.4769,3.435,3.3346,3.3309,3.3309,3.3309,3.3309,3.364,3.4304,3.5031,3.5758,3.6453,3.7148,3.748,3.748,3.748,3.7583,3.7743,3.8091,3.8075,3.7943,3.8655,3.8876,3.8805,3.8805,3.904,3.9388,3.463,0.0,0.0,0.0,0.0,0.0,0.0,0.0,0.0,0.0,0.0,0.0,3.862,3.9118,0.0,0.0,3.9769,3.9937,0.0,0.0,4.0372,0.0,0.0,0.0,0.0,0.0,4.1033,4.1026,4.1091,4.1126,4.1121,4.1128,4.1151,4.1191,0.0,4.1129,4.1097,0.0,0.0,4.1101,4.1103,4.1091,4.1078,4.102,4.096,4.0867,4.0818,4.0804,4.0796,4.0746,4.0489,0.0,4.0101,0.0,0.0,0.0,0.0,0.0,3.8231,0.0,0.0,0.0,0.0,0.0,0.0,0.0,0.0,0.0,0.0,0.0,0.0,0.0,3.864,0.0,0.0,0.0,0.0,0.0,0.0,0.0,0.0,0.0,0.0,0.0,0.0,0.0,0.0,3.5941,3.5068,3.4864,3.4399,3.3555,3.3361,3.3309,3.3309,3.3309,3.3546,3.4036,3.4952,3.5647,3.6169,3.7069,3.748,3.748,3.748,3.7626,3.7943,3.8132,3.8205,3.8132,3.8876,3.904,3.8805,3.8914,3.9094,3.9355,3.6243,3.5747,0.0,0.0,0.0,0.0,0.0,0.0,0.0,0.0,0.0,0.0,0.0,0.0,0.0,0.0,0.0,4.0002,4.027,0.0,4.043,0.0,0.0,4.0827,0.0,0.0,4.1108,4.1108,4.1168,4.1191,4.1191,4.1191,4.1191,4.1191,4.1191,4.1168,4.1111,4.1094,4.1094,4.1091,4.11,4.1052,4.0996,0.0,4.0917,4.0807,4.0807,0.0,0.0,4.0569,4.0372,0.0,0.0,0.0,0.0,0.0,0.0,0.0,0.0,0.0,0.0,3.7069,0.0,0.0,0.0,0.0,3.6748,0.0,0.0,0.0,0.0,3.8318,3.8414,0.0,0.0,0.0,0.0,0.0,0.0,0.0,0.0,0.0,0.0,0.0,0.0,0.0,0.0,0.0,3.5616,3.5052,3.4593,3.4101,3.3555,3.3309,3.3309,3.3309,3.3309,3.3356,3.4731,3.5394,3.5473,3.6848,3.748,3.748,3.748,3.7626,3.7886,3.7886,3.8075,3.8391,3.8694,3.8805,3.886,3.9148,3.9272,3.9272,0.0,0.0,0.0,0.0,0.0,0.0,0.0,3.9261,0.0,0.0,0.0,0.0,0.0,0.0,4.1055,0.0,0.0,4.0882,4.04,4.0473,0.0,0.0,0.0,4.0945,0.0,0.0,4.1119,4.1169,4.1191,4.1191,4.1191,4.1191,4.1191,4.1191,0.0,4.1112,0.0,0.0,0.0,0.0,0.0,4.1025,4.0988,0.0,0.0,4.0807,4.0807,4.0812,0.0,4.0569,4.0339,4.0081,3.9873,3.9613,3.9399,3.9256,3.8952,0.0,0.0,0.0,3.8129,3.7505,0.0,0.0,0.0,0.0,0.0,0.0,0.0,0.0,0.0,0.0,0.0,0.0,0.0,0.0,0.0,0.0,0.0,0.0,0.0,0.0,0.0,0.0,0.0,0.0,0.0,0.0,0.0,3.5436,3.4975,3.4151,3.3899,3.3658,3.3293,3.3309,3.3309,3.3324,3.4731,3.5394,3.5442,3.6848,3.748,3.7539,3.7685,3.7844,3.7943,3.8132,3.8278,3.8448,3.8711,3.8805,3.886,3.9164,3.9272,3.9404,3.8199,0.0,0.0,0.0,0.0,0.0,0.0,0.0,0.0,0.0,4.0596,0.0,4.1513,0.0,4.2066,0.0,4.2122,4.1927,4.1353,4.1151,0.0,4.1164,4.1039,0.0,0.0,0.0,0.0,4.1191,4.1191,4.1191,4.1191,4.117,4.1168,4.1168,0.0,4.1108,4.1101,0.0,4.1108,0.0,0.0,4.0991,0.0,0.0,4.0868,4.0807,0.0,4.0812,4.0778,4.0569,4.0321,4.0061,3.981,3.9526,3.9301,3.9202,3.9027,3.8807,3.864,3.864,0.0,3.7895,3.7895,0.0,3.7167,0.0,0.0,0.0,0.0,0.0,0.0,0.0,0.0,0.0,0.0,0.0,0.0,3.2421,0.0,0.0,0.0,0.0,0.0,0.0,0.0,0.0,0.0,0.0,0.0,0.0,3.5299,3.4658,3.4284,3.3949,3.3607,3.3414,3.3309,3.3324,3.4731,3.5394,3.5442,3.6848,3.748,3.7539,3.7685,3.7828,3.7943,3.8132,3.8319,3.8544,3.875,3.886,3.8969,3.9218,3.9272,3.9454,0.0,0.0,0.0,0.0,3.9859,0.0,0.0,0.0,4.0398,0.0,4.1147,4.1738,4.1815,4.2505,4.2983,4.2983,4.3019,0.0,4.3015,4.2367,0.0,0.0,4.1335,4.1003,4.1112,0.0,0.0,0.0,4.1191,4.1191,4.1191,4.1121,4.1111,4.1108,4.1108,0.0,4.1108,4.1108,4.1108,4.1085,4.1037,4.0964,4.0907,4.0898,4.0867,4.0807,4.0807,4.0781,4.0746,4.0554,4.0285,4.0022,3.9709,3.9414,3.9183,3.9129,3.9101,3.9027,3.8718,3.8609,3.8548,3.8201,0.0,0.0,0.0,0.0,3.7376,0.0,0.0,0.0,0.0,0.0,0.0,0.0,0.0,0.0,0.0,0.0,0.0,0.0,0.0,0.0,0.0,0.0,0.0,0.0,0.0,0.0,0.0,0.0,3.5616,3.5616,3.461,3.4101,3.4101,3.3555,3.3309,3.3324,3.4731,3.5394,3.5442,3.6848,3.748,3.748,3.7539,3.7626,3.7886,3.7886,3.823,3.875,3.875,3.8969,3.9272,3.9272,3.9272,3.9388,4.0076,4.0192,4.0226,0.0,4.0351,4.0379,0.0,0.0,0.0,0.0,4.1566,4.216,4.3425,4.3788,4.394,4.394,4.3974,0.0,0.0,0.0,0.0,4.2088,4.2052,4.1735,4.1112,4.1163,0.0,4.1138,4.1138,4.1123,4.1129,4.1105,4.1099,4.1108,0.0,0.0,4.1108,4.1108,4.1074,4.1011,4.1013,4.096,0.0,0.0,4.0867,4.0807,4.0804,4.0707,4.0554,4.0339,4.0023,3.9687,3.9502,3.929,3.9129,3.9101,3.9101,3.9073,3.8998,3.897,3.8884,3.8566,3.8392,3.8245,0.0,0.0,0.0,0.0,0.0,0.0,0.0,0.0,0.0,0.0,0.0,0.0,0.0,0.0,0.0,0.0,0.0,0.0,0.0,0.0,0.0,0.0,0.0,0.0,0.0,0.0,0.0,3.5616,3.461,3.4101,3.4101,3.3555,3.3309,3.3324,3.4731,3.5394,3.5442,3.6848,3.748,3.7539,3.7743,3.7727,3.7642,3.7844,3.8001,3.8173,3.8432,3.8838,3.9272,3.9272,3.9272,3.9388,4.062,0.0,0.0,4.0733,0.0,0.0,4.0987,0.0,0.0,4.2157,4.2597,0.0,4.415,4.4629,4.4878,4.4878,4.4893,0.0,4.4309,0.0,0.0,4.3297,4.2694,4.2142,4.1675,4.1322,0.0,4.1108,0.0,4.1094,4.1101,4.1101,4.1097,4.1108,0.0,4.1057,4.1042,4.1033,4.1011,4.1007,4.0991,0.0,0.0,4.0765,4.0699,4.0655,4.0574,4.0534,4.0473,4.0269,3.9943,3.9571,3.9439,3.9275,3.9101,3.9101,3.9073,3.9045,3.9101,3.9073,3.9017,3.8855,3.8759,3.8621,3.8277,3.8162,3.8143,0.0,0.0,0.0,0.0,0.0,0.0,0.0,0.0,0.0,0.0,0.0,0.0,0.0,0.0,0.0,0.0,0.0,0.0,0.0,0.0,0.0,0.0,0.0,0.0,3.5898,3.5161,3.4658,3.4415,3.3882,3.3555,3.3324,3.4731,3.5394,3.5442,3.6848,3.748,3.7539,3.7685,3.7642,3.7539,3.7786,3.8017,3.8132,3.8432,3.8766,3.9094,3.9094,3.9148,3.9338,0.0,0.0,0.0,0.0,0.0,0.0,0.0,4.203,0.0,4.3054,0.0,4.4335,4.4451,4.5161,4.5603,4.5603,0.0,4.575,4.5813,4.5182,4.4797,4.4795,4.344,4.2578,4.2402,4.167,0.0,0.0,0.0,0.0,4.1062,4.1055,4.1051,4.1051,0.0,0.0,0.0,4.0926,4.0926,4.0974,4.0968,4.0917,4.0809,4.0584,4.0482,4.0453,4.0266,4.0304,4.0389,4.0233,3.9901,3.9543,3.9432,3.9275,3.9101,3.9101,3.9045,3.9036,3.9073,3.9064,3.9036,3.9073,3.9101,3.9027,3.8748,3.8688,3.8688,3.8688,3.8688,3.8748,0.0,0.0,0.0,0.0,0.0,0.0,0.0,0.0,0.0,0.0,0.0,0.0,0.0,0.0,0.0,0.0,0.0,0.0,0.0,0.0,0.0,3.6301,3.5705,3.5207,3.4816,0.0,3.3793,3.3451,3.4762,3.5442,3.5568,3.688,3.748,3.748,3.748,3.748,3.7539,3.7727,3.8017,3.8391,3.8694,3.8805,3.875,3.886,3.904,3.9218,0.0,0.0,0.0,0.0,0.0,4.2536,4.389,4.3407,4.3162,4.397,4.422,4.4566,4.5278,4.5563,4.5693,4.5693,4.5748,0.0,0.0,0.0,0.0,4.4911,4.4655,4.3863,4.2427,4.2255,4.1824,0.0,0.0,0.0,4.0935,4.0827,4.0762,4.0762,0.0,0.0,4.0902,4.0858,0.0,4.084,4.0848,4.0694,4.0468,4.0431,4.0351,4.0264,4.0213,4.012,4.0,3.9958,3.9735,3.9432,3.9418,3.9275,3.9101,3.9036,3.9064,3.9073,3.9036,3.9064,3.9073,3.9101,3.9101,3.9101,3.9027,3.8998,3.8998,3.8998,3.8998,3.8998,3.9007,0.0,0.0,0.0,0.0,0.0,0.0,0.0,0.0,0.0,0.0,0.0,0.0,0.0,0.0,0.0,0.0,0.0,0.0,0.0,0.0,0.0,3.5021,0.0,0.0,0.0,3.3668,3.413,3.4984,3.5695,3.6263,3.7101,3.748,3.748,3.748,3.748,3.748,3.7524,3.7743,3.8059,3.8567,3.8655,3.856,3.9056,3.9094,3.8914,0.0,0.0,0.0,0.0,0.0,0.0,0.0,4.4519,0.0,4.4983,4.5038,4.5192,4.5618,4.569,4.5706,4.5748,4.5819,4.5912,4.5995,4.6105,4.599,4.564,4.5214,0.0,4.3762,4.2854,4.219,4.1771,0.0,0.0,4.0909,4.0752,4.071,4.071,0.0,4.0622,0.0,0.0,0.0,4.0707,4.0694,4.0568,4.0377,4.0283,4.0157,4.0023,3.9937,3.9845,3.9754,3.9826,3.9637,3.9391,3.9328,3.9202,3.9073,3.9007,3.9007,3.9036,3.9007,3.9007,3.9017,3.9073,3.9073,3.9064,3.9101,3.9101,3.9101,3.9101,3.9101,3.8998,3.8748,3.8468,0.0,0.0,0.0,0.0,0.0,0.0,0.0,0.0,0.0,0.0,0.0,0.0,0.0,0.0,0.0,0.0,0.0,0.0,0.0,0.0,0.0,0.0,0.0,0.0,0.0,3.4304,3.5031,3.5758,3.6453,3.7148,3.748,3.748,3.748,3.748,3.7539,3.7626,3.7918,3.8205,3.8303,3.8359,3.8464,3.8727,3.8821,3.886,0.0,4.2678,0.0,0.0,4.4367,0.0,4.4924,4.5418,4.5754,4.5706,4.5703,4.57,4.5706,4.5722,4.5758,4.5819,4.5905,4.602,4.6114,4.6183,4.6242,4.6306,4.5636,4.5187,4.4992,4.3469,4.2591,0.0,0.0,0.0,0.0,4.0699,0.0,0.0,0.0,0.0,0.0,0.0,4.0511,4.0552,4.054,4.045,4.0262,4.0081,3.9939,3.981,3.9656,3.9596,3.9577,3.9684,3.9564,3.9391,3.9256,3.9156,3.9073,3.9007,3.9007,3.9007,3.8997,3.895,3.895,3.9045,3.9036,3.9007,3.9073,3.9101,3.9073,3.9101,3.9073,3.897,3.8579,3.8468,0.0,0.0,0.0,0.0,0.0,0.0,0.0,0.0,0.0,0.0,0.0,0.0,0.0,0.0,0.0,0.0,0.0,0.0,0.0,0.0,0.0,3.5253,3.4816,0.0,3.411,3.4525,3.511,3.5837,3.6658,3.7227,3.748,3.748,3.748,3.748,3.7539,3.7786,3.8017,3.8221,3.8075,3.8132,3.8278,3.8391,3.8544,3.8876,0.0,0.0,0.0,0.0,0.0,0.0,4.593,4.6065,4.5984,4.5735,4.57,4.57,4.57,4.5812,4.5866,4.5885,4.6061,4.6187,4.6192,4.6249,4.6295,4.63,4.6222,4.5812,4.5012,4.4075,4.3196,0.0,0.0,0.0,0.0,0.0,0.0,0.0,0.0,0.0,0.0,4.0406,4.0422,4.0403,4.0358,4.0177,3.9935,3.9785,3.9689,3.9626,3.9602,3.9571,3.9495,3.9451,3.9425,3.9391,3.9256,3.9156,3.9073,3.9007,3.9036,3.9073,3.895,3.9007,3.9073,3.9007,3.9007,3.9007,3.9073,3.9045,3.9036,3.9073,3.9045,3.8979,3.8862,3.8862,3.8773,0.0,0.0,0.0,0.0,0.0,0.0,0.0,0.0,0.0,0.0,3.5175,0.0,0.0,0.0,0.0,0.0,0.0,0.0,3.6301,0.0,3.4864,3.4769,3.3832,3.4026,3.53,3.5363,3.609,3.7385,3.7449,3.748,3.748,3.748,3.748,3.7539,3.7786,3.7801,3.7658,3.8164,3.8205,3.8001,3.8278,3.8544,3.8887,0.0,0.0,0.0,0.0,0.0,0.0,0.0,4.6562,4.6853,4.6726,4.6713,4.6912,4.7388,4.7066,4.681,4.6849,4.6457,4.6208,4.6253,4.6287,4.63,4.63,4.63,4.6144,4.5792,4.4883,4.4016,0.0,0.0,0.0,0.0,0.0,0.0,0.0,0.0,4.031,4.0344,4.0344,4.0289,4.0215,4.0177,4.0038,3.9762,3.9717,3.9661,3.9602,3.9602,3.9571,3.9495,3.9418,3.9346,3.9256,3.9156,3.9129,3.9073,3.9007,3.9064,3.9073,3.8979,3.9007,3.9036,3.9064,3.9036,3.9007,3.9073,3.9073,3.9073,3.9101,3.9073,3.9045,3.9017,3.895,3.891,0.0,0.0,0.0,0.0,0.0,0.0,0.0,0.0,0.0,0.0,0.0,0.0,0.0,0.0,0.0,0.0,0.0,0.0,3.6301,0.0,3.5299,3.5299,3.4675,3.4851,3.5828,3.5959,3.6532,3.748,3.748,3.748,3.748,3.748,3.7583,3.7743,3.7685,3.7801,3.8049,3.7876,3.786,3.7992,3.8573,3.8982,3.9292,4.5215,0.0,4.5566,0.0,4.622,4.6211,4.6169,4.6894,4.7545,4.7799,4.8054,4.8301,4.8574,4.8126,4.7722,4.7528,4.696,4.6527,4.6315,4.6303,4.63,4.63,4.6277,0.0,4.6273,4.5367,4.4604,4.3988,4.2595,0.0,0.0,0.0,0.0,0.0,4.031,4.031,4.031,4.031,4.0348,4.0439,4.0418,4.0271,4.0071,4.0024,3.9863,3.9596,3.9596,3.952,3.9469,3.9373,3.9275,3.9156,3.9129,3.9101,3.9101,3.9036,3.9045,3.9073,3.9007,3.9007,3.9036,3.9045,3.9036,3.9007,3.9073,3.9073,3.9073,3.9101,3.9073,3.9045,3.8894,3.8766,3.8646,3.8566,0.0,0.0,0.0,0.0,0.0,0.0,3.6921,3.6719,3.6544,0.0,0.0,0.0,0.0,0.0,0.0,0.0,0.0,0.0,0.0,0.0,0.0,3.5036,3.5214,3.5883,3.6245,3.6801,3.748,3.748,3.748,3.748,3.748,3.7642,3.7786,3.7583,3.7775,3.8107,3.7658,3.7828,3.827,3.8798,3.9296,3.9865,4.6113,4.6289,4.6289,4.6308,4.6308,4.6301,4.63,4.7049,4.7916,4.8779,4.9575,4.9687,4.8717,4.8716,4.844,4.7571,4.7556,4.7221,4.636,4.6309,4.63,0.0,0.0,4.6206,4.6206,4.5358,4.4834,4.4686,0.0,0.0,4.1667,0.0,4.031,4.031,4.031,4.031,4.031,4.031,4.0673,4.1276,4.1149,4.1033,4.0971,4.0829,4.029,3.9577,3.952,3.9469,3.9373,3.9256,3.9156,3.9101,3.9101,3.9101,3.9101,3.9101,3.9101,3.9073,3.9007,3.9064,3.9073,3.9007,3.8979,3.9007,3.9073,3.9064,3.9007,3.9073,3.9064,3.8873,3.8405,3.8245,3.8047,3.7596,0.0,0.0,0.0,0.0,0.0,0.0,3.6557,3.6343,3.6502,0.0,0.0,0.0,0.0,0.0,0.0,0.0,0.0,3.6301,3.5328,0.0,3.4816,3.4507,3.4652,3.5394,3.609,3.6801,3.748,3.748,3.748,3.748,3.748,3.748,3.748,3.748,3.748,3.7539,3.748,3.813,3.8974,3.9017,3.9569,4.0561,4.6241,4.6295,4.6297,4.6305,4.6793,4.7186,4.7186,4.8395,4.9397,4.9677,5.0461,5.0864,5.0546,5.0019,4.9355,0.0,4.794,4.7227,0.0,4.6303,4.63,4.63,4.624,4.6206,4.6206,4.5799,4.5269,4.4635,0.0,0.0,0.0,4.2145,4.2011,4.2011,4.2011,4.2011,4.2011,4.1912,4.1941,4.2041,4.1903,4.1782,4.1675,4.1623,4.1473,4.1248,4.117,4.1089,4.096,4.03,4.003,3.9881,3.9287,3.9101,3.9101,3.9101,3.9101,3.9101,3.9073,3.9073,3.9101,3.9073,3.9073,3.9073,3.9101,3.9073,3.9045,3.9036,3.9007,3.8844,3.8373,3.8245,3.808,3.7702,3.7323,0.0,0.0,0.0,0.0,0.0,3.6468,3.6402,0.0,3.6343,0.0,0.0,0.0,0.0,0.0,0.0,0.0,0.0,3.5661,0.0,3.6038,3.5668,3.5883,3.6605,3.6959,3.7259,3.748,3.748,3.748,3.748,3.748,3.748,3.748,3.748,3.748,3.7528,3.8002,3.8378,3.8756,3.9753,4.0417,4.0938,4.6293,4.6306,4.6401,4.6722,4.7232,4.7718,4.803,4.9221,5.0097,5.0106,5.0859,5.1401,5.1401,5.0898,0.0,4.8954,4.8349,4.7549,4.6347,4.6269,4.6264,4.6255,4.6209,4.6144,4.6084,4.5958,0.0,4.4949,4.4376,4.3676,4.2794,4.2794,4.2794,4.2794,4.2754,4.2733,4.2713,4.2588,4.2625,4.2772,4.2699,4.2592,4.2506,4.2506,4.2299,4.1991,4.1911,4.1829,4.1698,4.1129,4.0876,4.0698,3.9863,3.9584,3.951,3.9194,3.9101,3.9101,3.9101,3.9101,3.9101,3.9101,3.9101,3.9101,3.9101,3.8998,3.8884,3.8778,3.8658,3.8423,3.791,3.7825,3.7685,3.725,3.6921,3.6759,3.6741,0.0,0.0,0.0,0.0,0.0,0.0,3.6301,3.6301,0.0,0.0,0.0,0.0,0.0,0.0,3.6028,3.5571,0.0,3.6039,3.5922,3.6181,3.6886,3.7308,3.748,3.748,3.748,3.748,3.748,3.748,3.748,3.748,3.748,3.7638,3.7907,3.8349,3.8839,3.9408,4.0388,4.0992,4.1326,4.63,4.6293,4.6573,0.0,4.7643,0.0,4.8853,4.9673,5.018,5.02,5.0884,5.1388,5.1388,5.1342,5.0647,4.9025,0.0,0.0,0.0,4.6226,4.6189,4.6196,4.6111,4.6018,4.5894,4.588,4.5746,4.5476,4.4556,4.3711,4.2966,4.2966,4.2966,4.2946,4.2843,4.2759,4.2737,4.2625,4.2899,4.3479,4.3479,4.3439,4.3369,4.3369,4.2881,4.216,4.2025,4.1969,4.1941,4.176,4.1683,4.1534,4.0736,4.0476,4.029,3.9361,3.9101,3.9101,3.9101,3.9101,3.9101,3.9101,3.9073,3.9073,3.9073,3.8807,3.8517,3.8387,3.8129,3.772,3.7135,3.7132,3.6995,3.6426,3.6402,3.6444,3.6301,0.0,0.0,0.0,0.0,0.0,0.0,3.6301,3.6301,0.0,0.0,0.0,0.0,0.0,3.6114,3.5661,3.5195,3.5053,3.5289,3.5463,3.5862,3.65,3.7164,3.748,3.748,3.748,3.748,3.748,3.748,3.748,3.748,3.7528,3.7938,3.8523,3.8618,3.9455,4.0657,4.1007,4.1358,4.172,0.0,0.0,4.6573,4.7451,4.8118,4.8816,4.9673,5.0503,5.1025,5.1088,5.1239,5.1316,5.1316,5.1308,5.0879,4.9802,4.9107,4.8263,4.7196,4.6541,4.615,4.6046,4.5978,4.5883,4.5744,4.5661,4.5513,4.5339,4.5107,4.4895,4.4704,4.4704,4.4643,4.4557,4.4535,4.4467,4.435,4.4209,4.4266,4.4365,4.4277,4.4242,4.4233,4.4233,4.4102,4.3886,4.3764,4.3706,4.3583,4.2783,4.2519,4.237,4.1571,4.1311,4.1014,3.9547,3.9101,3.9101,3.9101,3.9101,3.9101,3.9101,3.8913,3.8718,3.8718,3.8473,3.8183,3.8047,3.7962,3.7738,3.7188,3.7091,3.6935,3.6385,3.6343,3.636,3.6301,3.6402,0.0,0.0,3.6402,3.6402,3.6301,3.6301,3.6301,0.0,0.0,0.0,0.0,3.6301,3.6259,3.6114,3.6203,3.6538,3.7149,3.6963,3.6958,3.7227,3.7401,3.748,3.748,3.748,3.748,3.748,3.748,3.748,3.7512,3.8049,3.8365,3.8618,3.9692,4.0309,4.0656,4.1292,4.1512,4.1588,4.63,4.63,4.669,4.7939,4.8504,4.9235,5.0499,5.1044,5.1308,5.1349,5.13,5.1248,5.1248,5.1249,5.1064,5.0588,4.9426,4.8331,4.747,4.6569,4.6192,4.6488,4.6054,4.5921,4.6147,4.574,4.5419,4.5297,4.5297,4.5297,4.5297,4.5254,4.517,4.5084,4.4967,4.487,4.4796,4.4659,4.4605,4.4605,4.4542,4.4515,4.4515,4.4515,4.4515,4.4487,4.4344,4.4285,4.421,4.3565,4.3355,4.3206,4.2389,4.2147,4.1887,4.0624,3.9974,3.9602,3.9212,3.8998,3.8836,3.8688,3.8504,3.8378,3.8378,3.8099,3.7809,3.7667,3.7505,3.7226,3.6913,3.6834,3.6713,3.6343,3.6343,3.6343,3.6301,3.6343,0.0,3.6301,3.6343,3.6402,3.6301,3.6301,3.6301,3.6301,3.6301,0.0,3.6301,3.6646,3.6732,3.6481,3.6375,3.6718,3.7551,3.7459,3.7419,3.748,3.748,3.748,3.748,3.748,3.748,3.748,3.748,3.7654,3.7986,3.8365,3.8886,3.955,4.0309,4.0783,4.1099,4.1462,4.1588,4.1588,4.6277,4.6273,4.678,4.8322,4.8708,4.9334,5.094,5.123,5.1284,5.1292,5.1249,5.119,5.119,5.1186,5.1159,5.1114,4.9692,4.8506,4.7797,4.6663,4.639,4.7163,4.6317,4.6065,4.6608,4.5841,4.538,4.5297,4.5297,4.5297,4.5275,4.5148,4.508,4.5014,4.4796,4.4685,4.4659,4.457,4.4515,4.4515,4.4515,4.4515,4.4515,4.4515,4.4487,4.4487,4.4344,4.4285,4.4255,4.4067,4.4005,4.3875,4.3206,4.2983,4.2816,4.1939,4.1215,4.0473,3.9472,3.887,3.8473,3.8168,3.8068,3.8,3.8,3.7685,3.7376,3.7319,3.697,3.6643,3.6544,3.6502,3.6461,3.6301,3.6402,3.6444,3.6301,0.0,3.6301,3.6301,3.6301,3.6301,3.6301,3.6301,3.6301,3.6301,3.6404,3.6473,3.6473,3.7172,3.7398,3.7039,3.6582,3.6701,3.7459,3.754,3.7583,3.748,3.748,3.748,3.748,3.748,3.7543,3.7638,3.7638,3.8017,3.8665,3.8776,3.9534,4.0609,4.0704,4.1099,4.1588,4.1588,4.1588,4.1588,4.6211,4.6215,4.6508,4.7444,4.8226,4.9047,5.0061,5.0792,5.1228,5.1211,5.1208,5.1183,5.112,5.1108,5.1023,5.08,4.9872,4.9301,4.9348,4.7619,4.6913,4.7643,4.6837,4.633,4.6187,4.5525,4.5213,4.5297,4.5297,4.5235,4.5125,4.5125,4.4967,4.4745,4.4738,4.4632,4.4542,4.4515,4.4515,4.4515,4.4515,4.4515,4.4515,4.4515,4.444,4.443,4.4344,4.4255,4.4184,4.4055,4.4005,4.3986,4.3856,4.3819,4.359,4.2433,4.2022,4.1581,4.0105,3.8953,3.8168,3.8101,3.7826,3.7578,3.7578,3.7226,3.693,3.6891,3.6788,3.6643,3.6544,3.6502,3.6461,3.6301,3.6301,3.6343,3.6301,0.0,3.6301,3.6301,3.6301,3.6301,3.6301,3.6301,3.6301,3.6301,3.6922,3.7301,3.7301,3.7587,3.7987,3.8548,3.8468,3.8352,3.8172,3.8189,3.7943,3.748,3.748,3.748,3.748,3.748,3.7796,3.8349,3.8349,3.8728,3.9392,4.0024,4.0403,4.0656,4.1209,4.1494,4.1588,4.1588,4.1588,4.1588,4.6203,4.6209,4.6449,4.7267,4.7735,4.8437,4.9748,5.0266,5.0658,5.1078,5.1152,5.1082,5.0898,5.0863,5.0781,5.051,4.9562,4.9233,4.9875,4.8199,4.7348,4.7681,4.679,4.6007,4.5464,4.5133,4.5014,4.5061,4.5061,4.5038,4.4991,4.4919,4.484,4.4712,4.4632,4.457,4.4515,4.4515,4.4515,4.4515,4.4515,4.4515,4.4515,4.4458,4.4411,4.4383,4.4285,4.4214,4.4184,4.4055,4.4005,4.3955,4.3744,4.366,4.352,4.2739,4.1921,4.1013,4.0057,3.9139,3.8348,3.8165,3.7658,3.7206,3.7129,3.6992,3.6908,3.6811,3.6766,3.6702,3.6602,3.6502,3.6343,3.6301,3.6301,0.0,0.0,3.6301,3.6301,3.6301,3.6301,3.6301,3.6301,3.6301,3.6473,3.6904,3.7284,3.7575,3.7638,3.8119,3.8419,3.8421,3.8513,3.8341,3.7886,3.7886,3.7727,3.748,3.7859,3.8033,3.8049,3.8397,3.8744,3.9044,3.9044,3.9439,4.0119,4.0467,4.0814,4.1162,4.1478,4.1588,4.1588,4.1588,4.1588,4.1588,4.6181,4.6154,4.6349,4.6972,4.725,4.7865,4.9362,4.9748,5.0169,5.0998,5.1102,5.0995,5.0713,5.0678,5.0548,5.0221,4.9371,4.9188,4.9898,4.8568,4.7751,4.7781,4.6639,4.5653,4.4865,4.4846,4.487,4.4895,4.4895,4.487,4.4846,4.4764,4.4685,4.4659,4.4542,4.4515,4.4515,4.4515,4.4515,4.4515,4.4515,4.4515,4.4487,4.444,4.4383,4.4354,4.4274,4.4184,4.4135,4.3942,4.386,4.3777,4.3406,4.3248,4.3177,4.2772,4.1733,4.0592,4.0203,3.9498,3.8773,3.8473,3.7812,3.7211,3.7091,3.6991,3.6908,3.6788,3.6725,3.6643,3.6643,3.6444,3.6301,3.6301,0.0,0.0,0.0,3.6301,3.6301,3.6301,3.6301,3.6301,3.6301,3.6473,3.6835,3.7439,3.7713,3.7872,3.8058,3.8505,3.8484,3.792,3.817,3.8026,3.7539,3.748,3.7559,3.7733,3.8254,3.8602,3.876,3.9281,3.9598,3.9756,3.9756,4.0166,4.083,4.083,4.113,4.1588,4.1588,4.1588,4.1588,4.1588,4.1588,4.1588,4.6102,4.6066,4.6037,4.6095,4.6765,4.7598,4.8468,4.929,5.0112,5.0984,5.1101,5.0971,5.0641,5.0605,5.041,4.9891,4.9754,4.9655,4.9563,4.8668,4.82,4.8343,4.6657,4.5406,4.4731,4.4693,4.4789,4.4895,4.4895,4.4821,4.4693,4.4693,4.4632,4.4496,4.4496,4.4515,4.4515,4.4515,4.4515,4.4515,4.4515,4.4515,4.4515,4.4487,4.443,4.4314,4.4285,4.4177,4.3974,4.3594,4.344,4.3371,4.2996,4.2829,4.2772,4.2342,4.1895,4.1427,4.11,4.0152,3.9258,3.9217,3.8555,3.7936,3.7895,3.7271,3.6742,3.6702,3.6602,3.6502,3.6502,3.6402,3.6301,3.6301,0.0,0.0,3.6301,3.6301,3.6301,3.6301,3.6301,3.6301,3.6301,3.6956,3.7422,3.7491,3.8291,3.8785,3.8836,3.8517,3.8117,3.7562,3.7994,3.8026,3.7539,3.748,3.7796,3.8444,3.8491,3.8839,3.9424,3.9471,3.9866,4.0514,4.0514,4.0893,4.1525,4.1525,4.1541,4.1588,4.1588,4.1588,4.1588,4.1588,4.1588,4.1588,4.6027,4.6017,4.5997,4.5997,4.6277,4.6954,4.8301,4.878,4.9491,5.086,5.0906,5.068,5.0387,5.0191,4.9968,4.9625,4.9106,4.8794,4.8683,4.7913,4.7248,4.676,4.5594,4.4843,4.4597,4.4597,4.4605,4.4659,4.4659,4.4632,4.4597,4.4597,4.4551,4.4515,4.4515,4.4515,4.4515,4.4515,4.4515,4.4515,4.4515,4.4515,4.4487,4.4401,4.4188,4.3905,4.3809,4.3542,4.3212,4.3069,4.3032,4.2959,4.2541,4.2422,4.236,4.1941,4.1719,4.1578,4.1435,4.069,3.9956,4.0024,3.9343,3.8681,3.8681,3.8111,3.7528,3.7404,3.6974,3.6602,3.6502,3.6402,3.6301,3.6301,0.0,3.6301,3.6301,3.6301,3.6301,3.6301,3.6732,3.7025,3.7025,3.7432,3.7899,3.8342,3.8337,3.8382,3.8496,3.8068,3.7743,3.7539,3.7685,3.7685,3.748,3.7907,3.8254,3.8523,3.9392,3.9945,4.0198,4.0609,4.0956,4.1209,4.1209,4.1351,4.1588,4.1588,4.1588,4.1588,4.1588,4.1588,4.1588,4.1588,4.1588,4.1588,4.6005,4.6005,4.5986,4.5975,4.5972,4.6445,4.7876,4.8309,4.8856,4.9943,5.0156,4.997,4.9372,4.9157,4.8956,4.8732,4.8176,4.7819,4.7819,4.7049,4.6317,4.5735,4.4928,4.4515,4.4515,4.4515,4.4515,4.4515,4.4411,4.4411,4.4515,4.4411,4.4411,4.4515,4.4515,4.4515,4.4515,4.4515,4.4515,4.4515,4.4515,4.4487,4.4458,4.4373,4.4048,4.3642,4.349,4.3159,4.2772,4.2639,4.2619,4.2541,4.2133,4.2008,4.1941,4.1675,4.1604,4.1604,4.1604,4.113,4.0701,4.0788,4.0149,3.9485,3.9425,3.8874,3.8244,3.7833,3.7339,3.688,3.6554,3.6402,3.6301,3.6301,3.6301,3.6301,3.6301,3.6525,3.668,3.668,3.7353,3.7774,3.7597,3.7942,3.8282,3.8622,3.8278,3.8106,3.8067,3.7685,3.748,3.748,3.7686,3.7796,3.7796,3.827,3.8728,3.9187,4.0151,4.0704,4.0925,4.1383,4.1588,4.1588,4.1588,4.1588,4.1588,4.1588,4.1588,4.1588,4.1588,4.1588,4.1588,4.1588,4.1588,4.1588,4.6003,4.5991,4.5991,4.5917,4.5905,4.6183,4.7068,4.7887,4.8319,4.8123,4.8797,4.8814,4.753,4.7403,4.7292,4.7022,4.6993,4.6993,4.6993,4.6167,4.5697,4.5697,4.4928,4.4515,4.4515,4.4515,4.4515,4.4515,4.4229,4.4248,4.4487,4.4229,4.4248,4.4515,4.4515,4.4515,4.4515,4.4515,4.4515,4.4515,4.4515,4.4458,4.4383,4.4383,4.4011,4.3487,4.3505,4.3176,4.2734,4.232,4.2216,4.2133,4.1719,4.1604,4.1604,4.1604,4.1604,4.1604,4.1604,4.1515,4.1426,4.156,4.0955,4.0263,4.014,3.9565,3.8755,3.7784,3.7629,3.7403,3.6658,3.6419,3.6318,3.6318,3.6318,3.6318,3.6318,3.6991,3.7491,3.7491,3.8146,3.8397,3.7838,3.8449,3.8656,3.8027,3.8204,3.8026,3.7539,3.748,3.748,3.748,3.8144,3.8507,3.8523,3.8523,3.9234,4.0609,4.0609,4.0956,4.1588,4.1588,4.1588,4.1588,4.1588,4.1588,4.1588,4.1588,4.1588,4.1588,4.1588,4.1588,4.1588,4.1588,4.1588,4.1588,4.5929,4.5929,4.5917,4.5886,4.5893,4.6177,4.7074,4.7229,4.7482,4.8028,4.802,4.7805,4.7448,4.7238,4.7109,4.7012,4.6448,4.5848,4.5284,4.5003,4.4871,4.4871,4.4646,4.4515,4.4515,4.4515,4.4515,4.4515,4.4229,4.414,4.4199,4.3936,4.3968,4.4229,4.4229,4.4335,4.4515,4.4515,4.4515,4.4515,4.444,4.4411,4.4335,4.3931,4.3487,4.305,4.2698,4.2302,4.1941,4.1831,4.1788,4.1744,4.1648,4.1604,4.1604,4.1604,4.1604,4.1604,4.1604,4.156,4.1515,4.1471,4.1188,4.0924,4.0878,4.0304,3.9668,3.9274,3.8807,3.833,3.8044,3.7948,3.7905,3.7905,3.7905,3.7905,3.7905,3.8112,3.8249,3.8249,3.8584,3.8744,3.8599,3.8515,3.8395,3.8231,3.793,3.7685,3.7539,3.748,3.748,3.748,3.8144,3.8744,3.9202,3.9708,4.0182,4.0609,4.1067,4.1399,4.1588,4.1588,4.1588,4.1588,4.1588,4.1588,4.1588,4.1588,4.1588,4.1588,4.1588,4.1588,4.1588,4.1588,4.1588,4.1588,4.5893,4.5893,4.588,4.5867,4.5854,4.6035,4.6577,4.6722,4.6837,4.6935,4.6927,4.6708,4.6301,4.6111,4.6017,4.6017,4.5528,4.5021,4.4533,4.4515,4.4515,4.4515,4.4411,4.4335,4.4335,4.4335,4.4277,4.417,4.3905,4.3841,4.3936,4.3679,4.3679,4.3936,4.3936,4.4109,4.4335,4.4335,4.4306,4.4229,4.4181,4.4011,4.3754,4.3385,4.2978,4.2582,4.2302,4.1941,4.1604,4.1604,4.1604,4.1604,4.1604,4.1604,4.1604,4.1604,4.1604,4.1604,4.1515,4.1515,4.1471,4.1307,4.129,4.1272,4.1198,4.0804,4.036,3.9922,3.9461,3.9047,3.8646,3.8594,3.8594,3.8594,3.8594,3.8594,3.8594,3.8836,3.8935,3.8733,3.9098,3.9143,3.8718,3.8461,3.8238,3.7985,3.7685,3.748,3.748,3.748,3.7607,3.7875,3.8555,3.9234,3.9929,4.064,4.1004,4.1004,4.1399,4.1588,4.1588,4.1588,4.1588,4.1588,4.1588,4.1588,4.1588,4.1588,4.1588,4.1588,4.1588,4.1588,4.1588,4.1588,4.1588,4.1588,4.5887,4.5893,4.586,4.5814,4.58,4.578,4.5786,4.6285,4.6302,4.5297,4.5646,4.5564,4.4617,4.4515,4.4515,4.4515,4.4515,4.4515,4.4515,4.4515,4.4487,4.4487,4.4229,4.406,4.403,4.406,4.3936,4.3712,4.3442,4.3408,4.3646,4.3408,4.3408,4.3646,4.3646,4.3809,4.403,4.403,4.3918,4.3754,4.3703,4.3385,4.2905,4.2868,4.2582,4.2216,4.2175,4.1899,4.1604,4.1604,4.1604,4.1604,4.1604,4.1604,4.1604,4.1604,4.1604,4.156,4.1426,4.1426,4.138,4.1186,4.1261,4.1335,4.114,4.1093,4.0839,4.0003,3.9802,3.9595,3.8922,3.8801,3.8801,3.8801,3.8801,3.8801,3.8739,3.9325,3.9551,3.8973,3.9497,3.9473,3.839,3.8238,3.8042,3.7539,3.748,3.748,3.748,3.748,3.7796,3.8491,3.9155,3.985,4.0593,4.1257,4.1588,4.1588,4.1588,4.1588,4.1588,4.1588,4.1588,4.1588,4.1588,4.1588,4.1588,4.1588,4.1588,4.1588,4.1588,4.1588,4.1588,4.1588,4.1588,4.1588,4.5814,4.5814,4.5814,4.58,4.58,4.5752,4.5594,4.5553,4.5392,4.4938,4.4858,4.4766,4.4533,4.4515,4.4515,4.4515,4.4515,4.4515,4.4515,4.4515,4.4411,4.4199,4.414,4.3905,4.3477,4.3679,4.3744,4.3712,4.3442,4.3338,4.3373,4.3087,4.3124,4.3373,4.3373,4.3458,4.3542,4.3542,4.3422,4.3265,4.314,4.3014,4.2868,4.2483,4.2279,4.2175,4.1831,4.1675,4.1604,4.1604,4.1604,4.1604,4.1604,4.1604,4.1604,4.1604,4.1604,4.156,4.1426,4.1471,4.1515,4.1226,4.1209,4.118,4.0982,4.0935,4.0884,4.0664,4.0629,4.0578,4.0422,4.0388,4.0388,4.0388,4.0388,4.0229,3.9776,3.9814,3.9716,3.922,3.8859,3.8557,3.8334,3.7943,3.7642,3.7539,3.748,3.748,3.748,3.748,3.7796,3.8491,3.9155,3.985,4.0593,4.1257,4.1588,4.1588,4.1588,4.1588,4.1588,4.1588,4.1588,4.1588,4.1588,4.1588,4.1588,4.1588,4.1588,4.1588,4.1588,4.1588,4.1588,4.1588,4.1588,4.1588,4.58,4.58,4.58,4.58,4.58,4.5737,4.5524,4.5304,4.5052,4.4776,4.4541,4.443,4.4458,4.444,4.4487,4.4515,4.4515,4.4515,4.4515,4.4515,4.4383,4.4091,4.3968,4.3712,4.3303,4.3303,4.3303,4.3303,4.316,4.3087,4.3105,4.2957,4.2957,4.3087,4.3032,4.305,4.3195,4.3123,4.2922,4.2698,4.2641,4.2465,4.2244,4.2008,4.1899,4.1899,4.1675,4.1604,4.1604,4.1604,4.1604,4.1604,4.1604,4.1604,4.1604,4.1604,4.156,4.1471,4.1426,4.1408,4.1363,4.1198,4.1152,4.1105,4.1029,4.0935,4.0888,4.0888,4.0888,4.0888,4.0888,4.0888,4.0823,4.05,4.05,4.0286,3.9714,3.961,3.9385,3.8849,3.8518,3.8181,3.7927,3.7685,3.748,3.748,3.748,3.748,3.748,3.7796,3.8286,3.8965,3.9661,4.0356,4.1067,4.1415,4.1588,4.1588,4.1588,4.1588,4.1588,4.1588,4.1588,4.1588,4.1588,4.1588,4.1588,4.1588,4.1588,4.1588,4.1588,4.1588,4.1588,4.1588,4.1588,4.1588,4.58,4.58,4.58,4.58,4.5766,4.5673,4.5472,4.5204,4.4938,4.4669,4.4477,4.4344,4.4383,4.4411,4.444,4.4487,4.4487,4.444,4.4411,4.4411,4.4277,4.3968,4.3744,4.3511,4.3232,4.3032,4.2882,4.2882,4.2882,4.2882,4.2882,4.2882,4.2882,4.2862,4.267,4.2691,4.279,4.2616,4.24,4.2203,4.2203,4.1966,4.1604,4.1604,4.1604,4.1604,4.1604,4.1604,4.1604,4.1604,4.1604,4.1604,4.1604,4.1604,4.156,4.1604,4.1515,4.138,4.138,4.1255,4.1163,4.114,4.1093,4.1093,4.1093,4.1,4.0888,4.0888,4.0888,4.0871,4.0776,4.0776,4.0549,3.9969,3.9851,3.9645,3.9135,3.9028,3.881,3.8238,3.8181,3.7985,3.7524,3.748,3.748,3.748,3.748,3.748,3.748,3.8144,3.8823,3.9487,4.0214,4.0925,4.1588,4.1588,4.1588,4.1588,4.1588,4.1588,4.1588,4.1588,4.1588,4.1588,4.1588,4.1588,4.1588,4.1588,4.1588,4.1588,4.1588,4.1588,4.1588,4.1588,4.1588,4.1588,4.58,4.58,4.58,4.58,4.5658,4.5472,4.5264,4.4966,4.4669,4.4477,4.4411,4.4383,4.4383,4.444,4.4487,4.4411,4.4411,4.4325,4.4097,4.4067,4.386,4.3442,4.3373,4.3232,4.2957,4.292,4.2882,4.2882,4.2882,4.2882,4.2882,4.2882,4.2824,4.2649,4.2609,4.2374,4.2044,4.2044,4.1874,4.1701,4.1701,4.1675,4.1604,4.1604,4.1604,4.1604,4.1604,4.1604,4.1604,4.1604,4.1604,4.1604,4.1604,4.1515,4.1471,4.156,4.1408,4.1209,4.1209,4.1209,4.1163,4.114,4.1093,4.1093,4.1093,4.1,4.0888,4.0888,4.0888,4.071,4.022,4.0103,3.9952,3.9401,3.9295,3.9082,3.8518,3.839,3.8197,3.7685,3.7642,3.7583,3.7539,3.748,3.748,3.748,3.748,3.748,3.748,3.8144,3.8823,3.9487,4.0214,4.0925,4.1588,4.1588,4.1588,4.1588,4.1588,4.1588,4.1588,4.1588,4.1588,4.1588,4.1588,4.1588,4.1588,4.1588,4.1588,4.1588,4.1588,4.1588,4.1588,4.1588,4.1588,4.1588,4.5742,4.5771,4.5737,4.5539,4.547,4.5323,4.4919,4.4701,4.453,4.4296,4.4285,4.4314,4.4344,4.4383,4.443,4.4344,4.4383,4.4296,4.4005,4.4036,4.3841,4.3338,4.3303,4.316,4.292,4.2882,4.2882,4.2882,4.2882,4.2882,4.29,4.2786,4.267,4.2609,4.231,4.2086,4.1874,4.1762,4.1675,4.1604,4.1604,4.1604,4.1604,4.1604,4.1604,4.1604,4.1604,4.1604,4.1604,4.1604,4.156,4.1515,4.156,4.1515,4.1426,4.156,4.1408,4.1209,4.1318,4.1226,4.1123,4.1093,4.1093,4.1093,4.1,4.0935,4.0888,4.0888,4.0614,4.0336,4.0053,3.9749,3.9401,3.8794,3.8684,3.8518,3.7943,3.7828,3.7786,3.7539,3.748,3.748,3.748,3.748,3.748,3.748,3.748,3.748,3.748,3.8491,3.9202,3.9487,4.0577,4.1288,4.1588,4.1588,4.1588,4.1588,4.1588,4.1588,4.1588,4.1588,4.1588,4.1588,4.1588,4.1588,4.1588,4.1588,4.1588,4.1588,4.1588,4.1588,4.1588,4.1588,4.1588,4.1588]},{"header":{"parameterUnit":"m.s-1","parameterCategory":1,"la1":30.6,"la2":28.766,"lo1":-90.7593,"lo2":-88.6598,"dy":0.0162,"dx":0.0183,"nx":116,"ny":114,"refTime":"2023-05-22T00:00:00:Z","depth":0,"parameterNumber":3,"parameterNumberName":"V-component_of_WINDS"},"data":[0.0,0.0,0.0,0.0,0.0,0.0,0.0,0.0,0.0,0.0,0.0,0.0,0.0,0.0,0.0,0.0,0.0,0.0,0.0,0.0,0.0,0.0,0.0,0.0,0.0,0.0,0.0,0.0,0.0,0.0,0.0,0.0,0.0,0.0,0.0,0.0,0.0,0.0,0.0,0.0,0.0,0.0,0.0,0.0,0.0,0.0,0.0,0.0,0.0,0.0,0.0,0.0,0.0,0.0,0.0,0.0,0.0,0.0,0.0,0.0,0.0,0.0,0.0,0.0,0.0,0.0,0.0,0.0,0.0,0.0,0.0,0.0,0.0,0.0,0.0,0.0,0.0,0.0,0.0,0.0,0.0,0.0,0.0,0.0,0.0,0.0,0.0,0.0,0.0,0.0,0.0,0.0,0.0,0.0,0.0,0.0,0.0,0.0,0.0,0.0,0.0,0.0,0.0,0.0,0.0,0.0,0.0,0.0,0.0,0.0,0.0,0.0,0.0,0.0,0.0,0.0,0.0,0.0,0.0,0.0,0.0,0.0,0.0,0.0,0.0,0.0,0.0,0.0,0.0,0.0,0.0,0.0,0.0,0.0,0.0,0.0,0.0,0.0,0.0,0.0,0.0,0.0,0.0,0.0,0.0,0.0,0.0,0.0,0.0,0.0,0.0,0.0,0.0,0.0,0.0,0.0,0.0,0.0,0.0,0.0,0.0,0.0,0.0,0.0,0.0,0.0,0.0,0.0,0.0,0.0,0.0,0.0,0.0,0.0,0.0,0.0,0.0,0.0,0.0,0.0,0.0,0.0,0.0,0.0,0.0,0.0,0.0,0.0,0.0,0.0,0.0,0.0,0.0,0.0,0.0,0.0,0.0,0.0,0.0,0.0,0.0,0.0,0.0,0.0,0.0,0.0,0.0,0.0,0.0,0.0,0.0,0.0,0.0,0.0,0.0,0.0,0.0,0.0,0.0,0.0,0.0,0.0,0.0,0.0,0.0,0.0,0.0,0.0,0.0,0.0,0.0,0.0,0.0,0.0,0.0,0.0,0.0,0.0,0.0,0.0,0.0,0.0,0.0,0.0,0.0,0.0,0.0,0.0,0.0,0.0,0.0,0.0,0.0,0.0,0.0,0.0,0.0,0.0,0.0,0.0,0.0,0.0,0.0,0.0,0.0,0.0,0.0,0.0,0.0,0.0,0.0,0.0,0.0,0.0,0.0,0.0,0.0,0.0,0.0,0.0,0.0,0.0,0.0,0.0,0.0,0.0,0.0,0.0,0.0,0.0,0.0,0.0,0.0,0.0,0.0,0.0,0.0,0.0,0.0,0.0,0.0,0.0,0.0,0.0,0.0,0.0,0.0,0.0,0.0,0.0,0.0,0.0,0.0,0.0,0.0,0.0,0.0,0.0,0.0,0.0,0.0,0.0,0.0,0.0,0.0,0.0,0.0,0.0,0.0,0.0,0.0,0.0,0.0,0.0,0.0,0.0,0.0,0.0,0.0,0.0,0.0,0.0,0.0,0.0,0.0,0.0,0.0,0.0,0.0,0.0,0.0,0.0,0.0,0.0,0.0,0.0,0.0,0.0,0.0,0.0,0.0,0.0,0.0,0.0,0.0,0.0,0.0,0.0,0.0,0.0,0.0,0.0,0.0,0.0,0.0,0.0,0.0,0.0,0.0,0.0,0.0,0.0,0.0,0.0,0.0,0.0,0.0,0.0,0.0,0.0,0.0,0.0,0.0,0.0,0.0,0.0,0.0,0.0,0.0,0.0,0.0,0.0,0.0,0.0,0.0,0.0,0.0,0.0,0.0,0.0,0.0,0.0,0.0,0.0,0.0,0.0,0.0,0.0,0.0,0.0,0.0,0.0,0.0,0.0,0.0,0.0,0.0,0.0,0.0,0.0,0.0,0.0,0.0,0.0,0.0,0.0,0.0,0.0,0.0,0.0,0.0,0.0,0.0,0.0,0.0,0.0,0.0,0.0,0.0,0.0,0.0,0.0,0.0,0.0,0.0,0.0,0.0,0.0,0.0,0.0,0.0,0.0,0.0,0.0,0.0,0.0,0.0,0.0,0.0,0.0,0.0,0.0,0.0,0.0,0.0,0.0,0.0,0.0,0.0,0.0,0.0,0.0,0.0,0.0,0.0,0.0,0.0,0.0,0.0,0.0,0.0,0.0,0.0,0.0,0.0,0.0,0.0,0.0,0.0,0.0,0.0,0.0,0.0,0.0,0.0,0.0,0.0,0.0,0.0,0.0,0.0,0.0,0.0,0.0,0.0,0.0,0.0,0.0,0.0,0.0,0.0,0.0,0.0,0.0,0.0,0.0,0.0,0.0,0.0,0.0,0.0,0.0,0.0,0.0,0.0,0.0,0.0,0.0,0.0,0.0,0.0,0.0,0.0,0.0,0.0,0.0,0.0,0.0,0.0,0.0,0.0,0.0,0.0,0.0,0.0,0.0,0.0,0.0,0.0,0.0,0.0,0.0,0.0,0.0,0.0,0.0,0.0,0.0,0.0,0.0,0.0,0.0,0.0,0.0,0.0,0.0,0.0,0.0,0.0,0.0,0.0,0.0,0.0,0.0,0.0,0.0,0.0,0.0,0.0,0.0,0.0,0.0,0.0,0.0,0.0,0.0,0.0,0.0,0.0,0.0,0.0,0.0,0.0,0.0,0.0,0.0,0.0,0.0,0.0,0.0,0.0,0.0,0.0,0.0,0.0,0.0,0.0,0.0,0.0,0.0,0.0,0.0,0.0,0.0,0.0,0.0,0.0,0.0,0.0,0.0,0.0,0.0,0.0,0.0,0.0,0.0,0.0,0.0,0.0,0.0,0.0,0.0,0.0,0.0,0.0,0.0,0.0,0.0,0.0,0.0,0.0,0.0,0.0,0.0,0.0,0.0,0.0,0.0,0.0,0.0,0.0,0.0,0.0,0.0,0.0,0.0,0.0,0.0,0.0,0.0,0.0,0.0,0.0,0.0,0.0,0.0,0.0,0.0,0.0,0.0,0.0,0.0,0.0,0.0,0.0,0.0,0.0,0.0,0.0,0.0,0.0,0.0,0.0,0.0,0.0,0.0,0.0,0.0,0.0,0.0,0.0,0.0,0.0,0.0,0.0,0.0,0.0,0.0,0.0,0.0,0.0,0.0,0.0,0.0,0.0,0.0,0.0,0.0,0.0,0.0,0.0,0.0,0.0,0.0,0.0,0.0,0.0,0.0,0.0,0.0,0.0,0.0,0.0,0.0,0.0,0.0,0.0,0.0,0.0,0.0,0.0,0.0,0.0,0.0,0.0,0.0,0.0,0.0,0.0,0.0,0.0,0.0,0.0,0.0,0.0,0.0,0.0,0.0,0.0,0.0,0.0,0.0,0.0,0.0,0.0,0.0,0.0,0.0,0.0,0.0,0.0,0.0,0.0,0.0,0.0,0.0,0.0,0.0,0.0,0.0,0.0,0.0,0.0,0.0,0.0,0.0,0.0,0.0,0.0,0.0,0.0,0.0,0.0,0.0,0.0,0.0,0.0,0.0,0.0,0.0,0.0,0.0,0.0,0.0,0.0,0.0,0.0,0.0,0.0,0.0,0.0,0.0,0.0,0.0,0.0,0.0,0.0,0.0,0.0,0.0,0.0,0.0,0.0,0.0,0.0,0.0,0.0,0.0,0.0,0.0,0.0,0.0,0.0,0.0,0.0,0.0,0.0,0.0,0.0,0.0,0.0,0.0,0.0,0.0,0.0,0.0,0.0,0.0,0.0,0.0,0.0,0.0,0.0,0.0,0.0,0.0,0.0,0.0,0.0,0.0,0.0,0.0,0.0,0.0,0.0,0.0,0.0,0.0,0.0,0.0,0.0,0.0,0.0,0.0,0.0,0.0,0.0,0.0,0.0,0.0,0.0,0.0,0.0,0.0,0.0,0.0,0.0,0.0,0.0,0.0,0.0,0.0,0.0,0.0,0.0,0.0,0.0,0.0,0.0,0.0,0.0,0.0,0.0,0.0,0.0,0.0,0.0,0.0,0.0,0.0,0.0,0.0,0.0,0.0,0.0,0.0,0.0,0.0,0.0,0.0,0.0,0.0,0.0,0.0,0.0,0.0,0.0,0.0,0.0,0.0,0.0,0.0,0.0,0.0,0.0,0.0,0.0,0.0,0.0,0.0,0.0,0.0,0.0,0.0,0.0,0.0,0.0,0.0,0.0,0.0,0.0,0.0,0.0,0.0,0.0,0.0,0.0,0.0,0.0,0.0,0.0,0.0,0.0,0.0,0.0,0.0,0.0,0.0,0.0,0.0,0.0,0.0,0.0,0.0,0.0,0.0,0.0,0.0,0.0,0.0,0.0,0.0,0.0,0.0,0.0,0.0,0.0,0.0,0.0,0.0,0.0,0.0,0.0,0.0,0.0,0.0,0.0,0.0,0.0,0.0,0.0,0.0,0.0,0.0,0.0,0.0,0.0,0.0,0.0,0.0,0.0,0.0,0.0,0.0,0.0,0.0,0.0,0.0,0.0,0.0,0.0,0.0,0.0,0.0,0.0,0.0,0.0,0.0,0.0,0.0,0.0,0.0,0.0,0.0,0.0,0.0,0.0,0.0,0.0,0.0,0.0,0.0,0.0,0.0,0.0,0.0,0.0,0.0,0.0,0.0,0.0,0.0,0.0,0.0,0.0,0.0,0.0,0.0,0.0,0.0,0.0,0.0,0.0,0.0,0.0,0.0,0.0,0.0,0.0,0.0,0.0,0.0,0.0,0.0,0.0,0.0,0.0,0.0,0.0,0.0,0.0,0.0,0.0,0.0,0.0,0.0,0.0,0.0,0.0,0.0,0.0,0.0,0.0,0.0,0.0,0.0,0.0,0.0,0.0,0.0,0.0,0.0,0.0,0.0,0.0,0.0,0.0,0.0,0.0,0.0,0.0,0.0,0.0,0.0,0.0,0.0,0.0,0.0,0.0,0.0,0.0,0.0,0.0,0.0,0.0,0.0,0.0,0.0,0.0,0.0,0.0,0.0,0.0,0.0,0.0,0.0,0.0,0.0,0.0,0.0,0.0,0.0,0.0,0.0,0.0,0.0,0.0,0.0,0.0,0.0,0.0,0.0,0.0,0.0,0.0,0.0,0.0,0.0,0.0,0.0,0.0,0.0,0.0,0.0,0.0,0.0,0.0,0.0,0.0,0.0,0.0,0.0,0.0,0.0,0.0,0.0,0.0,0.0,0.0,0.0,0.0,0.0,0.0,0.0,0.0,0.0,0.0,0.0,0.0,0.0,0.0,0.0,0.0,0.0,0.0,0.0,0.0,0.0,0.0,0.0,0.0,0.0,0.0,0.0,0.0,0.0,0.0,0.0,0.0,0.0,0.0,0.0,0.0,0.0,0.0,0.0,0.0,0.0,0.0,0.0,0.0,0.0,0.0,0.0,0.0,0.0,0.0,0.0,0.0,0.0,0.0,0.0,0.0,0.0,0.0,0.0,0.0,0.0,0.0,0.0,0.0,0.0,0.0,0.0,0.0,0.0,0.0,0.0,0.0,0.0,0.0,0.0,0.0,0.0,0.0,0.0,0.0,0.0,0.0,0.0,0.0,0.0,0.0,0.0,0.0,0.0,0.0,0.0,0.0,0.0,0.0,0.0,0.0,0.0,0.0,0.0,0.0,0.0,0.0,0.0,0.0,0.0,0.0,0.0,0.0,0.0,0.0,0.0,0.0,0.0,0.0,0.0,0.0,0.0,0.0,0.0,0.0,0.0,0.0,0.0,0.0,0.0,0.0,0.0,0.0,0.0,0.0,0.0,0.0,0.0,0.0,0.0,0.0,0.0,0.0,0.0,0.0,0.0,0.0,0.0,0.0,0.0,0.0,0.0,0.0,0.0,0.0,0.0,0.0,0.0,0.0,0.0,0.0,0.0,0.0,0.0,0.0,0.0,0.0,0.0,0.0,0.0,0.0,0.0,0.0,0.0,0.0,0.0,0.0,0.0,0.0,0.0,0.0,0.0,0.0,0.0,0.0,0.0,0.0,0.0,0.0,0.0,0.0,0.0,0.0,0.0,0.0,0.0,0.0,0.0,0.0,0.0,0.0,0.0,0.0,0.0,0.0,0.0,0.0,0.0,0.8912,0.0,0.0,0.0,0.0,0.0,0.0,0.0,0.0,0.0,0.0,0.0,0.0,0.0,0.0,0.0,0.0,0.0,0.0,0.0,0.0,0.0,0.0,0.0,0.0,0.0,0.0,0.0,0.0,0.0,0.0,0.0,0.0,0.0,0.0,0.0,0.0,0.0,0.0,0.0,1.0624,1.08,1.1288,1.1288,1.1226,1.117,0.0,0.0,0.0,0.0,0.0,0.0,0.0,0.0,0.0,0.0,0.0,0.0,0.0,0.0,0.0,0.0,0.0,0.0,0.0,0.0,0.0,0.0,0.0,0.0,0.0,0.0,0.0,0.0,0.0,0.0,0.0,0.0,0.0,0.0,0.0,0.0,0.0,0.0,0.0,0.0,0.0,0.0,0.0,0.0,0.0,0.0,0.0,0.0,0.0,0.0,0.0,0.0,0.0,0.0,0.0,0.0,0.0,0.0,0.0,0.0,0.0,0.0,0.0,0.0,0.0,0.0,0.0,0.0,0.0,0.0,0.0,0.9936,0.0,0.0,0.0,0.0,0.0,0.0,0.0,0.0,0.0,0.0,0.0,0.0,0.0,0.0,0.0,0.0,0.0,0.0,0.0,0.0,0.0,0.0,0.0,0.5345,0.5414,0.5587,0.5715,0.6078,0.0,0.0,0.0,0.0,0.0,0.0,0.0,1.0561,1.0624,1.0744,1.0933,1.1351,1.2143,1.2205,1.2197,1.2135,1.1476,0.0,0.0,0.0,0.0,0.0,0.0,0.0,0.0,0.0,0.0,0.0,0.0,0.0,0.0,0.0,0.0,0.0,0.0,0.0,0.0,0.0,0.0,0.0,0.0,0.0,0.0,0.0,0.0,0.0,0.0,0.0,0.0,0.0,0.0,0.0,0.0,0.0,0.0,0.0,0.0,0.0,0.0,0.0,0.0,0.0,0.0,0.0,0.0,0.0,0.0,0.0,0.0,0.0,0.0,0.0,0.0,0.0,0.0,0.0,0.0,0.0,0.0,0.0,0.7432,0.7952,0.9021,0.9498,1.0093,1.0716,1.1005,1.0873,1.0286,0.0,0.0,0.0,0.0,0.0,0.0,0.0,0.0,0.0,0.0,0.0,0.0,0.0,0.0,0.0,0.0,0.0,0.0,0.0,0.0,0.0,0.0,0.5575,0.5591,0.5708,0.6194,0.6694,0.6963,0.0,0.0,0.0,0.0,0.0,1.0561,1.0434,1.0674,1.1358,1.2158,1.2826,1.3442,1.3199,1.3312,1.3666,1.3,1.2704,1.2642,0.0,0.0,0.0,0.0,0.0,0.0,0.0,0.0,0.0,0.0,0.0,0.0,0.0,0.0,0.0,0.0,0.0,0.0,0.0,0.0,0.0,0.0,0.0,0.0,0.0,0.0,0.0,0.0,0.0,0.0,0.0,0.0,0.0,0.0,0.0,0.0,0.0,0.0,0.0,0.0,0.0,0.5888,0.5888,0.0,0.0,0.0,0.0,0.0,0.0,0.0,0.0,0.0,0.0,0.0,0.0,0.0,0.6997,0.766,0.7323,0.7484,0.809,0.8567,0.9266,1.011,1.1343,1.2317,1.3088,1.3024,0.0,1.1499,1.1492,0.0,0.0,0.0,0.0,0.0,0.0,0.0,0.0,0.0,0.0,0.0,0.0,0.0,0.0,0.0,0.0,0.0,0.0,0.0,0.0,0.0,0.6117,0.6369,0.6559,0.7181,0.7644,0.781,0.7761,0.0,0.0,0.0,0.9396,1.0561,1.087,1.1351,1.2089,1.2581,1.3191,1.3855,1.3855,1.4154,1.4746,1.451,1.3855,1.3009,1.2634,0.0,0.0,0.0,0.0,0.0,0.0,0.0,0.0,0.0,0.0,0.0,0.0,0.0,0.0,0.0,0.0,0.0,0.0,0.0,0.0,0.0,0.0,0.0,0.0,0.0,0.0,0.0,0.0,0.0,0.0,0.0,0.0,0.0,0.0,0.0,0.0,0.0,0.0,0.0,0.6017,0.6121,0.615,0.6098,0.6067,0.0,0.0,0.0,0.0,0.0,0.0,0.0,0.0,0.0,0.7554,0.7656,0.7973,0.8584,0.8476,0.8575,0.8895,0.9528,1.029,1.1084,1.2074,1.2936,1.3731,1.3684,1.3473,1.3051,1.2381,1.2172,1.2151,0.0,0.0,0.0,0.0,1.156,1.1423,0.0,0.0,0.0,0.0,0.0,0.0,0.0,0.0,0.0,0.0,0.0,0.0,0.6168,0.6675,0.7115,0.7511,0.7965,0.8359,0.8479,0.8037,0.8296,0.9454,0.9005,0.9326,1.0561,1.1358,1.2089,1.2757,1.3169,1.37,1.4366,1.4596,1.5074,1.5683,1.5692,1.4952,1.3606,1.3364,1.294,1.2381,0.0,0.0,0.0,0.0,0.0,0.0,0.0,0.0,0.0,0.0,0.0,0.0,0.0,0.0,0.0,0.0,0.0,0.0,0.0,0.0,0.0,0.0,0.0,0.0,0.0,0.0,0.0,0.0,0.0,0.0,0.0,0.0,0.0,0.0,0.0,0.0,0.0,0.6415,0.6463,0.6529,0.6479,0.646,0.0,0.0,0.0,0.0,0.0,0.0,0.7415,0.7575,0.7868,0.848,0.8625,0.896,0.9412,0.9495,0.9518,0.9737,1.0542,1.1193,1.1857,1.2978,1.3794,1.4381,1.446,1.4547,1.464,1.345,1.2947,1.2919,1.2692,1.2523,1.2239,1.231,1.2239,1.2019,0.0,0.0,0.0,0.0,0.0,0.0,0.0,0.0,0.0,0.0,0.0,0.5977,0.7016,0.7183,0.752,0.8382,0.8468,0.8474,0.849,0.849,0.8748,0.9454,0.9454,0.9779,1.0561,1.1841,1.2757,1.345,1.4496,1.5118,1.5364,1.5883,1.6198,1.6471,1.6597,1.613,1.5235,1.4451,1.4145,1.3965,1.2557,0.0,0.0,0.0,0.0,0.0,0.0,0.0,0.0,0.0,0.0,0.0,0.0,0.0,0.0,0.0,0.0,0.0,0.0,0.0,0.0,0.0,0.0,0.0,0.0,0.0,0.0,0.0,0.0,0.0,0.0,0.0,0.0,0.0,0.0,0.0,0.0,0.0,0.0,0.6936,0.694,0.0,0.0,0.0,0.0,0.7456,0.8171,0.8629,0.8638,0.9041,0.9289,0.9299,0.939,0.9659,1.0366,0.9882,0.9984,1.0514,1.1632,1.2231,1.2316,1.4587,1.5598,1.5606,1.5869,1.6041,1.5906,1.4662,1.4073,1.4151,1.4299,1.4129,1.3818,1.3974,1.3974,1.3733,0.0,0.0,0.0,0.0,0.0,0.0,0.0,0.0,0.4541,0.469,0.5461,0.6352,0.731,0.7787,0.8329,0.9058,0.9588,0.9843,0.9843,0.9396,0.9454,1.0168,0.9779,1.0205,1.1779,1.2492,1.3434,1.4505,1.5285,1.5741,1.5911,1.6262,1.6465,1.6602,1.6665,1.6553,1.6179,1.5645,1.5149,1.4574,1.3761,1.2801,0.0,0.0,0.0,0.0,0.0,0.0,0.0,0.0,0.0,0.0,0.0,0.0,0.0,0.0,0.0,0.0,0.0,0.0,0.0,0.0,0.0,0.0,0.0,0.0,0.0,0.0,0.0,0.0,0.0,0.0,0.0,0.0,0.0,0.0,0.0,0.0,0.0,0.7265,0.7293,0.0,0.7614,0.7991,0.8311,0.8311,0.8842,0.9229,0.9364,0.9535,0.976,1.0144,1.0149,1.0444,1.0968,1.0968,1.1091,1.1343,1.2869,1.3626,1.3717,1.556,1.6319,1.6319,1.6409,1.6492,1.6476,1.5982,1.535,1.467,1.4545,1.4308,1.4066,1.4152,1.4066,1.3909,0.0,0.0,0.0,0.0,0.0,0.0,0.0,0.0,0.4383,0.4588,0.5534,0.6531,0.7437,0.8102,0.8748,0.9454,1.0168,1.0624,1.0624,1.0168,1.0104,1.0561,1.0168,1.0884,1.2873,1.3178,1.4001,1.5482,1.6038,1.6364,1.6539,1.6756,1.6963,1.7158,1.7158,1.7158,1.7129,1.6699,1.6167,1.5427,1.4757,1.3918,1.2886,0.0,0.0,0.0,0.0,0.0,0.0,0.0,0.0,0.0,0.0,0.0,0.0,0.0,0.0,0.0,0.0,0.0,0.0,0.0,0.0,0.0,0.0,0.0,0.0,0.0,0.0,0.0,0.0,0.0,0.0,0.0,0.0,0.0,0.0,0.0,0.7409,0.7865,0.7903,0.7999,0.8242,0.8739,0.9027,0.9105,0.958,0.9932,1.0169,1.0264,1.0535,1.0922,1.1102,1.1319,1.1673,1.1943,1.2201,1.2627,1.3998,1.4857,1.5284,1.6653,1.7338,1.733,1.7119,1.7062,1.7062,1.6778,1.6188,1.5486,1.5348,1.5178,1.5018,1.4866,1.4787,1.462,0.0,0.0,0.0,0.0,0.0,0.0,0.0,0.3623,0.4386,0.4588,0.5542,0.654,0.7437,0.8102,0.8748,0.9454,1.0168,1.0561,1.0561,1.0561,1.0624,1.0624,1.0751,1.1699,1.3609,1.3705,1.4528,1.6201,1.6656,1.6997,1.7119,1.7514,1.7784,1.8008,1.8008,1.8008,1.7978,1.7578,1.7158,1.6665,1.557,1.5084,1.4719,0.0,0.0,0.0,0.0,0.0,0.0,0.0,0.0,0.0,0.0,0.0,0.0,0.0,0.0,0.0,0.0,0.0,0.0,0.0,0.0,0.0,0.0,0.0,0.0,0.0,0.0,0.0,0.0,0.0,0.0,0.0,0.0,0.0,0.8467,0.8158,0.8074,0.8669,0.8773,0.8773,0.8699,0.9373,0.9822,1.0055,1.0434,1.0733,1.0992,1.1451,1.1739,1.1704,1.2159,1.2445,1.2409,1.2689,1.3314,1.4289,1.4993,1.5881,1.6851,1.8016,1.8559,1.8543,1.8085,1.792,1.7895,1.7062,1.6762,1.6746,1.6738,1.673,1.6648,1.6252,1.6087,1.6087,0.0,0.0,0.0,0.0,0.0,0.0,0.0,0.3516,0.4252,0.454,0.5642,0.662,0.7386,0.8102,0.8748,0.9454,1.0168,1.0364,0.9843,1.0301,1.0624,1.0624,1.0955,1.1625,1.2675,1.3801,1.4915,1.5836,1.6929,1.7475,1.7543,1.7804,1.794,1.8008,1.8008,1.8008,1.8008,1.7881,1.7764,1.7588,1.6654,1.5968,1.546,0.0,0.0,0.0,0.0,0.0,0.0,0.0,0.0,0.0,0.0,0.0,0.0,0.0,0.0,0.0,0.0,0.0,0.0,0.0,0.0,0.0,0.0,0.0,0.0,0.0,0.0,0.0,0.0,0.0,0.0,0.0,0.0,0.8867,0.8546,0.8747,0.9078,0.9373,0.9396,0.9456,0.9596,1.0257,1.0636,1.0716,1.1456,1.1949,1.2042,1.2299,1.2518,1.2496,1.2587,1.2711,1.2689,1.2968,1.3592,1.4565,1.5534,1.6587,1.7557,1.8543,1.8998,1.899,1.8888,1.8837,1.8829,1.8557,1.8356,1.7995,1.7072,1.673,1.6656,1.6574,1.673,1.696,0.0,0.0,0.0,0.0,0.0,0.0,0.0,0.3544,0.4357,0.4357,0.5552,0.6548,0.7003,0.7652,0.8361,0.9005,0.9716,1.0104,0.997,1.0364,1.0624,1.0681,1.1159,1.1963,1.3202,1.4338,1.553,1.6668,1.7455,1.7862,1.7862,1.794,1.8008,1.8008,1.8008,1.8008,1.8008,1.8076,1.8144,1.8094,1.7658,1.7074,1.6465,1.5595,1.5061,1.4565,1.3293,1.2789,1.2578,1.1832,0.0,0.0,0.0,0.0,0.0,0.0,0.0,0.0,0.0,0.0,0.0,0.0,0.0,0.0,0.0,0.0,0.0,0.0,0.0,0.0,0.0,0.0,0.0,0.0,0.9707,0.9609,0.9442,0.9466,0.9623,1.0003,1.0198,1.0368,1.0592,1.1226,1.1701,1.1888,1.2305,1.2658,1.2748,1.2887,1.3014,1.3118,1.3216,1.3361,1.356,1.4019,1.4844,1.593,1.7004,1.8079,1.9071,1.9712,1.9983,0.0,1.9826,1.9756,1.9748,1.9573,1.9373,0.0,0.0,0.0,0.0,0.0,1.7602,1.79,0.0,0.0,0.0,0.0,0.0,0.0,0.0,0.3533,0.4397,0.4148,0.5459,0.6388,0.6388,0.7055,0.7782,0.8425,0.9069,0.9716,1.0428,1.0498,1.0618,1.08,1.1381,1.2533,1.4336,1.5102,1.6251,1.7872,1.794,1.8008,1.8008,1.8008,1.8008,1.8008,1.8008,1.8076,1.8202,1.8337,1.8462,1.8596,1.8664,1.8298,1.757,1.6419,1.5992,1.5872,1.47,1.411,1.368,1.2797,0.0,0.0,0.0,0.0,0.0,0.0,0.0,0.0,0.0,0.0,0.0,0.0,0.0,0.0,0.0,0.0,0.0,0.0,0.0,0.0,0.0,0.0,0.0,0.0,1.0352,1.058,1.0774,1.0383,1.0208,1.0738,1.1024,1.1292,1.1541,1.2098,1.2725,1.3132,1.3088,1.31,1.3288,0.0,0.0,0.0,0.0,1.4346,1.4873,1.552,1.6546,1.787,1.8788,1.9803,2.0736,2.0907,2.0997,2.097,2.0651,2.0597,2.057,2.0205,1.9942,1.9862,1.9045,1.8451,1.816,1.8262,1.846,1.8745,0.0,0.0,0.0,0.0,0.0,0.0,0.0,0.3355,0.4021,0.4253,0.5417,0.626,0.626,0.697,0.7782,0.8425,0.8613,0.9005,0.9652,0.9843,1.0225,1.0807,1.2239,1.324,1.3611,1.5547,1.6789,1.7079,1.7725,1.8008,1.8008,1.8008,1.8076,1.8202,1.8076,1.8462,1.9309,1.9177,1.9497,2.0139,2.0204,1.9454,1.8235,1.7514,1.7282,1.7093,1.5891,1.5414,1.5149,1.386,1.332,1.2983,1.2128,1.1384,0.0,0.0,0.0,0.0,0.0,0.0,0.0,0.0,0.0,0.0,0.0,0.0,0.0,0.0,0.0,0.0,0.0,0.0,0.0,1.0709,1.095,1.122,1.1514,1.1706,1.1932,1.2065,1.207,1.2254,1.2507,1.2802,1.3097,1.315,1.3713,1.4019,1.4118,1.4515,1.4754,1.481,1.481,1.5292,1.617,1.6257,1.7289,1.9163,0.0,0.0,2.0907,2.0997,2.0997,2.0988,2.0917,2.0891,2.0882,2.0802,2.051,2.0027,1.9539,1.9253,1.9149,1.8246,1.8789,1.9813,0.0,0.0,0.0,0.0,0.0,0.0,0.0,0.3046,0.3831,0.4127,0.5171,0.5986,0.6274,0.6685,0.7265,0.7907,0.8619,0.9198,0.9646,1.0028,1.0478,1.0933,1.2495,1.3576,1.3942,1.5898,1.7079,1.7432,1.7794,1.8008,1.8008,1.8327,1.8596,1.8787,1.9044,1.9497,2.0074,2.0063,2.0322,2.0707,2.0462,1.9901,1.9233,1.8796,1.8451,1.8071,1.7168,1.6883,1.6651,1.5094,1.451,1.4304,1.3325,1.2714,1.2226,0.0,0.0,0.0,0.0,0.0,0.0,0.0,0.0,0.0,0.0,0.0,0.0,0.0,0.0,1.0498,0.0,0.0,1.0885,1.1128,1.125,1.1508,1.2018,1.2246,1.2414,1.2414,1.2612,1.2881,1.313,1.3528,1.3773,1.39,1.4415,1.4684,1.4684,1.4912,1.5178,1.5267,1.5635,1.6183,1.6929,1.7669,1.8588,1.9712,2.0184,2.0736,2.1195,2.1275,2.1365,2.1365,2.1365,2.1365,2.1365,2.1872,2.1841,2.1646,2.1768,2.1183,2.0316,2.0089,2.0768,2.1666,0.0,0.0,0.0,0.0,0.0,0.0,0.0,0.2742,0.3574,0.3844,0.4784,0.5575,0.61,0.631,0.6609,0.7265,0.8613,0.9518,0.9518,1.0351,1.0933,1.1059,1.2756,1.3966,1.455,1.6247,1.7432,1.8008,1.8008,1.8008,1.8008,1.8596,1.8977,1.9177,1.9694,2.0204,2.0719,2.076,2.1014,2.1279,2.0794,2.0484,2.0291,1.9955,1.9375,1.8757,1.8193,1.7996,1.7805,1.6347,1.5787,1.5525,1.4396,1.4001,1.3731,1.3044,1.2831,0.0,0.0,0.0,0.0,0.0,0.0,0.0,0.0,0.0,1.0442,1.0521,1.0621,1.0844,1.1117,1.1193,1.1218,1.1462,1.1592,1.1854,1.2449,1.2707,1.2736,1.2736,1.3188,1.351,1.3772,1.4178,1.4553,1.4771,1.4981,1.5172,1.5172,1.5178,1.5363,1.554,1.6271,1.6929,1.7606,1.898,1.9894,2.0257,2.1105,2.1482,2.1482,2.1651,2.1741,2.1741,2.1741,2.182,2.1989,2.2755,2.3183,2.3357,2.4049,2.3358,2.1903,2.2148,2.2705,2.3216,0.0,0.0,0.0,0.0,0.0,0.0,0.0,0.0,0.2981,0.3049,0.4222,0.5121,0.5326,0.5837,0.628,0.6482,0.8361,0.9262,0.8678,1.0161,1.1059,1.1122,1.3389,1.4689,1.4754,1.6805,1.794,1.8008,1.8008,1.8008,1.8008,1.8269,1.8472,1.8607,1.8674,1.9573,2.106,2.0899,2.1717,2.3078,2.2604,2.1975,2.1198,2.0666,1.977,1.8741,1.8489,1.8402,1.8325,1.7494,1.6871,1.633,1.5556,1.4931,1.4237,1.3006,1.2642,1.2351,1.0947,1.0525,1.0611,1.0804,1.0795,1.0846,0.0,0.0,1.1003,1.1163,1.1193,1.1283,1.1566,1.1759,1.1991,1.2241,1.2463,1.2732,1.3074,1.3676,1.4106,1.4106,1.413,1.4253,1.4524,1.4841,1.5045,1.5077,1.5261,1.5445,1.5445,1.5642,1.5737,1.5737,1.6669,1.7692,1.8603,1.9704,2.0628,2.1463,2.1642,2.1651,2.1651,2.1651,2.1741,2.1741,2.1741,2.2157,2.2931,2.3096,2.3444,2.4049,2.4754,2.4766,2.425,2.2914,2.2878,2.3359,0.0,0.0,0.0,0.0,0.0,0.0,0.0,0.0,0.0,0.2985,0.3589,0.4153,0.4779,0.5409,0.5971,0.6342,0.7972,0.8871,0.8801,1.0218,1.1365,1.1903,1.3504,1.4722,1.5404,1.6845,1.7764,1.8008,1.8008,1.8008,1.8008,1.8977,1.9562,1.9759,2.0666,2.1553,2.2445,2.2372,2.275,2.345,2.2347,2.1839,2.1565,2.0215,1.9649,1.9518,1.9008,1.8875,0.0,1.8114,1.7901,1.7687,1.6515,1.6167,1.5948,1.4394,1.4042,1.3825,1.2579,1.1677,1.1153,0.0,1.1558,1.1311,1.1421,1.1479,1.1419,1.1495,1.1617,1.1708,1.1878,1.1969,1.2123,0.0,1.2586,1.2909,1.3688,1.3932,1.4247,1.4697,1.4899,1.4943,1.4968,1.5172,1.5356,1.5356,1.5547,1.5635,1.5635,1.5737,1.6109,1.6676,1.7692,1.8703,1.9704,2.0628,2.1275,2.1741,2.1741,2.1741,2.1741,2.1741,2.1741,2.1731,2.2246,2.2755,2.3183,2.42,2.4808,2.5147,2.603,2.629,2.6069,2.4861,2.464,2.4797,0.0,0.0,0.0,0.0,0.0,0.0,0.0,0.0,0.0,0.0,0.2861,0.3396,0.4332,0.4938,0.551,0.6137,0.7316,0.8285,0.886,1.0091,1.1233,1.2151,1.323,1.4314,1.5296,1.6486,1.7387,1.7842,1.7959,1.8134,1.8395,1.9562,2.0333,2.0707,2.1803,2.2519,2.2896,2.2823,2.2957,2.3138,2.1951,2.1577,2.1565,2.0107,1.9715,1.9911,1.933,1.9075,1.9008,1.8539,1.8395,1.8162,1.7088,1.6941,1.6784,1.5108,1.4689,1.4478,1.3454,1.2639,0.0,1.242,1.2117,1.1804,1.1875,1.1875,1.192,1.192,1.2076,1.2123,1.2209,1.2209,1.24,1.2892,1.2862,1.314,1.4229,1.4303,1.4471,1.5146,1.5452,1.5547,1.5267,1.5452,1.554,1.554,1.5737,1.5832,1.5832,1.6015,1.6581,1.7232,1.8519,1.9521,2.0249,2.1266,2.1741,2.1741,2.1741,2.1741,2.1731,2.1989,2.2255,2.2511,2.3193,2.3607,2.3953,2.5231,2.5913,2.6257,2.6962,2.7231,2.7149,2.6479,2.6074,2.5812,0.0,0.0,0.0,0.0,0.0,0.0,0.0,0.0,0.0,0.0,0.0,0.0,0.0,0.4426,0.4935,0.5602,0.633,0.7302,0.8608,0.957,1.0401,1.1303,1.2561,1.3515,1.4139,1.5658,1.6751,1.7402,1.7812,1.8462,1.9299,1.9497,2.0063,2.0824,2.0707,2.1037,2.1616,2.1313,2.1639,2.242,2.1901,2.1588,2.1325,2.0764,2.0183,1.9539,1.9198,1.9075,1.9075,1.8607,1.793,1.7235,1.7166,1.676,1.6053,1.4474,1.383,1.3334,1.2446,0.0,1.3378,1.2801,1.2465,1.2367,1.262,1.2516,1.2437,1.2607,1.2528,1.2448,1.2619,1.2705,1.288,1.3417,1.3501,1.378,1.4601,1.4873,1.5166,1.5445,1.5642,1.5825,0.0,1.5832,1.5825,1.5825,1.5832,1.5832,1.5832,1.6763,1.7232,1.7326,1.9247,2.0249,2.0339,2.1266,2.1741,2.1741,2.1741,2.1741,2.1731,2.2668,2.3531,2.4413,2.4413,2.4904,2.5735,2.5819,2.6351,2.7149,2.7149,2.7231,2.7231,2.7149,2.6655,2.5812,0.0,0.0,0.0,0.0,0.0,0.0,0.0,0.0,0.0,0.0,0.0,0.0,0.0,0.0,0.0,0.0,0.5603,0.6576,0.7428,0.8709,0.9983,1.1183,1.2189,1.336,1.4737,1.5588,1.6523,1.756,1.7994,1.8405,1.8798,1.9441,1.9901,2.0215,2.129,2.1978,2.2286,2.275,2.3017,2.303,2.2261,2.1877,2.1628,2.0613,2.0431,2.0506,0.0,1.8942,1.8684,1.8279,1.8124,1.7969,1.7373,1.7295,1.7194,1.5965,1.5038,1.4441,1.4362,0.0,1.4044,1.3757,1.3361,1.3024,1.2948,1.2881,1.279,1.2705,1.279,1.2881,1.2966,1.3052,1.3341,1.39,1.3931,1.4267,1.5019,1.524,1.5452,1.5635,1.573,0.0,0.0,0.0,0.0,1.5832,1.5832,1.6109,1.677,1.7138,1.8077,1.9613,2.0365,2.1142,2.2066,2.2353,2.2455,2.2446,2.2263,2.224,2.2677,2.2921,2.3617,2.4498,2.5073,2.5495,2.583,2.6445,2.688,2.7231,2.7231,2.7231,2.7231,2.7231,2.6809,2.629,0.0,0.0,0.0,0.0,0.0,0.0,0.0,0.0,0.0,0.0,0.0,0.0,0.0,0.0,0.0,0.0,0.0,0.5665,0.6833,0.7802,0.9076,1.0676,1.1384,1.2476,1.4092,1.4997,1.5984,1.7045,1.7905,1.8607,1.9198,1.9781,2.0226,2.0688,2.169,2.2187,2.231,2.2763,2.2836,2.2592,2.2013,2.1765,2.1577,2.0816,2.07,0.0,1.9518,1.8798,1.8405,1.794,1.7862,1.7842,1.7304,1.726,1.7269,1.6595,1.6129,1.5791,1.5319,1.5143,1.4902,1.4186,1.3677,1.3398,1.3222,1.3222,1.3137,1.2966,1.3052,1.3222,1.3222,1.3307,1.3572,1.4028,1.4129,1.4411,1.5167,1.5363,1.554,1.5737,1.5832,1.5832,0.0,0.0,0.0,1.5832,1.6109,1.6718,1.7486,1.8247,1.9333,2.1028,2.1421,2.2022,2.2857,2.2857,2.2857,2.2857,2.3038,2.3467,2.4077,2.4429,2.5138,2.6012,2.6609,2.6863,2.6863,2.7486,2.7759,2.7759,2.7759,2.7644,2.7506,2.7506,2.7204,2.6704,0.0,0.0,0.0,0.0,0.0,0.0,0.0,0.0,0.0,0.0,0.0,0.0,0.0,0.0,0.0,0.0,0.0,0.0,0.6616,0.6833,0.7747,0.9824,1.0148,1.0892,1.2205,1.3894,1.5127,1.5991,1.7482,1.8967,2.0291,2.0366,2.0955,2.2061,2.1788,2.1714,2.1651,2.1411,2.1285,2.1221,2.1221,2.1221,2.1158,2.1158,2.0903,2.0377,1.9309,1.871,1.8375,1.7657,1.7185,1.6908,1.6936,1.6679,1.6465,1.6508,1.7035,1.7293,1.5481,1.5731,1.5966,1.4146,1.3574,1.3496,1.3483,1.3476,1.3476,1.3476,1.3476,1.3476,0.0,0.0,1.3481,1.3741,1.4015,1.4391,1.495,1.5243,1.5527,0.0,0.0,0.0,0.0,0.0,0.0,1.6035,0.0,1.7574,1.8067,1.9903,2.1131,2.1596,2.2497,2.2902,2.3015,2.3015,2.3006,2.2988,2.4073,2.5037,2.5892,2.6918,2.7908,2.87,2.87,2.87,2.87,2.87,2.87,2.87,2.87,2.8425,2.8023,2.8023,2.7702,2.7265,0.0,0.0,0.0,0.0,0.0,0.0,0.0,0.0,0.0,0.0,0.0,0.0,0.0,0.0,0.0,0.0,0.0,0.0,0.4785,0.5791,0.6907,0.8215,0.9192,1.0262,1.1425,1.2727,1.414,1.5615,1.6975,1.8187,1.9233,1.9649,2.0118,2.0688,2.1313,2.1577,2.1514,2.2273,2.2347,2.1937,2.1937,2.1411,2.056,2.0431,1.9966,1.9309,1.8375,1.8104,1.7969,1.7088,1.6751,1.6727,1.7177,1.727,1.7316,1.7911,1.8235,1.8064,1.6653,1.6562,1.6431,1.446,1.4078,1.4256,1.4517,1.4629,1.4545,1.4378,1.4461,1.4384,0.0,0.0,0.0,1.4012,1.4262,0.0,1.494,1.5232,0.0,1.5805,0.0,1.6109,1.6857,1.7443,0.0,0.0,1.8698,1.9217,2.0074,2.0908,2.1804,2.2979,2.319,2.3538,2.384,2.461,2.4823,2.459,2.5611,2.6358,2.7006,2.7293,2.7908,2.87,2.87,2.87,2.87,2.87,2.87,2.87,2.87,2.8632,2.8517,2.8517,2.8521,2.8492,0.0,0.0,0.0,0.0,0.0,0.0,0.0,0.0,0.0,0.0,0.0,0.0,0.0,0.0,0.0,0.0,0.0,0.0,0.0,0.4742,0.5853,0.7177,0.835,0.95,1.0683,1.2007,1.338,1.4769,1.6244,1.7451,1.835,1.8895,1.9452,2.0096,2.0805,2.1187,2.1451,2.1827,2.1839,0.0,0.0,2.0624,1.9901,1.977,1.9441,1.8911,1.8037,1.7501,1.7226,0.0,0.0,1.6824,1.7367,1.7623,1.7899,1.8531,0.0,1.8653,1.7237,1.698,1.6745,1.5234,1.4984,1.5112,1.5125,1.522,1.5054,1.4559,1.4566,0.0,1.399,0.0,0.0,0.0,0.0,0.0,1.4923,1.5211,1.5504,0.0,1.5945,0.0,1.7436,1.8288,1.9143,0.0,2.0297,2.0657,2.1406,2.2005,2.2795,2.3804,2.3813,2.411,2.4824,2.5401,2.5856,2.6054,2.7004,2.771,2.8017,2.8466,2.8912,2.9366,0.0,2.9366,2.9366,2.9366,2.9542,2.9805,2.9805,2.9926,2.9972,2.9972,2.9881,2.9745,0.0,0.0,0.0,0.0,0.0,0.0,0.0,0.0,0.0,0.0,0.0,0.0,0.0,0.0,0.0,0.0,0.0,0.0,0.0,0.0,0.4669,0.6318,0.7312,0.8415,0.9627,1.1198,1.2526,1.3672,1.529,1.6543,1.7595,1.8171,1.8982,2.0031,2.0226,2.0624,2.1135,2.07,2.0506,2.0442,1.9868,1.9452,1.9166,0.0,1.8967,1.8643,1.7842,1.7028,1.6342,1.6769,1.6908,1.6912,1.744,1.7834,1.821,1.866,1.9072,1.9048,1.7721,1.7363,1.7241,1.6227,1.607,1.6004,1.5641,1.556,1.5311,1.4412,0.0,1.425,1.4088,1.4088,1.4088,1.4088,0.0,1.4583,1.4917,1.5177,1.5464,1.5792,1.6092,1.6752,1.7801,1.9082,2.037,2.1456,2.17,2.1952,2.2221,2.3089,2.3785,2.4143,2.435,2.4833,2.5693,2.5974,2.6542,2.7379,2.8434,2.891,2.891,2.984,3.0216,3.0216,3.0216,0.0,3.0216,3.0216,3.0668,3.1306,3.1306,3.146,3.1723,3.1723,3.1366,3.1133,0.0,0.0,0.0,0.0,0.0,0.0,0.0,0.0,0.0,0.0,-0.3063,-0.2011,0.0,0.0,0.0,0.0,0.0,0.0,0.0,0.0,0.0,0.4677,0.5599,0.6645,0.7817,0.9075,1.0695,1.2588,1.3653,1.5129,1.6996,1.7665,1.8496,1.9431,1.977,1.9911,1.9922,2.0107,2.0107,1.9911,1.9846,1.9309,1.8643,1.8442,0.0,0.0,1.7107,1.6621,1.6202,1.67,1.676,1.6808,1.7706,1.8064,1.8265,1.899,1.9494,1.9589,1.8645,1.8769,1.8908,1.7435,1.7181,1.7235,1.6601,1.6453,0.0,0.0,1.5144,1.4992,1.425,1.4088,1.4088,1.4088,0.0,0.0,0.0,0.0,1.5237,0.0,0.0,0.0,0.0,0.0,0.0,0.0,0.0,2.3617,2.3257,2.3761,2.4079,2.4152,2.502,2.5499,2.5693,2.7305,2.8247,2.8434,2.9463,2.9932,2.9943,3.0125,3.0216,3.0216,3.0216,0.0,3.0216,3.0216,3.0668,3.1306,3.1306,3.1665,3.2179,3.2179,3.2177,3.2205,0.0,0.0,0.0,0.0,0.0,0.0,0.0,0.0,-0.5878,-0.571,-0.4882,-0.3892,-0.2852,-0.2066,0.0,0.0,0.0,0.0,0.0,0.0,0.0,0.0,0.4199,0.5318,0.6437,0.7613,0.9087,1.0823,0.0,1.3107,1.4655,1.5442,1.6312,1.7159,1.7581,1.7948,1.8295,1.8639,1.8706,1.8649,1.8834,1.8529,1.7988,0.0,0.0,0.0,0.0,1.6482,1.6132,1.6482,1.6551,1.6616,1.7633,1.7961,1.8115,1.8916,1.9297,1.9372,1.8944,1.882,1.8734,1.8302,1.8091,1.785,1.7474,0.0,0.0,0.0,1.5068,1.4741,1.4741,0.0,0.0,0.0,0.0,0.0,0.0,0.0,0.0,0.0,0.0,0.0,0.0,0.0,0.0,0.0,0.0,2.407,2.3868,2.4051,2.4449,2.4922,2.5401,2.6167,2.721,2.8258,2.9002,2.9474,2.9932,3.0216,3.0216,3.0216,3.0216,3.0216,3.0216,0.0,3.0216,3.0216,3.0836,3.1801,3.1801,3.2488,3.3348,3.3348,3.3436,3.3469,0.0,0.0,0.0,0.0,0.0,0.0,0.0,-0.6956,-0.6853,-0.6686,-0.6578,-0.5873,-0.4236,-0.3231,-0.2508,0.0,0.0,0.0,0.0,0.0,0.0,0.0,0.0,0.0,0.0,0.0,0.0,0.0,0.9928,0.0,0.0,0.0,0.0,0.0,1.5489,1.6078,1.6684,1.7055,1.7133,0.0,0.0,1.7451,0.0,0.0,0.0,0.0,0.0,0.0,1.607,1.6272,1.6272,1.6342,1.7329,1.7728,1.789,1.8689,1.9056,1.9183,1.9207,1.8955,1.8751,1.9143,1.8802,1.8311,1.801,1.7123,0.0,0.0,1.4824,1.458,1.5228,0.0,1.5394,0.0,1.5394,0.0,0.0,0.0,0.0,0.0,0.0,0.0,0.0,0.0,0.0,0.0,0.0,0.0,2.4152,2.4152,2.4637,2.5693,2.5877,2.6924,2.8724,2.891,2.9382,3.0216,3.0216,3.0216,3.0216,3.0216,3.0216,3.0216,3.0216,0.0,0.0,3.0397,3.1181,3.2314,3.2488,3.3275,3.4397,3.4397,3.4397,3.4397,0.0,0.0,0.0,0.0,0.0,0.0,0.0,-0.7865,-0.7711,-0.761,-0.7444,-0.7058,-0.6195,-0.4988,-0.3782,0.0,0.0,0.0,0.0,0.0,0.0,0.0,0.0,0.0,0.0,0.0,0.0,0.0,0.0,0.0,0.0,0.0,0.0,0.0,0.0,0.0,1.5658,1.5666,0.0,0.0,0.0,0.0,0.0,0.0,0.0,0.0,0.0,0.0,0.0,0.0,0.0,1.5996,1.6968,1.7362,1.7672,1.847,0.0,0.0,1.9533,1.9877,2.0123,1.9714,1.9524,1.9144,1.8019,0.0,0.0,1.556,1.5311,1.5311,1.5394,1.5394,1.5394,1.5394,1.5394,1.5175,0.0,0.0,0.0,0.0,0.0,0.0,0.0,0.0,0.0,0.0,0.0,0.0,2.4152,2.4152,2.4637,2.5693,2.6628,2.7568,2.8724,2.9566,3.0125,3.0216,3.0216,3.0216,3.0216,3.0216,3.0216,3.0216,3.0216,0.0,0.0,3.0937,3.1637,3.2401,3.3031,3.3725,3.4397,3.4397,3.4397,3.4397,0.0,0.0,0.0,0.0,0.0,0.0,0.0,-0.8778,-0.8679,-0.8626,-0.8461,-0.8137,-0.7486,-0.6784,-0.5919,0.0,0.0,0.0,0.0,0.0,0.0,0.0,0.0,0.0,0.0,0.0,0.0,0.4492,0.0,0.0,0.0,0.0,0.0,0.0,0.0,0.0,0.0,0.0,0.0,0.0,0.0,0.0,0.0,0.0,0.0,0.0,0.0,0.0,0.0,0.0,0.0,0.0,1.6595,1.6741,0.0,0.0,1.8709,1.8958,1.9434,1.9443,1.9317,1.9561,1.9245,1.8779,1.8549,0.0,1.6952,1.6944,1.6535,1.637,1.6862,1.6535,1.6206,1.6206,1.5718,0.0,0.0,0.0,0.0,0.0,0.0,0.0,0.0,0.0,0.0,0.0,0.0,0.0,2.4152,2.4735,2.5586,2.6532,2.7579,2.862,2.9555,3.0023,3.0216,3.0216,3.0216,3.0216,3.0216,3.0216,3.0216,3.0216,3.0216,0.0,0.0,3.1038,3.1725,3.2401,3.3116,3.381,3.4397,3.4397,3.4397,3.4397,0.0,0.0,0.0,0.0,0.0,-0.9673,-0.9524,-0.9413,-0.9316,-0.9263,-0.9159,-0.8896,-0.8455,-0.8249,-0.7765,-0.6902,0.0,0.0,0.0,0.0,0.0,0.0,0.0,0.0,0.0,0.0,0.0,0.1793,0.3193,0.0,0.0,0.0,0.0,0.0,0.0,0.0,0.0,0.0,0.0,0.0,0.0,0.0,0.0,0.0,0.0,0.0,0.0,0.0,0.0,0.0,0.0,0.0,1.5939,1.6119,1.6094,0.0,1.8362,1.8495,1.9092,1.8887,1.8593,1.9092,1.8878,1.8523,0.0,0.0,1.7602,1.7917,1.7513,1.718,1.7513,1.7107,1.6617,1.637,1.5801,1.5311,1.5068,0.0,0.0,0.0,0.0,0.0,0.0,0.0,0.0,0.0,0.0,0.0,0.0,2.5401,2.6446,2.7189,2.8143,2.9187,3.0216,3.0216,3.0216,3.0216,3.0216,3.0216,3.0216,3.0216,3.0216,3.0216,3.0216,0.0,0.0,3.1193,3.1889,3.2389,3.3373,3.3979,3.4397,3.4397,3.4397,3.4397,0.0,0.0,0.0,0.0,0.0,0.0,0.0,-0.9681,-0.9562,-0.9413,-0.9263,-0.9211,-0.9211,-0.9211,-0.9061,-0.8804,0.0,0.0,0.0,0.0,0.0,0.0,0.0,0.0,0.0,0.0,-0.1272,-0.0734,0.0533,0.173,0.2861,0.4842,0.0,0.0,0.0,0.0,0.0,0.0,0.0,0.0,0.0,0.0,0.0,0.0,0.0,0.0,0.0,0.0,0.0,0.0,0.0,0.0,0.0,1.5463,1.611,1.7569,1.8193,1.8442,1.8442,1.8531,1.862,1.8442,1.8531,1.87,0.0,0.0,1.7772,1.7925,1.7997,1.7755,1.6862,1.6698,1.6453,1.556,1.5394,1.5068,1.425,0.0,0.0,0.0,0.0,0.0,0.0,0.0,0.0,0.0,0.0,0.0,0.0,2.6051,2.7189,2.7189,2.8143,2.9187,3.0216,3.0216,3.0216,3.0216,3.0216,3.0216,3.0216,3.0216,3.0216,0.0,0.0,0.0,0.0,3.1701,3.2302,3.2488,3.3869,3.4397,3.4397,3.4397,3.4397,3.4397,0.0,0.0,0.0,0.0,0.0,0.0,0.0,-0.9844,-0.974,-0.9688,-0.9577,-0.9458,-0.9458,-0.9413,-0.9309,-0.9211,0.0,0.0,0.0,0.0,0.0,0.0,0.0,0.0,0.0,0.0,-0.3131,-0.2202,-0.1002,-0.0135,0.048,0.2321,0.3748,0.0,0.0,0.0,0.0,0.0,0.0,0.0,0.0,0.0,0.0,0.0,0.0,0.0,0.0,0.0,0.0,0.0,0.0,0.0,0.0,0.0,0.0,1.71,1.7914,0.0,1.8353,1.8442,1.8523,1.8612,1.862,1.878,1.8843,1.8763,1.8665,1.8816,1.8895,1.8647,1.7755,1.7594,1.7107,1.5636,1.5884,1.6206,0.0,0.0,0.0,0.0,0.0,0.0,0.0,0.0,0.0,0.0,0.0,0.0,0.0,2.6147,2.7189,2.7189,2.8795,2.984,3.0216,3.0216,3.0216,3.0216,3.0216,3.0216,3.0216,3.0758,3.0937,0.0,0.0,0.0,0.0,3.1965,3.2302,3.2488,3.3882,3.4397,3.4397,3.4397,3.4397,3.4397,0.0,0.0,0.0,0.0,0.0,0.0,0.0,-1.011,-0.9955,-0.9903,-0.9784,-0.9673,-0.9725,-0.9621,-0.9517,-0.9465,0.0,0.0,0.0,0.0,0.0,0.0,0.0,0.0,0.0,-0.6098,-0.5304,-0.4328,-0.3498,-0.2936,-0.2573,-0.0576,0.0663,0.1195,0.2983,0.0,0.0,0.0,0.0,0.0,0.0,0.0,1.0765,0.0,0.0,0.0,0.0,0.0,0.0,0.0,0.0,0.0,0.0,0.0,0.0,0.0,1.7471,1.7878,1.8201,1.8362,1.8442,1.8531,1.8692,0.0,0.0,1.9073,1.9152,1.9301,1.9301,1.9054,1.8158,1.7997,1.7513,1.6131,1.637,0.0,0.0,0.0,0.0,0.0,0.0,0.0,0.0,0.0,0.0,0.0,0.0,0.0,0.0,2.6147,2.7189,2.7189,2.9176,3.0216,3.0216,3.0216,3.0216,3.0216,3.0216,3.0216,3.0216,3.0668,3.1038,0.0,0.0,0.0,0.0,3.2413,3.276,3.2846,3.3966,3.4397,3.4397,3.4397,3.4397,3.4397,0.0,0.0,0.0,0.0,0.0,0.0,0.0,0.0,0.0,-1.0051,-0.9895,-0.9844,-0.9999,-0.9895,-0.974,-0.9614,0.0,0.0,0.0,0.0,0.0,0.0,0.0,0.0,0.0,-0.806,-0.7613,-0.6846,-0.668,-0.6374,-0.5942,-0.388,-0.2998,-0.301,-0.0768,0.0466,0.109,0.388,0.6046,0.7588,0.7986,0.799,0.0,0.0,0.0,0.0,0.0,0.0,0.0,0.0,0.0,0.0,0.0,0.0,0.0,0.0,0.0,0.0,0.0,1.8201,1.8442,1.8442,0.0,0.0,0.0,1.9152,0.0,1.9301,1.9301,1.9054,1.8158,1.8078,1.7755,1.6862,0.0,0.0,0.0,0.0,0.0,0.0,0.0,0.0,0.0,0.0,0.0,0.0,0.0,0.0,0.0,2.6147,2.7189,2.7189,2.9176,3.0216,3.0216,3.0216,3.0216,3.0216,3.0216,3.0204,3.017,3.0158,3.0598,0.0,0.0,0.0,0.0,3.3054,3.336,3.3484,3.4147,3.4397,3.4397,3.4397,3.4397,3.4397,0.0,0.0,0.0,0.0,0.0,0.0,0.0,0.0,0.0,0.0,-1.0102,-0.9844,-0.9999,-0.9895,-0.9844,0.0,0.0,0.0,0.0,0.0,0.0,0.0,0.0,0.0,0.0,-0.9291,-0.8901,-0.8076,-0.821,-0.8205,-0.7906,-0.7682,-0.6818,-0.5363,-0.4155,-0.1932,0.1013,0.2335,0.3498,0.4575,0.5668,0.6287,0.0,0.0,0.0,0.0,0.8917,0.9453,0.0,0.0,0.0,0.0,0.0,0.0,0.0,0.0,1.7136,1.7473,1.7878,0.0,1.8442,1.8612,1.8851,1.9073,0.0,0.0,0.0,0.0,0.0,0.0,0.0,0.0,0.0,0.0,0.0,0.0,0.0,0.0,0.0,0.0,0.0,0.0,0.0,0.0,0.0,0.0,0.0,0.0,0.0,2.6147,2.7189,2.7189,2.9176,3.0216,3.0216,3.0216,3.0216,3.0216,3.0216,3.0021,2.9665,3.0162,3.0611,0.0,0.0,0.0,3.2462,3.2642,3.2992,3.3484,3.4147,3.4397,3.4397,3.4397,3.4397,3.4397,0.0,0.0,0.0,0.0,0.0,0.0,0.0,0.0,0.0,0.0,0.0,0.0,0.0,0.0,0.0,0.0,0.0,0.0,0.0,0.0,0.0,0.0,0.0,0.0,-1.0667,-1.0647,-1.0384,-0.9805,-1.0128,-1.0057,-0.976,-0.9768,-0.9183,-0.8081,-0.6703,-0.4476,-0.1705,-0.0311,0.1089,0.257,0.3742,0.0,0.0,0.0,0.0,0.0,0.8075,0.877,0.0,1.0067,1.0067,1.0218,0.0,0.0,0.0,0.0,1.6814,1.7221,1.7797,1.8201,1.8442,1.862,1.8851,1.9073,1.9222,0.0,0.0,0.0,0.0,0.0,0.0,0.0,0.0,0.0,0.0,0.0,0.0,0.0,0.0,0.0,0.0,0.0,0.0,0.0,0.0,0.0,0.0,0.0,0.0,2.6147,2.7189,2.7189,2.9176,3.0216,3.0216,3.0216,3.0101,2.9883,2.9883,2.9619,2.9125,2.9537,3.0048,0.0,0.0,0.0,3.2564,3.2564,3.2911,3.3534,3.3866,3.4175,3.4397,3.4397,3.4397,3.4397,0.0,0.0,0.0,0.0,0.0,0.0,0.0,0.0,0.0,0.0,0.0,0.0,0.0,0.0,0.0,0.0,0.0,0.0,0.0,0.0,0.0,0.0,0.0,-1.1864,-1.1685,-1.1979,-1.194,-1.1493,-1.1992,-1.1957,-1.1495,-1.1242,-1.0908,-1.053,-0.8406,-0.6649,-0.5029,-0.3107,-0.1091,0.086,0.219,0.0,0.0,0.0,0.0,0.0,0.0,0.0,0.0,0.9614,0.9922,1.0212,1.1755,0.0,0.0,0.0,0.0,0.0,1.7708,1.8201,1.8442,1.8612,1.8772,1.9002,1.9222,1.9301,0.0,0.0,0.0,0.0,0.0,1.8647,0.0,0.0,0.0,0.0,0.0,0.0,0.0,0.0,0.0,0.0,0.0,0.0,0.0,0.0,0.0,0.0,0.0,2.6147,2.7253,2.7275,2.9157,3.0067,2.9986,3.0067,2.9894,2.9504,2.9424,2.9102,2.8586,2.8586,2.9294,3.0446,0.0,0.0,3.2555,3.2555,3.2921,3.347,3.3548,3.3875,3.428,3.4371,3.4397,3.4397,0.0,0.0,0.0,0.0,0.0,0.0,0.0,0.0,0.0,0.0,0.0,0.0,0.0,0.0,0.0,0.0,0.0,0.0,0.0,0.0,0.0,0.0,-1.2589,-1.2597,-1.2058,-1.3018,-1.314,-1.2432,-1.3315,-1.3577,-1.3227,-1.3611,-1.2924,-1.1199,-0.8954,-0.713,-0.5671,-0.4375,-0.3132,-0.1645,0.1096,0.0,0.0,0.0,0.0,0.0,0.0,0.0,0.0,0.9539,0.9922,1.0212,1.1755,0.0,0.0,0.0,0.0,0.0,1.7619,1.8201,1.8442,1.8442,1.8612,1.8772,1.9002,1.9152,0.0,0.0,0.0,0.0,0.0,1.8727,0.0,0.0,0.0,0.0,0.0,0.0,0.0,0.0,0.0,0.0,0.0,0.0,0.0,0.0,0.0,0.0,0.0,2.6532,2.739,2.7839,2.9038,2.9389,2.893,2.9378,2.9573,2.9493,2.9045,2.8563,2.8092,2.8092,2.8575,2.9327,0.0,3.031,3.198,3.198,3.2306,3.2881,3.3391,3.3639,3.377,3.4228,3.4397,3.4397,0.0,0.0,0.0,0.0,0.0,0.0,0.0,0.0,0.0,0.0,0.0,0.0,0.0,0.0,0.0,0.0,0.0,0.0,0.0,0.0,0.0,-1.3442,-1.3321,-1.2964,-1.2243,-1.2893,-1.3163,-1.2976,-1.359,-1.3925,-1.3843,-1.4004,-1.3244,-1.1662,-1.0013,-0.8268,-0.6437,-0.5074,-0.3521,-0.1801,0.0,0.0,0.0,0.0,0.0,0.0,0.0,0.0,0.0,0.0,0.9771,0.9841,1.1471,0.0,0.0,0.0,0.0,0.0,1.7781,1.8201,1.8282,1.8523,1.8692,1.8922,1.9152,1.9222,0.0,0.0,0.0,0.0,0.0,0.0,0.0,0.0,0.0,0.0,0.0,0.0,0.0,0.0,0.0,0.0,0.0,0.0,0.0,0.0,0.0,0.0,0.0,0.0,2.6795,2.679,2.8243,2.8941,2.87,2.8689,2.8677,2.8677,2.8425,2.8057,2.7575,2.7575,2.7918,2.8633,0.0,2.9777,3.0817,3.1226,3.1718,3.2254,3.2542,3.3038,3.3652,3.4201,3.4397,3.4397,0.0,0.0,0.0,0.0,0.0,0.0,0.0,0.0,0.0,0.0,0.0,0.0,0.0,0.0,0.0,0.0,0.0,0.0,0.0,0.0,-1.3983,-1.4579,-1.4103,-1.3424,-1.2725,-1.3012,-1.3304,-1.339,-1.3785,-1.3947,-1.4065,-1.379,-1.3112,-1.1903,-1.0542,-0.8869,-0.6973,-0.5223,-0.3519,-0.1721,0.0,0.0,0.0,0.0,0.0,0.0,0.0,0.0,0.0,0.0,0.0,0.0,0.0,0.0,0.0,1.4972,1.561,1.5869,1.7781,1.8201,1.8201,1.8612,1.8772,1.8913,1.9143,1.9231,0.0,0.0,0.0,0.0,0.0,0.0,0.0,0.0,0.0,0.0,0.0,0.0,0.0,0.0,0.0,0.0,0.0,0.0,0.0,0.0,0.0,0.0,0.0,0.0,2.6134,2.6025,2.7631,2.8471,2.8356,2.7989,2.7862,2.7977,2.7862,2.761,2.7231,2.7231,2.7545,2.8247,2.8858,2.9471,3.0037,3.0748,3.1248,3.1653,3.1707,3.2555,3.3639,3.4058,3.4293,3.4397,0.0,0.0,0.0,0.0,0.0,0.0,0.0,0.0,0.0,0.0,0.0,0.0,0.0,0.0,0.0,0.0,0.0,0.0,0.0,0.0,-1.4579,-1.4855,-1.4728,-1.4375,-1.3899,-1.4272,-1.4239,-1.3785,-1.4143,-1.4194,-1.379,-1.3645,-1.2973,-1.1922,-0.9938,-0.8348,-0.6984,-0.4766,-0.345,-0.251,-0.0313,0.0,0.0,0.0,0.0,0.0,0.0,0.0,0.0,0.0,0.0,0.0,0.0,0.0,1.1347,1.4817,1.5283,1.5282,1.7448,1.8201,1.8442,1.8612,1.8612,1.8523,1.8922,1.9002,0.0,1.9222,0.0,0.0,0.0,0.0,0.0,0.0,0.0,0.0,0.0,0.0,0.0,0.0,0.0,0.0,0.0,0.0,0.0,0.0,0.0,0.0,0.0,0.0,0.0,2.6563,2.7505,2.7805,2.7334,2.73,2.7518,2.7977,2.7506,2.7265,2.7231,2.7231,2.7545,2.8247,2.8858,2.9471,3.0037,3.0748,3.1013,3.1104,3.164,3.2555,3.36,3.3639,3.3966,3.4314,0.0,0.0,0.0,0.0,0.0,0.0,0.0,0.0,0.0,0.0,0.0,0.0,0.0,0.0,0.0,0.0,0.0,0.0,0.0,0.0,-1.4588,-1.5507,-1.4688,-1.4468,-1.4905,-1.4806,-1.4413,-1.3824,-1.4103,-1.4,-1.3645,-1.3273,-1.2599,-1.1558,-0.9884,-0.8129,-0.6294,-0.4919,-0.36,-0.2275,-0.0783,0.0235,0.0,0.0,0.0,0.0,0.0,0.0,0.0,0.0,0.8775,0.9549,1.0738,1.0867,1.1186,1.4343,1.4955,1.5199,1.761,1.8362,1.8523,1.8843,1.8772,1.8683,1.9073,1.9152,1.9222,1.9301,1.9301,0.0,0.0,0.0,0.0,0.0,0.0,0.0,0.0,0.0,0.0,0.0,0.0,0.0,0.0,0.0,0.0,0.0,0.0,0.0,0.0,0.0,0.0,2.5284,2.6735,2.7426,2.7231,2.7231,2.7323,2.7518,2.7323,2.7231,2.7231,2.7231,2.7313,2.7626,2.8247,2.8858,2.9484,3.0114,3.0583,3.1039,3.1614,3.211,3.2594,3.3326,3.3718,3.3858,0.0,0.0,0.0,0.0,0.0,0.0,0.0,0.0,0.0,0.0,0.0,0.0,0.0,0.0,0.0,0.0,0.0,0.0,-1.4819,-1.4732,-1.5059,-1.5999,-1.5075,-1.4798,-1.545,-1.5129,-1.4656,-1.3995,-1.4022,-1.3848,-1.3572,-1.3046,-1.2277,-1.1307,-0.9774,-0.7876,-0.589,-0.479,-0.3523,-0.2085,-0.1042,-0.016,0.0,0.0,0.0,0.0,0.0,0.0,0.0,0.0,0.8542,0.9483,1.0604,1.0774,1.1203,1.4137,1.4617,1.4782,1.7188,1.7853,1.7934,1.8425,1.8603,1.8772,1.9222,1.9222,1.9222,1.9301,1.9402,1.9461,1.9283,0.0,0.0,0.0,0.0,0.0,0.0,0.0,0.0,0.0,0.0,0.0,0.0,0.0,0.0,0.0,0.0,0.0,0.0,0.0,2.4895,2.4925,2.6373,2.7231,2.7231,2.7231,2.7231,2.7231,2.7231,2.7231,2.7231,2.7231,2.7231,2.7231,2.7938,2.8395,2.8858,2.9639,3.0432,3.1026,3.1418,3.1679,3.1863,3.2751,3.3273,3.3571,0.0,0.0,0.0,0.0,0.0,0.0,0.0,0.0,0.0,0.0,0.0,0.0,0.0,0.0,0.0,0.0,0.0,0.0,-1.5206,-1.5758,-1.6114,-1.6296,-1.588,-1.5579,-1.5292,-1.5277,-1.4972,-1.4425,-1.4008,-1.3797,-1.3797,-1.2973,-1.2153,-1.1337,-0.937,-0.7572,-0.5936,-0.4362,-0.3025,-0.1934,-0.1176,-0.0497,0.0162,0.0,0.0,0.0,0.0,0.0,0.0,0.0,0.7923,0.9509,1.0804,1.0909,1.1237,1.4299,1.4371,1.3866,1.6116,1.6698,1.678,1.7277,0.0,0.0,1.9222,1.9152,1.9073,1.9231,1.965,2.0063,2.0457,0.0,0.0,0.0,0.0,0.0,0.0,0.0,0.0,0.0,0.0,0.0,0.0,0.0,0.0,0.0,0.0,0.0,0.0,2.3973,2.4914,2.5746,2.6704,2.7231,2.7231,2.7231,2.7231,2.7231,2.7231,2.7231,2.7231,2.7231,2.7231,2.7231,2.7938,2.8167,2.8247,2.9496,3.0432,3.0986,3.0986,3.1326,3.1759,3.1759,3.2581,3.3506,0.0,0.0,0.0,0.0,0.0,0.0,0.0,0.0,0.0,0.0,0.0,0.0,0.0,0.0,0.0,0.0,0.0,0.0,-1.4991,-1.4775,-1.4834,-1.5294,-1.5228,-1.507,-1.482,-1.4717,-1.453,-1.4201,-1.3783,-1.3492,-1.3353,-1.275,-1.1897,-1.0878,-0.9782,-0.7939,-0.5681,-0.4944,-0.3693,-0.2271,-0.2018,-0.1256,-0.0166,0.0,0.0,0.0,0.0,0.0,0.0,0.0,0.0,0.0,1.0362,1.0603,1.1156,1.381,1.4447,1.4782,1.7033,1.7286,0.0,1.8112,0.0,0.0,0.0,1.9222,0.0,0.0,2.0283,2.0796,2.0906,0.0,0.0,0.0,0.0,0.0,0.0,0.0,0.0,0.0,0.0,0.0,0.0,0.0,0.0,0.0,0.0,0.0,0.0,2.3627,2.4584,2.4914,2.6373,2.7231,2.7231,2.7231,2.7231,2.7231,2.7231,2.7231,2.7231,2.7231,2.7231,2.7231,2.7383,2.7777,2.8247,2.9496,3.0432,3.0986,3.0986,3.1091,3.1287,3.1692,3.2241,3.2784,0.0,0.0,0.0,0.0,0.0,0.0,0.0,0.0,0.0,0.0,0.0,0.0,0.0,0.0,0.0,0.0,0.0,0.0,0.0,-1.4547,-1.4492,-1.4948,-1.4729,-1.4612,-1.4527,-1.4348,-1.4209,-1.3992,-1.3637,-1.3484,-1.346,-1.2748,-1.178,-1.069,-0.9697,-0.7883,-0.5491,-0.4815,-0.3705,-0.2418,-0.2332,-0.1803,-0.0851,0.0,0.0,0.0,0.0,0.0,0.0,0.0,0.0,0.0,1.0492,1.0746,1.1303,1.3346,1.3888,1.4203,1.5951,1.6124,0.0,1.678,1.7269,1.7908,1.9054,0.0,0.0,0.0,0.0,2.1163,0.0,0.0,0.0,0.0,0.0,0.0,0.0,0.0,0.0,0.0,0.0,0.0,0.0,0.0,0.0,0.0,0.0,0.0,0.0,2.3714,2.4659,2.4999,2.6456,2.7231,2.7231,2.7231,2.7231,2.7231,2.7231,2.7231,2.7231,2.7231,2.7231,2.7231,2.7231,2.7696,2.8633,2.9328,3.019,3.0986,3.0986,3.0823,3.0711,3.1289,3.1772,3.2191,0.0,0.0,0.0,0.0,0.0,0.0,0.0,0.0,0.0,0.0,-1.2212,0.0,0.0,0.0,0.0,0.0,0.0,0.0,0.0,0.0,-1.4773,-1.4932,-1.4405,-1.4163,-1.4418,-1.4209,-1.3992,-1.379,-1.3572,-1.3579,-1.3816,-1.2862,-1.1811,-1.0606,-0.9367,-0.7505,-0.5272,-0.4293,-0.3405,-0.2513,-0.2334,-0.2041,-0.1655,0.0087,0.0,0.0,0.0,0.0,0.0,0.0,0.0,0.0,1.0907,1.1149,1.1611,1.3031,1.2948,1.2784,1.3789,1.4048,0.0,1.4448,1.6018,0.0,1.8895,1.9488,1.9916,2.0448,0.0,0.0,0.0,0.0,0.0,0.0,0.0,0.0,0.0,0.0,0.0,0.0,0.0,0.0,0.0,0.0,0.0,0.0,0.0,0.0,0.0,2.3973,2.4829,2.5663,2.6704,2.7231,2.7231,2.7231,2.7231,2.7231,2.7231,2.7231,2.7231,2.7231,2.7231,2.7231,2.7231,2.7926,2.9003,2.9081,2.9793,3.0911,3.0986,3.0596,3.0114,3.0748,3.1319,3.1818,0.0,0.0,0.0,0.0,0.0,0.0,0.0,0.0,0.0,0.0,0.0,0.0,0.0,0.0,0.0,0.0,0.0,0.0,0.0,0.0,-1.4583,-1.4613,-1.4114,-1.4057,-1.4418,-1.4072,-1.379,-1.3572,-1.3346,-1.3357,-1.3438,-1.2915,-1.1652,-0.9769,-0.9339,-0.7428,-0.4565,-0.4297,-0.3676,-0.2784,-0.2513,-0.2327,-0.196,-0.0623,0.071,0.0,0.0,0.0,0.0,0.0,0.0,0.0,1.0658,1.1149,1.1611,1.3031,1.3451,1.3704,1.4803,1.4552,0.0,0.0,1.6511,1.7747,1.8158,1.8785,1.9484,0.0,0.0,0.0,0.0,0.0,0.0,0.0,0.0,0.0,0.0,0.0,0.0,0.0,0.0,0.0,0.0,0.0,0.0,0.0,0.0,0.0,2.1989,2.3551,2.4584,2.4744,2.6373,2.7231,2.7231,2.7231,2.7231,0.0,2.7231,2.7231,2.7231,2.7231,2.7231,2.7231,2.7231,2.7615,2.8407,2.8924,2.9561,3.0279,3.0823,3.0596,3.0114,3.0748,3.1242,3.1549,0.0,0.0,0.0,0.0,0.0,0.0,0.0,0.0,0.0,0.0,0.0,0.0,0.0,0.0,0.0,0.0,0.0,0.0,0.0,0.0,0.0,-1.432,-1.4138,-1.4166,-1.4274,-1.3855,-1.3339,-1.2806,-1.2662,-1.2576,-1.2551,-1.2147,-1.0942,-0.8983,-0.8653,-0.7027,-0.4474,-0.4387,-0.3765,-0.2873,-0.2513,-0.2334,-0.2064,-0.0718,0.0627,0.1877,0.274,0.0,0.0,0.0,0.0,0.0,0.0,0.0,1.1691,1.2498,1.3203,1.3789,1.4048,0.0,0.0,1.5523,0.0,1.6593,1.7747,1.8112,0.0,0.0,0.0,0.0,0.0,0.0,0.0,0.0,0.0,0.0,0.0,0.0,0.0,0.0,0.0,0.0,0.0,0.0,0.0,0.0,0.0,2.1741,2.1741,2.3464,2.4498,2.4498,2.629,2.7231,2.7231,2.7231,2.7231,2.7231,2.7231,2.7231,2.7231,2.7231,2.7231,2.7231,2.7231,2.7545,2.8259,2.8554,2.9015,2.9639,3.0266,2.996,2.9263,3.0203,3.059,3.0728,0.0,0.0,0.0,0.0,0.0,0.0,0.0,0.0,0.0,0.0,0.0,0.0,0.0,0.0,0.0,0.0,0.0,0.0,0.0,0.0,0.0,-1.4016,-1.4238,-1.4281,-1.4057,-1.355,-1.2813,-1.1977,-1.1815,-1.1546,-1.1238,-1.1036,-1.0133,-0.8524,-0.8006,-0.6684,-0.4828,-0.4476,-0.3765,-0.2963,-0.2424,-0.2243,-0.2064,-0.0718,0.0537,0.1879,0.2684,0.4554,0.6691,0.783,0.0,0.0,0.0,0.0,1.1699,1.1871,1.279,1.362,1.3039,0.0,1.4287,1.5433,1.5191,0.0,1.709,1.7284,0.0,0.0,0.0,0.0,0.0,0.0,0.0,0.0,0.0,0.0,0.0,0.0,0.0,0.0,0.0,0.0,0.0,0.0,0.0,0.0,0.0,2.1909,2.1731,2.3627,2.4659,2.4498,2.629,2.7231,2.7231,2.7231,2.7231,2.7231,2.7231,2.7231,2.7231,2.7231,2.7231,2.7231,2.7231,2.7545,2.8018,2.8179,2.8474,2.9003,2.9639,2.9184,2.8327,2.9419,2.9862,2.9893,0.0,0.0,0.0,0.0,0.0,0.0,0.0,0.0,0.0,0.0,0.0,0.0,0.0,0.0,0.0,0.0,0.0,0.0,0.0,0.0,0.0,-1.3877,-1.4016,-1.4065,-1.3863,-1.2725,-1.2057,-1.1774,-1.1059,-1.0132,-0.8978,-1.0058,-0.9856,-0.8524,-0.8006,-0.6868,-0.528,-0.4567,-0.4032,-0.3409,-0.2512,-0.2334,-0.2334,-0.1525,-0.009,0.1522,0.1879,0.3576,0.5811,0.7566,0.8448,0.0,0.0,0.0,1.1699,1.1699,1.2705,1.3704,1.362,0.0,1.4126,0.0,1.4699,1.4782,0.0,0.0,0.0,0.0,0.0,0.0,0.0,0.0,0.0,0.0,0.0,0.0,0.0,0.0,0.0,0.0,0.0,0.0,0.0,0.0,0.0,0.0,2.2413,2.2589,2.1731,2.4211,2.5242,2.4488,2.629,2.7231,2.7231,2.7231,2.7231,2.7231,2.7231,2.7231,2.7231,2.7231,2.7231,2.7231,2.7231,2.7231,2.7394,2.7938,2.8259,2.8407,2.9015,2.8779,2.8247,2.8937,2.946,2.9809,0.0,0.0,0.0,0.0,0.0,0.0,0.0,0.0,0.0,0.0,0.0,0.0,0.0,0.0,0.0,0.0,0.0,0.0,0.0,0.0,0.0,-1.4104,-1.4124,-1.3768,-1.3119,-1.2291,-1.1323,-1.0351,-0.9959,-0.9143,-0.7851,-0.8632,-0.8545,-0.7658,-0.7221,-0.6514,-0.5544,-0.4656,-0.4032,-0.3497,-0.2691,-0.2424,-0.2334,-0.1256,0.0,0.1342,0.2236,0.3667,0.5455,0.7478,0.836,0.8807,1.0738,0.0,0.0,0.0,1.2448,1.336,1.362,1.3873,1.421,0.0,1.4545,1.43,1.547,0.0,0.0,0.0,0.0,0.0,0.0,0.0,0.0,0.0,0.0,0.0,0.0,0.0,0.0,0.0,0.0,0.0,0.0,0.0,0.0,0.0,2.1388,2.1627,2.1703,2.337,2.4288,2.437,2.5979,2.6795,2.6795,2.7082,2.7231,2.7231,2.7231,2.7231,2.7231,2.7231,2.7231,2.7231,2.7231,2.7231,2.7231,2.7545,2.7626,2.7696,2.8327,2.8167,2.7696,2.8327,2.8821,2.9215,0.0,0.0,0.0,0.0,0.0,0.0,0.0,0.0,0.0,0.0,0.0,0.0,0.0,0.0,0.0,0.0,0.0,0.0,0.0,0.0,0.0,-1.4274,-1.4065,-1.3477,-1.2445,-1.17,-1.0651,-0.9226,-0.903,-0.8341,-0.7289,-0.7703,-0.7588,-0.7051,-0.6697,-0.6254,-0.5808,-0.4921,-0.43,-0.3855,-0.305,-0.2691,-0.2603,-0.0986,0.0179,0.1163,0.2683,0.0,0.0,0.0,0.0,0.0,0.0,0.0,0.0,0.0,0.0,0.0,0.0,0.0,1.4629,1.5123,1.4468,1.3977,0.0,0.0,0.0,0.0,0.0,0.0,0.0,0.0,0.0,0.0,0.0,0.0,0.0,0.0,0.0,0.0,0.0,0.0,0.0,0.0,0.0,0.0,2.068,2.108,2.1632,2.2778,2.3753,2.4298,2.5566,2.6278,2.6278,2.6783,2.7093,2.7231,2.7231,2.7231,2.7231,2.7231,2.7231,2.7231,2.7231,2.7231,2.7231,2.7231,2.7138,2.7056,2.7696,2.7534,2.7044,2.7603,2.8161,2.8614,0.0,0.0,0.0,0.0,0.0,0.0,0.0,0.0,0.0,0.0,0.0,0.0,0.0,-1.37,-1.3534,-1.3575,-1.326,-1.3312,-1.3777,-1.3824,-1.3847,-1.3848,-1.3645,0.0,-1.205,-1.0864,-0.9895,-0.8998,-0.8395,-0.7769,-0.7289,-0.7703,-0.7588,-0.7051,-0.6881,-0.6612,-0.634,-0.5636,0.0,0.0,-0.3673,-0.3318,-0.3318,0.0,0.0,0.0,0.0,0.0,0.0,0.0,0.0,0.0,0.0,1.1262,1.1262,0.0,0.0,0.0,0.0,1.5462,0.0,1.4378,1.4216,0.0,0.0,0.0,0.0,0.0,0.0,0.0,0.0,0.0,0.0,0.0,0.0,0.0,0.0,0.0,0.0,0.0,0.0,0.0,0.0,0.0,0.0,0.0,2.1349,2.1826,2.1714,2.3412,2.4388,2.4298,2.5239,2.575,2.575,2.6255,2.6749,2.7231,2.7231,2.7231,2.7231,2.7231,2.7231,2.7231,2.7231,2.7231,2.7231,2.7231,2.6962,2.661,2.7056,2.6962,2.6528,2.661,2.7481,2.8528,0.0,0.0,0.0,0.0,0.0,0.0,0.0,0.0,0.0,0.0,0.0,0.0,0.0,-1.3879,-1.3647,-1.39,-1.3675,-1.3737,-1.4135,-1.3961,-1.3727,-1.3637,-1.2886,-1.2057,-1.1081,-0.9965,-0.8985,-0.8204,-0.7898,-0.7579,-0.7271,-0.749,-0.7411,-0.7051,-0.6697,-0.652,-0.634,-0.5544,0.0,0.0,0.0,0.0,0.0,0.0,0.0,0.0,0.0,0.0,0.0,0.0,0.0,0.0,0.0,1.1262,1.1262,1.1262,1.2613,0.0,0.0,0.0,0.0,1.5786,1.5047,0.0,0.0,0.0,0.0,0.0,0.0,0.0,0.0,0.0,0.0,0.0,0.0,0.0,0.0,0.0,0.0,0.0,0.0,0.0,0.0,0.0,0.0,0.0,0.0,2.0688,2.1686,2.1842,2.2629,2.4183,2.4334,2.4812,2.5704,2.6209,2.6554,2.6737,2.707,2.7231,2.7231,2.7231,2.7231,2.7231,2.7231,2.7231,2.7231,2.7231,2.7056,2.6962,2.7138,2.7056,2.688,2.661,2.7408,2.8528,0.0,0.0,0.0,0.0,0.0,0.0,0.0,0.0,0.0,0.0,0.0,0.0,0.0,0.0,-1.3843,-1.4071,-1.4016,-1.3955,-1.3897,-1.355,-1.3105,-1.2586,-1.1829,-1.0932,-1.004,-0.9301,-0.8494,-0.7597,-0.769,-0.7526,-0.7182,-0.7428,-0.7326,-0.6966,-0.6609,-0.6428,0.0,0.0,0.0,-0.5191,0.0,0.0,-0.2506,0.0,0.0,0.0,0.0,0.0,0.0,0.0,0.0,0.0,0.0,1.1084,1.1354,1.144,1.2619,0.0,1.3951,0.0,0.0,0.0,0.0,0.0,0.0,0.0,0.0,0.0,0.0,0.0,0.0,0.0,0.0,0.0,0.0,0.0,0.0,0.0,0.0,0.0,0.0,0.0,0.0,0.0,0.0,0.0,0.0,0.0,2.168,2.1231,2.1907,2.4116,2.3981,2.4385,2.544,2.5957,2.6301,2.6473,2.699,2.7231,2.7231,2.7231,2.7231,2.7231,2.7231,2.7231,2.7231,2.7231,2.7138,2.6962,2.6962,2.6962,2.688,2.6279,2.7059,2.8268,0.0,0.0,0.0,0.0,0.0,0.0,0.0,0.0,0.0,-1.3528,0.0,0.0,0.0,0.0,0.0,-1.4101,-1.423,-1.3905,-1.2938,-1.2492,-1.1822,-1.0858,-1.0415,-0.9825,-0.9008,-0.8784,-0.828,-0.7377,-0.762,-0.7533,-0.719,-0.7432,-0.7241,-0.6795,-0.652,-0.6428,-0.6343,0.0,-0.5908,-0.5644,0.0,-0.3848,-0.295,0.0,0.0,0.0,0.3227,0.4125,0.0,0.5977,0.0,0.0,0.0,1.0559,1.1348,1.1613,1.279,0.0,0.0,0.0,0.0,0.0,0.0,0.0,0.0,0.0,0.0,0.0,0.0,0.0,0.0,0.0,0.0,0.0,0.0,0.0,0.0,0.0,0.0,0.0,0.0,0.0,0.0,0.0,0.0,0.0,1.9301,1.9991,2.168,2.1842,2.2521,2.4116,2.42,2.4418,2.4889,2.5417,2.5945,2.645,2.6967,2.7219,2.7231,2.7231,2.7231,2.7231,2.7231,2.7231,2.7149,2.7231,2.6962,2.6528,2.6528,2.6528,2.6445,2.5527,2.6378,2.781,0.0,0.0,0.0,0.0,0.0,0.0,0.0,0.0,-1.3859,0.0,0.0,0.0,-1.4271,-1.4417,-1.4387,-1.4348,-1.37,-1.3171,-1.2739,-1.1607,-1.0858,-1.0565,-0.9669,-0.9071,-0.8994,-0.8147,-0.7672,-0.7552,-0.7429,-0.7279,-0.7169,-0.721,-0.7058,-0.6795,-0.652,-0.6343,-0.6171,-0.5908,0.0,-0.5644,-0.4928,-0.3578,0.0,0.0,0.0,0.0,0.0,0.4391,0.4837,0.0,0.7034,0.8181,0.0,0.0,0.0,1.1699,0.0,0.0,1.488,0.0,0.0,0.0,0.0,0.0,0.0,0.0,0.0,0.0,0.0,0.0,0.0,0.0,0.0,0.0,0.0,0.0,0.0,0.0,0.0,0.0,0.0,0.0,0.0,0.0,0.0,0.0,1.9301,1.9766,2.0769,2.1993,2.2841,2.3298,2.3897,2.4258,2.4395,2.4889,2.5406,2.5922,2.6439,2.6864,2.7231,2.7231,2.7231,2.7231,2.7231,2.6974,2.6704,2.7056,2.7138,2.6962,2.661,2.6704,2.688,2.6063,2.6436,2.7428,0.0,0.0,0.0,0.0,0.0,0.0,-1.3434,-1.3688,-1.3857,0.0,0.0,0.0,-1.4369,-1.4371,-1.4353,-1.4281,-1.339,-1.2579,-1.2137,-1.0895,-0.9969,-0.9658,-0.8751,-0.8304,-0.8493,-0.7704,-0.7349,-0.7432,-0.7261,-0.717,-0.7139,-0.7139,-0.6966,-0.6795,0.0,0.0,0.0,0.0,0.0,0.0,-0.4567,0.0,0.0,0.0447,0.215,0.0,0.0,0.0,0.4837,0.5539,0.6949,0.0,0.0,0.0,0.0,0.0,0.0,0.0,0.0,0.0,0.0,0.0,0.0,0.0,1.6288,1.5801,0.0,0.0,0.0,0.0,0.0,0.0,0.0,0.0,0.0,0.0,0.0,0.0,0.0,0.0,0.0,0.0,0.0,1.8816,1.9301,1.9301,1.9301,1.9844,2.0991,2.2306,2.315,2.3519,2.397,2.42,2.42,2.4671,2.5187,2.5716,2.6221,2.6737,2.7231,2.7231,2.7231,2.7231,2.7231,2.7056,2.6787,2.7056,2.7056,2.688,2.6456,2.655,2.6798,2.5717,2.5936,2.6649,0.0,0.0,0.0,-1.1979,-1.2131,-1.2477,-1.3444,-1.3549,-1.3573,0.0,-1.3737,-1.3933,-1.4099,-1.416,-1.4118,-1.4118,-1.3191,-1.2236,-1.1471,-1.0175,-0.9207,-0.8414,-0.7935,-0.7702,-0.7718,-0.7473,-0.7304,-0.7204,-0.7204,-0.7184,-0.7139,-0.7139,-0.6966,-0.6795,0.0,0.0,0.0,0.0,0.0,-0.5555,-0.3846,-0.2412,0.0,0.0,0.2331,0.0,0.3676,0.4123,0.4748,0.5099,0.6602,0.0,0.0,0.0,0.0,0.0,1.3294,0.0,0.0,0.0,0.0,0.0,0.0,0.0,1.6057,1.5726,1.522,0.0,0.0,0.0,0.0,0.0,0.0,0.0,0.0,0.0,0.0,0.0,0.0,0.0,0.0,0.0,1.7755,1.8727,1.9301,1.9301,1.9301,1.9991,2.168,2.2456,2.3298,2.42,2.42,2.42,2.42,2.4613,2.513,2.5716,2.6163,2.668,2.7231,2.7231,2.7231,2.7231,2.7231,2.7149,2.7138,2.7149,2.688,2.6445,2.6135,2.6135,2.6279,2.5126,2.5133,2.5815,0.0,0.0,0.0,-1.0882,-1.1202,-1.181,-1.3165,-1.346,-1.36,-1.3723,-1.3885,-1.4053,-1.4122,-1.4375,-1.4469,-1.4261,-1.302,-1.2054,-1.149,-0.9878,-0.8706,-0.8298,-0.7922,-0.7757,-0.7897,-0.7473,-0.7297,-0.746,-0.719,-0.7112,-0.7139,-0.7139,-0.6966,-0.6795,-0.652,0.0,0.0,0.0,0.0,-0.5563,-0.3937,0.0,-0.0,0.2058,0.3405,0.4121,0.4121,0.4478,0.5099,0.0,0.6962,0.7665,0.0,0.0,0.0,0.0,0.0,0.0,0.0,0.0,0.0,0.0,0.0,0.0,1.7538,1.7456,1.7204,0.0,0.0,0.0,0.0,0.0,0.0,0.0,0.0,0.0,0.0,0.0,0.0,0.0,0.0,0.0,1.6944,1.8407,1.9301,1.9301,1.9301,1.9991,2.168,2.1918,2.267,2.4116,2.42,2.42,2.42,2.4292,2.4797,2.5716,2.5807,2.6335,2.7231,2.7231,2.7231,2.7231,2.7231,2.6974,2.6704,2.7056,2.688,2.6528,2.6445,2.6207,2.5979,2.5728,2.5518,2.5455,0.0,0.0,0.0,-1.0183,-1.0534,-1.1211,-1.2622,-1.3023,-1.3371,-1.3869,-1.4111,-1.4177,-1.4022,-1.4238,-1.4285,-1.4216,-1.2687,-1.157,-1.141,-0.9659,-0.8488,-0.8242,-0.7985,-0.7733,-0.7733,-0.6857,-0.654,-0.6612,-0.5983,-0.5894,-0.6166,-0.5805,-0.6169,-0.6903,-0.5997,-0.5822,0.0,0.0,-0.5668,-0.5489,-0.3224,0.0,0.0268,0.2326,0.3583,0.43,0.43,0.4565,0.5097,0.5988,0.6962,0.0,0.0,0.9946,1.0911,0.0,1.3209,1.4873,0.0,0.0,0.0,1.804,0.0,0.0,0.0,1.7367,1.7115,0.0,0.0,0.0,0.0,0.0,0.0,0.0,0.0,0.0,0.0,0.0,0.0,0.0,0.0,0.0,1.6698,1.8238,1.9301,1.9301,1.9301,1.9991,2.168,2.1832,2.2521,2.4116,2.42,2.42,2.42,2.42,2.4705,2.5716,2.5716,2.6244,2.7231,2.7231,2.7231,2.7231,2.7231,2.7056,2.688,2.688,2.6704,2.6528,2.6528,2.6124,2.5549,2.5549,2.5211,2.5007,-0.8523,0.0,0.0,-0.9623,-0.9956,-1.0623,-1.1937,-1.2349,-1.2739,-1.3396,-1.3626,-1.3675,-1.3446,0.0,0.0,0.0,-1.2252,-1.1229,0.0,0.0,0.0,-0.8251,-0.7865,-0.7496,-0.7234,-0.6166,-0.5633,-0.5633,-0.4734,-0.4559,-0.501,-0.4467,-0.501,-0.6462,-0.5198,-0.5022,0.0,0.0,0.0,-0.477,0.0,-0.0447,0.0447,0.2326,0.3494,0.421,0.4387,0.4743,0.5188,0.5547,0.0,0.8281,0.8632,0.9772,0.0,0.0,0.0,0.0,0.0,0.0,0.0,0.0,0.0,1.787,0.0,0.0,0.0,1.6131,0.0,0.0,0.0,0.0,0.0,0.0,0.0,0.0,0.0,0.0,0.0,0.0,0.0,0.0,0.0,1.8238,1.9301,1.9301,1.9301,1.9991,2.168,2.1832,2.2521,2.4116,2.42,2.42,2.42,2.42,2.4659,2.5566,2.5658,2.6198,2.7082,2.7185,2.7231,2.7231,2.7231,2.7231,2.7149,2.6704,2.6528,2.6528,2.6445,2.5874,2.52,2.52,2.4871,2.4654,-0.7664,-0.7785,0.0,0.0,-0.9257,-0.9852,-1.1039,-1.1137,-1.1172,-1.1413,-1.1594,0.0,0.0,0.0,0.0,0.0,0.0,0.0,-1.0454,0.0,0.0,-0.8257,-0.7119,-0.6508,-0.6248,-0.563,-0.528,-0.528,-0.4648,-0.4378,-0.4378,-0.3929,-0.4018,-0.4559,-0.4026,0.0,0.0,0.0,-0.4497,0.0,-0.0358,0.0807,0.0,0.2778,0.3408,0.3765,0.4654,0.5102,0.5547,0.0,0.7051,0.7577,0.0,0.9859,1.0299,0.0,0.0,0.0,0.0,0.0,0.0,0.0,1.804,0.0,0.0,0.0,1.787,1.8031,0.0,1.5538,1.5538,0.0,0.0,0.0,0.0,0.0,0.0,0.0,0.0,0.0,0.0,0.0,0.0,1.8238,1.9301,1.9301,1.9301,1.9991,2.168,2.1832,2.2521,2.4116,2.42,2.42,2.42,2.42,2.4464,2.5015,2.5486,2.6014,2.6565,2.7024,2.7231,2.7231,2.7231,2.7231,2.7149,2.6704,2.6528,2.6445,2.6135,2.5633,2.52,2.52,2.4871,2.4526,-0.7651,-0.7843,0.0,0.0,0.0,-0.8966,-1.0083,-1.06,0.0,0.0,0.0,0.0,0.0,0.0,0.0,0.0,0.0,-1.0549,0.0,0.0,0.0,0.0,0.0,0.0,-0.563,-0.4565,-0.4121,-0.43,-0.2864,-0.2326,-0.2596,-0.2148,-0.1879,-0.1792,-0.1612,0.0,-0.0895,0.0,-0.4318,0.0,0.0,0.0,0.0,0.2869,0.3585,0.4302,0.4832,0.5191,0.546,0.0,0.7051,0.0,0.0,0.0,0.0,0.0,0.0,0.0,0.0,0.0,0.0,0.0,0.0,0.0,1.8031,0.0,1.8031,0.0,0.0,0.0,0.0,0.0,0.0,0.0,0.0,0.0,0.0,0.0,0.0,0.0,0.0,0.0,0.0,0.0,0.0,0.0,1.9301,1.9991,2.168,2.1832,2.2521,2.4116,2.42,2.42,2.42,2.42,2.4441,2.4923,2.5451,2.598,2.6485,2.699,2.7231,2.7231,2.7231,2.7056,2.6798,2.6302,2.629,2.6445,2.5464,2.5126,2.52,2.52,2.4871,2.4612,-0.7757,0.0,0.0,0.0,0.0,0.0,0.0,0.0,0.0,0.0,0.0,0.0,-1.071,-1.1033,0.0,0.0,-1.0193,-0.968,0.0,0.0,-0.7665,0.0,0.0,0.0,0.0,0.0,-0.2869,-0.2959,-0.1345,-0.0718,-0.0987,-0.0628,-0.0359,0.0,0.0,0.0538,0.1166,0.0,0.0,-0.0987,0.0897,0.2243,0.3053,0.3048,0.3764,0.4837,0.4921,0.5191,0.5552,0.5908,0.7139,0.0,0.889,0.0,0.0,0.0,0.0,0.0,1.4963,0.0,0.0,0.0,0.0,0.0,0.0,0.0,0.0,0.0,0.0,0.0,0.0,0.0,1.3873,0.0,0.0,0.0,0.0,0.0,0.0,0.0,0.0,0.0,0.0,0.0,0.0,0.0,0.0,1.9923,2.1385,2.168,2.2446,2.3824,2.4127,2.42,2.42,2.42,2.4372,2.4728,2.5394,2.5899,2.6278,2.6932,2.7231,2.7231,2.7231,2.6962,2.6445,2.6207,2.6135,2.6207,2.5126,2.4871,2.52,2.5031,2.4786,2.4592,-0.7786,-0.768,0.0,0.0,0.0,0.0,0.0,0.0,0.0,0.0,0.0,0.0,0.0,0.0,0.0,0.0,0.0,-0.9235,-0.8285,0.0,-0.7676,0.0,0.0,-0.5466,0.0,0.0,-0.1436,-0.1436,-0.0539,-0.0,-0.0,-0.0,-0.0,0.0,0.0,0.0539,0.1346,0.1256,0.1256,0.1345,0.2064,0.2871,0.3587,0.0,0.421,0.501,0.501,0.0,0.0,0.6789,0.7665,0.0,0.0,0.0,0.0,0.0,0.0,0.0,0.0,0.0,0.0,1.7781,0.0,0.0,0.0,0.0,1.8523,0.0,0.0,0.0,0.0,1.4901,1.3981,0.0,0.0,0.0,0.0,0.0,0.0,0.0,0.0,0.0,0.0,0.0,0.0,0.0,0.0,0.0,2.0459,2.1375,2.2145,2.3001,2.3824,2.42,2.42,2.42,2.42,2.4235,2.5233,2.5716,2.5773,2.6772,2.7231,2.7231,2.7231,2.6962,2.6528,2.6528,2.629,2.5895,2.5369,2.52,2.5115,2.47,2.454,2.454,0.0,0.0,0.0,0.0,0.0,0.0,0.0,-0.8524,0.0,0.0,0.0,0.0,0.0,0.0,-0.882,0.0,0.0,-0.841,-0.8036,-0.7228,0.0,0.0,0.0,-0.3492,0.0,0.0,-0.1077,-0.0449,-0.018,0.0,0.0,0.0,0.0,0.0,0.0,0.0359,0.0,0.0,0.0,0.0,0.0,0.3229,0.3676,0.0,0.0,0.501,0.501,0.5282,0.0,0.6789,0.7841,0.8978,0.9941,1.1079,1.1952,1.2283,1.3033,0.0,0.0,0.0,1.5115,1.6698,0.0,0.0,0.0,0.0,0.0,0.0,0.0,0.0,0.0,0.0,0.0,0.0,0.0,0.0,0.0,0.0,0.0,0.0,0.0,0.0,0.0,0.0,0.0,0.0,0.0,0.0,0.0,2.0769,2.1538,2.2927,2.3298,2.3677,2.4189,2.42,2.42,2.4212,2.5233,2.5716,2.575,2.6772,2.7231,2.7149,2.688,2.6622,2.6445,2.6207,2.6063,2.5812,2.538,2.52,2.5115,2.4711,2.454,2.4623,-0.7685,0.0,0.0,0.0,0.0,0.0,0.0,0.0,0.0,0.0,-0.8444,0.0,-0.854,0.0,-0.8368,0.0,-0.8188,-0.796,-0.7945,-0.6979,0.0,-0.6152,-0.5039,0.0,0.0,0.0,0.0,0.0,0.0,0.0,0.0,0.0359,0.0539,0.0539,0.0,0.0628,0.0987,0.0,0.1436,0.0,0.0,0.3406,0.0,0.0,0.4656,0.501,0.0,0.5282,0.5822,0.6789,0.7929,0.9065,1.0111,1.1241,1.2203,1.2454,1.2869,1.3457,1.3873,1.3873,0.0,1.5794,1.5794,0.0,1.7529,0.0,0.0,0.0,0.0,0.0,0.0,0.0,0.0,0.0,0.0,0.0,0.0,1.7238,0.0,0.0,0.0,0.0,0.0,0.0,0.0,0.0,0.0,0.0,0.0,0.0,2.1001,2.208,2.2692,2.3224,2.3751,2.4055,2.42,2.4212,2.5233,2.5716,2.575,2.6772,2.7231,2.7149,2.688,2.661,2.6445,2.6207,2.5968,2.5633,2.5285,2.5115,2.4946,2.4625,2.454,2.4654,0.0,0.0,0.0,0.0,-0.7748,0.0,0.0,0.0,-0.7944,0.0,-0.8185,-0.8113,-0.8128,-0.8262,-0.8258,-0.8258,-0.807,0.0,-0.7875,-0.728,0.0,0.0,-0.6454,-0.6037,-0.5687,0.0,0.0,0.0,0.009,0.009,0.009,0.0987,0.1346,0.1436,0.1436,0.0,0.1436,0.1436,0.1436,0.1524,0.251,0.3494,0.43,0.4569,0.4837,0.501,0.501,0.5369,0.5908,0.6877,0.8013,0.9148,1.0269,1.1488,1.2448,1.2619,1.2705,1.2869,1.3711,1.3957,1.4126,1.5144,0.0,0.0,0.0,0.0,1.7033,0.0,0.0,0.0,0.0,0.0,0.0,0.0,0.0,0.0,0.0,0.0,0.0,0.0,0.0,0.0,0.0,0.0,0.0,0.0,0.0,0.0,0.0,0.0,2.0459,2.0459,2.2155,2.3001,2.3001,2.3824,2.42,2.4212,2.5233,2.5716,2.575,2.6772,2.7231,2.7231,2.7149,2.6962,2.6528,2.6528,2.603,2.5285,2.5285,2.4946,2.454,2.454,2.454,2.4612,-0.7337,-0.6906,-0.6822,0.0,-0.757,-0.794,0.0,0.0,0.0,0.0,-0.808,-0.8195,-0.8441,-0.8313,-0.8243,-0.8243,-0.7952,0.0,0.0,0.0,0.0,-0.6572,-0.4049,-0.3651,-0.5687,-0.1977,0.0,0.1077,0.1077,0.0897,0.0538,0.0807,0.1076,0.1436,0.0,0.0,0.1436,0.1436,0.1793,0.2598,0.3138,0.3764,0.0,0.0,0.4837,0.501,0.5191,0.5902,0.6877,0.7841,0.9056,1.0356,1.1327,1.2106,1.2619,1.2705,1.2705,1.279,1.2954,1.3039,1.3294,1.4132,1.4545,1.4873,0.0,0.0,0.0,0.0,0.0,0.0,0.0,0.0,0.0,0.0,0.0,0.0,0.0,0.0,0.0,0.0,0.0,0.0,0.0,0.0,0.0,0.0,0.0,0.0,0.0,0.0,0.0,2.0459,2.2155,2.3001,2.3001,2.3824,2.42,2.4212,2.5233,2.5716,2.575,2.6772,2.7231,2.7149,2.6798,2.6787,2.6974,2.6622,2.6362,2.6113,2.5801,2.5221,2.454,2.454,2.454,2.4612,-0.7071,0.0,0.0,-0.5997,0.0,0.0,-0.7782,0.0,0.0,-0.8004,-0.7991,0.0,-0.8183,-0.8171,-0.8115,-0.8115,-0.7916,0.0,-0.7514,0.0,0.0,-0.7051,-0.4676,-0.3224,-0.3188,-0.0721,0.0,0.1436,0.0,0.1256,0.0987,0.0987,0.1166,0.1436,0.0,0.2152,0.2061,0.224,0.2598,0.2957,0.3406,0.0,0.0,0.5186,0.5539,0.5714,0.6517,0.6874,0.7228,0.8193,0.9405,1.0788,1.1682,1.2289,1.2705,1.2705,1.279,1.2875,1.2705,1.279,1.296,1.3379,1.3535,1.3866,1.4789,1.5032,1.5025,0.0,0.0,0.0,0.0,0.0,0.0,0.0,0.0,0.0,0.0,0.0,0.0,0.0,0.0,0.0,0.0,0.0,0.0,0.0,0.0,0.0,0.0,0.0,0.0,2.0001,2.1231,2.208,2.2456,2.3287,2.3824,2.4212,2.5233,2.5716,2.575,2.6772,2.7231,2.7149,2.688,2.6974,2.7149,2.6704,2.6373,2.6207,2.5801,2.5295,2.4786,2.4786,2.47,2.4581,0.0,0.0,0.0,0.0,0.0,0.0,0.0,-0.7506,0.0,-0.7882,0.0,-0.7818,-0.7838,-0.7861,-0.7939,-0.7939,0.0,-0.7656,-0.7872,-0.7257,-0.7195,-0.7798,-0.5815,-0.3164,0.0093,0.0909,0.0,0.0,0.0,0.0,0.1613,0.1792,0.1882,0.1882,0.0,0.0,0.0,0.3491,0.3491,0.3135,0.3674,0.421,0.483,0.6065,0.6593,0.677,0.8009,0.8017,0.7577,0.8368,0.9579,1.0966,1.1774,1.2289,1.2705,1.2705,1.2875,1.2966,1.279,1.2881,1.2966,1.279,1.2705,1.2869,1.3626,1.3795,1.3795,1.3795,1.3795,1.3626,0.0,0.0,0.0,0.0,0.0,0.0,0.0,0.0,0.0,0.0,0.0,0.0,0.0,0.0,0.0,0.0,0.0,0.0,0.0,0.0,0.0,1.9301,2.0304,2.1155,2.1756,0.0,2.3553,2.4303,2.5256,2.575,2.5842,2.6795,2.7231,2.7231,2.7231,2.7231,2.7149,2.6787,2.6373,2.5895,2.5369,2.52,2.5285,2.5115,2.4871,2.4625,0.0,0.0,0.0,0.0,0.0,-0.5506,-0.705,-0.7459,-0.7611,-0.7753,-0.7797,-0.7858,-0.7984,-0.7829,-0.7646,-0.7646,-0.7553,0.0,0.0,0.0,0.0,-0.6712,-0.2145,0.0574,0.1111,0.0922,0.1004,0.0,0.0,0.0,0.2862,0.3931,0.4374,0.4374,0.0,0.0,0.3758,0.4204,0.0,0.4383,0.4835,0.5719,0.6681,0.7129,0.757,0.7918,0.8364,0.8894,0.9419,0.9593,1.0554,1.1774,1.1957,1.2289,1.2705,1.2966,1.2881,1.279,1.2966,1.2881,1.279,1.2705,1.2705,1.2705,1.2869,1.2954,1.2954,1.2954,1.2954,1.2954,1.3052,0.0,0.0,0.0,0.0,0.0,0.0,0.0,0.0,0.0,0.0,0.0,0.0,0.0,0.0,0.0,0.0,0.0,0.0,0.0,0.0,0.0,2.1461,0.0,0.0,0.0,2.4237,2.4797,2.5417,2.5934,2.6347,2.6955,2.7231,2.7231,2.7231,2.7231,2.7231,2.7138,2.6798,2.6279,2.5527,2.5464,2.5644,2.4882,2.4786,2.5031,0.0,0.0,0.0,0.0,0.0,0.0,0.0,-0.6952,0.0,-0.7628,-0.7537,-0.7563,-0.7736,-0.7543,-0.7444,-0.7553,-0.7359,-0.7272,-0.7491,-0.7302,-0.5749,-0.2392,0.0197,0.0,0.1528,0.1216,0.1197,0.1459,0.0,0.0,0.322,0.4463,0.4999,0.4999,0.0,0.5528,0.0,0.0,0.0,0.5179,0.5719,0.6425,0.721,0.7921,0.8536,0.9056,0.968,1.0212,1.0559,1.0207,1.0992,1.2043,1.2118,1.2454,1.279,1.3052,1.3052,1.2966,1.3052,1.3052,1.296,1.279,1.279,1.2881,1.2705,1.2705,1.2705,1.2705,1.2705,1.2954,1.3626,1.4287,0.0,0.0,0.0,0.0,0.0,0.0,0.0,0.0,0.0,0.0,0.0,0.0,0.0,0.0,0.0,0.0,0.0,0.0,0.0,0.0,0.0,0.0,0.0,0.0,0.0,2.4923,2.5451,2.598,2.6485,2.699,2.7231,2.7231,2.7231,2.7231,2.7149,2.6962,2.655,2.6135,2.5957,2.5874,2.5822,2.5391,2.5211,2.5115,0.0,-0.1211,0.0,0.0,-0.3589,0.0,-0.5615,-0.6484,-0.7144,-0.7444,-0.7341,-0.7238,-0.7444,-0.7344,-0.7247,-0.7359,-0.7065,-0.7083,-0.7613,-0.5773,-0.2828,0.1415,0.1594,0.1578,0.1571,0.1518,0.1487,0.0,0.0,0.0,0.0,0.5087,0.0,0.0,0.0,0.0,0.0,0.0,0.6779,0.6151,0.6602,0.7132,0.7826,0.8886,0.9589,1.0111,1.0997,1.1354,1.1348,1.0819,1.1251,1.2043,1.2283,1.2534,1.279,1.3052,1.3052,1.3052,1.3143,1.3222,1.3222,1.2875,1.2966,1.3052,1.279,1.2705,1.279,1.2705,1.279,1.3039,1.4041,1.4287,0.0,0.0,0.0,0.0,0.0,0.0,0.0,0.0,0.0,0.0,0.0,0.0,0.0,0.0,0.0,0.0,0.0,0.0,0.0,0.0,0.0,2.1078,2.1756,0.0,2.3884,2.5084,2.5509,2.6037,2.6634,2.7047,2.7231,2.7231,2.7231,2.7231,2.7149,2.6704,2.6373,2.6146,2.629,2.6207,2.6063,2.5895,2.5633,2.5126,0.0,0.0,0.0,0.0,0.0,0.0,-0.6353,-0.6372,-0.6667,-0.7141,-0.7238,-0.7238,-0.7238,-0.7153,-0.7059,-0.7062,-0.6679,-0.6491,-0.6595,-0.1918,0.1111,0.1617,0.1614,0.16,0.1572,0.1539,0.1508,0.0,0.0,0.0,0.0,0.0,0.0,0.0,0.0,0.0,0.0,0.7489,0.7401,0.7397,0.7845,0.8723,0.9772,1.0289,1.0727,1.1176,1.1262,1.144,1.1699,1.178,1.1866,1.2043,1.2283,1.2534,1.279,1.3052,1.2966,1.279,1.3222,1.3052,1.279,1.3052,1.3052,1.3052,1.279,1.2875,1.2966,1.279,1.2875,1.3137,1.3476,1.3476,1.373,0.0,0.0,0.0,0.0,0.0,0.0,0.0,0.0,0.0,0.0,1.8506,0.0,0.0,0.0,0.0,0.0,0.0,0.0,1.9301,0.0,2.168,2.1832,2.3361,2.4608,2.5647,2.5693,2.6221,2.7162,2.7208,2.7231,2.7231,2.7231,2.7231,2.7149,2.6704,2.6715,2.6985,2.6229,2.6135,2.6362,2.6063,2.5633,2.5253,0.0,0.0,0.0,0.0,0.0,0.0,0.0,-0.4483,-0.4511,-0.4808,-0.5943,-0.6802,-0.7188,-0.6824,-0.6683,-0.6688,-0.6529,-0.5061,-0.1817,0.0404,0.1617,0.1617,0.1617,0.1611,0.1599,0.1862,0.2018,0.0,0.0,0.0,0.0,0.0,0.0,0.0,0.0,0.8476,0.8116,0.8116,0.8288,0.864,0.8815,0.9428,1.0376,1.0549,1.0906,1.1262,1.1262,1.144,1.1699,1.1957,1.2123,1.2283,1.2534,1.2619,1.279,1.3052,1.2881,1.279,1.3137,1.3052,1.2966,1.2881,1.2966,1.3052,1.279,1.279,1.279,1.2705,1.279,1.2875,1.296,1.3222,1.3398,0.0,0.0,0.0,0.0,0.0,0.0,0.0,0.0,0.0,0.0,0.0,0.0,0.0,0.0,0.0,0.0,0.0,0.0,1.9301,0.0,2.1001,2.1001,2.2951,2.429,2.4971,2.5768,2.6542,2.7231,2.7231,2.7231,2.7231,2.7231,2.7056,2.6798,2.688,2.6715,2.6396,2.6644,2.6633,2.6479,2.6634,2.6417,2.613,0.0,0.0,0.0,0.0,-0.2523,-0.4246,-0.333,-0.2355,-0.1764,-0.1774,-0.3255,-0.4757,-0.5857,-0.5483,-0.5226,-0.5205,-0.4625,-0.2642,0.1112,0.1516,0.1617,0.1617,0.1717,0.0,0.1818,0.2378,0.2728,0.2883,0.4853,0.0,0.0,0.0,0.0,0.0,0.8568,0.8568,0.8568,0.8568,0.8945,0.9429,0.9517,1.0041,1.0737,1.0912,1.1055,1.1354,1.1354,1.1613,1.1785,1.2037,1.2289,1.2534,1.2619,1.2705,1.2705,1.2966,1.2875,1.279,1.3052,1.3052,1.2966,1.2875,1.2966,1.3052,1.279,1.279,1.279,1.2705,1.279,1.2875,1.3203,1.3633,1.3971,1.4132,0.0,0.0,0.0,0.0,0.0,0.0,1.7908,1.8407,1.8922,0.0,0.0,0.0,0.0,0.0,0.0,0.0,0.0,0.0,0.0,0.0,0.0,2.297,2.4315,2.4893,2.5973,2.6737,2.7231,2.7231,2.7231,2.7231,2.7231,2.6974,2.6704,2.7056,2.682,2.6313,2.6985,2.6982,2.6797,2.7166,2.7134,2.6889,0.0,0.0,0.0,0.0,-0.0,-0.0808,-0.2832,-0.0411,0.1778,0.1703,0.119,-0.0217,-0.298,-0.266,-0.2327,-0.2493,-0.0519,0.0721,0.0809,0.1314,0.1617,0.0,0.0,0.2422,0.2422,0.2874,0.3627,0.4401,0.0,0.0,0.6973,0.0,0.8568,0.8568,0.8568,0.8568,0.8568,0.8568,0.9017,0.9624,1.0069,1.0612,1.1074,1.1515,1.1553,1.1348,1.1613,1.1785,1.2037,1.2283,1.2534,1.2705,1.2705,1.2705,1.2705,1.2705,1.2705,1.279,1.3052,1.2881,1.279,1.3052,1.3137,1.3052,1.279,1.2881,1.3052,1.279,1.2881,1.3385,1.4455,1.4873,1.5372,1.6445,0.0,0.0,0.0,0.0,0.0,0.0,1.8727,1.9222,1.9002,0.0,0.0,0.0,0.0,0.0,0.0,0.0,0.0,1.9301,2.0914,0.0,2.1756,2.3827,2.5176,2.5716,2.6221,2.6737,2.7231,2.7231,2.7231,2.7231,2.7231,2.7231,2.7231,2.7231,2.7231,2.7149,2.7231,2.7198,2.729,2.7193,2.7323,2.7359,0.0908,0.1111,0.101,0.0606,0.0613,0.0412,-0.0309,0.0528,0.1294,0.1735,0.1652,0.1221,0.0331,0.0,0.0,0.0,0.0941,0.134,0.0,0.1516,0.1617,0.1617,0.212,0.2422,0.2422,0.3806,0.4658,0.4888,0.0,0.0,0.0,0.8766,0.893,0.893,0.893,0.893,0.893,0.9292,0.9779,1.0287,1.0837,1.1293,1.1754,1.1935,1.1892,1.1828,1.2097,1.2367,1.2523,1.261,1.2814,1.2958,1.2765,1.2705,1.2705,1.2705,1.2705,1.2705,1.279,1.279,1.2705,1.279,1.279,1.279,1.2705,1.279,1.2875,1.2966,1.3052,1.347,1.4538,1.4873,1.5289,1.6101,1.7009,0.0,0.0,0.0,0.0,0.0,1.8984,1.9152,0.0,1.9222,0.0,0.0,0.0,0.0,0.0,0.0,0.0,0.0,2.0382,0.0,2.144,2.3608,2.4893,2.5394,2.6484,2.707,2.7231,2.7231,2.7231,2.7231,2.7231,2.7231,2.7231,2.7231,2.7231,2.7265,2.761,2.7756,2.79,2.8487,2.8564,2.84,0.1212,0.1415,0.1519,0.1223,0.1134,0.125,0.1258,0.1289,0.1421,0.175,0.1998,0.2132,0.2132,0.2,0.0,0.171,0.1688,0.166,0.1922,0.1919,0.202,0.2222,0.2725,0.3126,0.3425,0.483,0.0,0.6317,0.7925,0.8787,0.9096,0.9096,0.9096,0.9096,0.9283,0.9376,0.9469,0.993,1.0529,1.1062,1.1341,1.1812,1.2188,1.2188,1.2129,1.214,1.2415,1.2689,1.2848,1.2968,1.3183,1.3224,1.2952,1.2862,1.2837,1.2735,1.2705,1.2705,1.2705,1.2705,1.2705,1.2705,1.2705,1.2705,1.2705,1.2954,1.3294,1.3542,1.388,1.4461,1.5606,1.5861,1.6191,1.7074,1.7908,1.8327,1.8318,0.0,0.0,0.0,0.0,0.0,0.0,1.9301,1.9301,0.0,0.0,0.0,0.0,0.0,0.0,1.9766,2.0537,0.0,2.2193,2.4002,2.5217,2.5708,2.6735,2.7231,2.7231,2.7231,2.7231,2.7231,2.7231,2.7231,2.7231,2.7231,2.7346,2.7541,2.7862,2.8218,2.8632,2.9075,2.9239,2.9342,0.0909,0.1212,0.1626,0.0,0.1768,0.0,0.1813,0.1843,0.1862,0.1863,0.2333,0.2806,0.2806,0.3253,0.3098,0.1926,0.0,0.0,0.0,0.2423,0.2724,0.323,0.3831,0.4431,0.5229,0.5837,0.6939,0.8531,0.9065,0.9291,0.9133,0.9133,0.9133,0.9226,0.9694,0.997,1.0063,1.0529,1.1194,1.1752,1.1752,1.2047,1.2436,1.2436,1.2296,1.2189,1.2648,1.2831,1.2923,1.3368,1.3544,1.3495,1.3236,1.3151,1.3091,1.2789,1.2705,1.2705,1.2705,1.2705,1.2705,1.2705,1.279,1.279,1.279,1.3457,1.421,1.4448,1.5115,1.6108,1.7415,1.7513,1.7844,1.9063,1.9152,1.9073,1.9301,0.0,0.0,0.0,0.0,0.0,0.0,1.9301,1.9301,0.0,0.0,0.0,0.0,0.0,1.9608,2.0382,2.1252,2.2331,2.3579,2.4947,2.5936,2.6519,2.7001,2.7231,2.7231,2.7231,2.7231,2.7231,2.7231,2.7231,2.7231,2.7265,2.7564,2.7989,2.8057,2.8666,2.9404,2.8981,2.9365,3.0034,0.0,0.0,0.1626,0.1657,0.2101,0.2238,0.1843,0.2536,0.3009,0.2566,0.3022,0.3363,0.3363,0.3475,0.3446,0.3155,0.3004,0.3058,0.3197,0.305,0.3328,0.413,0.463,0.5329,0.6124,0.7232,0.8333,0.9327,0.9485,0.9543,0.9502,0.9502,0.9693,1.0082,1.0179,1.0471,1.0955,1.1433,1.1758,1.1991,1.2383,1.2582,1.2684,1.2684,1.2646,1.2688,1.3171,1.3362,1.3429,1.3695,1.3815,1.3767,1.3507,1.3423,1.3326,1.285,1.2705,1.2705,1.2705,1.2705,1.2705,1.2705,1.3209,1.3711,1.3711,1.4384,1.5137,1.5372,1.553,1.6116,1.744,1.7691,1.8014,1.9143,1.9222,1.9231,1.9301,1.9152,0.0,0.0,1.9152,1.9152,1.9301,1.9301,1.9301,0.0,0.0,0.0,0.0,1.9301,1.9381,1.9608,2.0692,2.163,2.2322,2.4234,2.5878,2.7047,2.7174,2.7231,2.7231,2.7231,2.7231,2.7231,2.7231,2.7231,2.7254,2.7644,2.7874,2.8057,2.8838,2.9286,2.9538,2.9726,3.0022,3.0216,0.1617,0.1617,0.163,0.1674,0.2224,0.2473,0.2205,0.301,0.3475,0.3141,0.3587,0.4033,0.4033,0.4258,0.4355,0.4426,0.3781,0.3486,0.3736,0.3972,0.4448,0.5194,0.5859,0.6556,0.7412,0.8065,0.8829,0.9628,0.9628,0.9628,0.9628,0.9826,1.0117,1.0408,1.09,1.1292,1.1585,1.2175,1.237,1.237,1.2667,1.2764,1.2764,1.2764,1.2764,1.2861,1.3346,1.3539,1.3516,1.3945,1.4087,1.4039,1.3773,1.3694,1.361,1.32,1.2988,1.2868,1.2741,1.2954,1.3372,1.3795,1.43,1.4636,1.4636,1.5296,1.6049,1.6281,1.6698,1.7359,1.8103,1.8264,1.8505,1.9222,1.9222,1.9222,1.9301,1.9222,0.0,1.9301,1.9222,1.9152,1.9301,1.9301,1.9301,1.9301,1.9301,0.0,1.9301,1.9485,1.9737,2.0118,2.1214,2.2281,2.335,2.5147,2.6445,2.7231,2.7231,2.7231,2.7231,2.7231,2.7231,2.7231,2.7231,2.7357,2.7598,2.7874,2.8253,2.8735,2.9286,2.963,2.986,3.0124,3.0216,3.0216,0.1717,0.1818,0.1838,0.1899,0.2446,0.2801,0.2781,0.347,0.3811,0.3699,0.4258,0.4704,0.4704,0.5154,0.5603,0.5824,0.4785,0.4244,0.4497,0.5213,0.6004,0.6838,0.7336,0.8019,0.906,0.8807,0.9027,0.9628,0.9628,0.9628,0.9727,1.0216,1.0511,1.0703,1.1585,1.2078,1.2175,1.257,1.2764,1.2764,1.2764,1.2764,1.2764,1.2764,1.2861,1.2861,1.3346,1.3539,1.3636,1.4106,1.4298,1.4256,1.4039,1.3966,1.3912,1.3829,1.3591,1.3346,1.3016,1.3574,1.4384,1.5228,1.5477,1.5643,1.5643,1.6288,1.7033,1.7204,1.8031,1.8772,1.8922,1.9002,1.9082,1.9301,1.9152,1.9073,1.9301,0.0,1.9301,1.9301,1.9301,1.9301,1.9301,1.9301,1.9301,1.9301,1.9356,1.9393,1.9393,1.9869,2.0517,2.1277,2.209,2.3381,2.5147,2.6408,2.7056,2.7231,2.7231,2.7231,2.7231,2.7231,2.7277,2.7346,2.7346,2.7621,2.8092,2.8172,2.8723,2.9504,2.9573,2.986,3.0216,3.0216,3.0216,3.0216,0.2321,0.2624,0.2946,0.3006,0.3584,0.386,0.3391,0.4332,0.4933,0.448,0.4931,0.538,0.5599,0.571,0.6265,0.7479,0.7342,0.6929,0.6278,0.7223,0.8272,0.9261,0.921,0.9742,1.1089,1.0406,0.992,0.9628,0.9628,0.9821,1.0314,1.0314,1.09,1.178,1.1883,1.2273,1.2667,1.2764,1.2764,1.2764,1.2764,1.2764,1.2764,1.2764,1.2953,1.3055,1.3346,1.3636,1.3931,1.4208,1.4298,1.4292,1.425,1.4238,1.4374,1.4922,1.5087,1.4929,1.43,1.4661,1.5228,1.5394,1.5959,1.6535,1.6535,1.7359,1.8112,1.8193,1.8442,1.8772,1.8922,1.9002,1.9082,1.9301,1.9301,1.9222,1.9301,0.0,1.9301,1.9301,1.9301,1.9301,1.9301,1.9301,1.9301,1.9301,1.9632,1.9833,1.9833,2.0942,2.1821,2.2256,2.2434,2.3502,2.5626,2.588,2.6445,2.7231,2.7231,2.7231,2.7231,2.7231,2.7461,2.7862,2.7862,2.8138,2.862,2.9079,2.9355,2.9538,2.994,3.0147,3.0216,3.0216,3.0216,3.0216,0.2826,0.3029,0.3248,0.3305,0.3862,0.4131,0.3915,0.4729,0.5324,0.5256,0.5489,0.5933,0.6927,0.7035,0.7476,0.8906,0.9522,0.9681,0.9019,0.9369,0.9741,1.0244,1.048,1.0833,1.1335,1.1044,1.0703,1.0507,1.0507,1.0605,1.0801,1.1096,1.1492,1.198,1.2273,1.257,1.2764,1.2764,1.2764,1.2764,1.2764,1.2764,1.2764,1.2958,1.305,1.3147,1.3539,1.3835,1.3931,1.4208,1.4298,1.4388,1.4956,1.514,1.5305,1.6192,1.6197,1.6052,1.6184,1.6312,1.6575,1.6992,1.7261,1.7448,1.761,1.7942,1.8201,1.8353,1.8531,1.87,1.8851,1.9002,1.9222,1.9301,1.9301,0.0,0.0,1.9301,1.9301,1.9301,1.9301,1.9301,1.9301,1.9301,1.9393,1.9622,1.9824,2.019,2.0971,2.1787,2.2518,2.32,2.3949,2.5018,2.6528,2.6528,2.6787,2.7231,2.7506,2.7633,2.7644,2.7897,2.8149,2.8367,2.8367,2.8654,2.9148,2.9401,2.9653,2.9906,3.0135,3.0216,3.0216,3.0216,3.0216,3.0216,0.3432,0.3531,0.3546,0.3594,0.403,0.4398,0.4536,0.5009,0.5494,0.581,0.5935,0.6487,0.7919,0.814,0.8686,1.0218,1.1285,1.1809,1.1864,1.1548,1.1354,1.1141,1.1628,1.1701,1.1394,1.1389,1.1292,1.1194,1.1194,1.1292,1.1389,1.1785,1.2078,1.2175,1.2667,1.2764,1.2764,1.2764,1.2764,1.2764,1.2764,1.2764,1.2861,1.2953,1.3147,1.3244,1.3642,1.3931,1.4022,1.449,1.4675,1.486,1.5798,1.617,1.6358,1.739,1.75,1.744,1.7794,1.7792,1.7875,1.8557,1.8442,1.825,1.8493,1.8342,1.8201,1.8442,1.8612,1.8772,1.8772,1.9073,1.9301,1.9301,0.0,0.0,0.0,1.9301,1.9301,1.9301,1.9301,1.9301,1.9301,1.9393,1.9586,1.9907,2.0264,2.0993,2.1973,2.2794,2.3698,2.4626,2.5384,2.6257,2.7149,2.7231,2.7288,2.7415,2.7793,2.8046,2.8161,2.854,2.8769,2.8884,2.8884,2.9183,2.9665,2.9665,2.9883,3.0216,3.0216,3.0216,3.0216,3.0216,3.0216,3.0216,0.3932,0.4334,0.4636,0.4642,0.4812,0.5108,0.5415,0.5616,0.582,0.626,0.6274,0.6824,0.8247,0.8468,0.9457,1.1978,1.229,1.2842,1.3862,1.3726,1.3367,1.2841,1.2939,1.2699,1.1986,1.1975,1.1688,1.1194,1.1194,1.1487,1.1975,1.1975,1.2273,1.2759,1.2759,1.2764,1.2764,1.2764,1.2764,1.2764,1.2764,1.2764,1.2764,1.2861,1.3055,1.3443,1.3539,1.3823,1.4394,1.533,1.5704,1.5893,1.6828,1.7196,1.739,1.8411,1.9314,1.976,1.8514,1.8617,1.9042,1.9127,1.9013,1.8811,1.8894,1.8786,1.862,1.87,1.8851,1.9002,1.9002,1.9152,1.9301,1.9301,0.0,0.0,1.9301,1.9301,1.9301,1.9301,1.9301,1.9301,1.9301,1.965,1.9897,1.9934,2.1444,2.2393,2.2422,2.442,2.5953,2.6917,2.6235,2.6257,2.7149,2.7231,2.7461,2.7931,2.7966,2.8218,2.8643,2.8677,2.8964,2.9435,2.9435,2.9711,3.017,3.017,3.0181,3.0216,3.0216,3.0216,3.0216,3.0216,3.0216,3.0216,0.4533,0.4634,0.4834,0.4834,0.4966,0.5246,0.5503,0.5774,0.6077,0.647,0.7154,0.8254,0.968,1.0554,1.1651,1.3413,1.3388,1.3417,1.3959,1.3739,1.3437,1.3078,1.2966,1.2753,1.2473,1.2473,1.237,1.2175,1.2175,1.2273,1.2473,1.2473,1.2565,1.2764,1.2764,1.2764,1.2764,1.2764,1.2764,1.2764,1.2764,1.2764,1.2861,1.3152,1.3721,1.4478,1.4765,1.5419,1.6264,1.664,1.6734,1.6922,1.7948,1.8226,1.8419,1.9446,2.0011,2.0167,1.9653,1.9626,1.9704,1.9521,1.9402,1.9286,1.9286,1.8898,1.8711,1.8956,1.8941,1.8851,1.9002,1.9152,1.9301,1.9301,0.0,1.9301,1.9301,1.9301,1.9301,1.9301,1.9531,1.9687,1.9687,2.0536,2.1224,2.1473,2.2695,2.3752,2.4525,2.592,2.6798,2.7149,2.688,2.688,2.7231,2.7541,2.7793,2.7989,2.862,2.9022,2.9206,2.9504,2.9757,2.994,2.994,3.0044,3.0216,3.0216,3.0216,3.0216,3.0216,3.0216,3.0216,3.0216,3.0216,3.0216,0.4937,0.4937,0.4935,0.5035,0.5238,0.5394,0.5772,0.5932,0.6432,0.713,0.7944,0.9149,1.0833,1.1688,1.2661,1.3859,1.3814,1.3712,1.3712,1.3491,1.3281,1.3114,1.2883,1.2764,1.2764,1.2764,1.2764,1.2764,1.305,1.305,1.2764,1.305,1.305,1.2764,1.2764,1.2764,1.2764,1.2764,1.2764,1.2764,1.2764,1.2861,1.2958,1.3249,1.41,1.5134,1.5507,1.6351,1.739,1.7662,1.7762,1.7948,1.898,1.9255,1.9446,2.0102,2.0292,2.0292,2.0292,2.0283,2.0182,2.0004,1.9799,1.9687,1.9764,1.9382,1.9068,1.9277,1.9128,1.8995,1.9029,1.9152,1.9301,1.9301,1.9301,1.9301,1.9301,1.9421,1.9503,1.9503,1.9861,2.0191,2.052,2.1467,2.2325,2.2864,2.3919,2.4984,2.6163,2.688,2.7231,2.7231,2.738,2.7461,2.7461,2.7805,2.8138,2.8471,2.9171,2.9573,2.9734,3.0067,3.0216,3.0216,3.0216,3.0216,3.0216,3.0216,3.0216,3.0216,3.0216,3.0216,3.0216,3.0216,3.0216,3.0216,0.514,0.524,0.524,0.5536,0.5636,0.5773,0.6092,0.6305,0.6898,0.8269,0.8495,0.9378,1.1521,1.1709,1.223,1.3372,1.3475,1.3475,1.3475,1.3238,1.3104,1.3104,1.2883,1.2764,1.2764,1.2764,1.2764,1.2764,1.3522,1.3528,1.2861,1.3522,1.3528,1.2764,1.2764,1.2764,1.2764,1.2764,1.2764,1.2764,1.2764,1.2958,1.3147,1.3147,1.4088,1.5399,1.5406,1.625,1.7483,1.8511,1.8796,1.898,2.0011,2.0292,2.0292,2.0292,2.0292,2.0292,2.0292,2.0473,2.0654,2.0382,2.0197,2.0184,2.0342,2.0051,1.9747,1.9669,1.9588,1.9471,1.9083,1.9161,1.9311,1.9311,1.9311,1.9311,1.9311,1.9668,1.9934,1.9934,2.0283,2.0848,2.1846,2.231,2.2884,2.3878,2.5048,2.6257,2.7149,2.7231,2.7231,2.7231,2.7713,2.7977,2.7989,2.7989,2.8505,2.9504,2.9504,2.9757,3.0216,3.0216,3.0216,3.0216,3.0216,3.0216,3.0216,3.0216,3.0216,3.0216,3.0216,3.0216,3.0216,3.0216,3.0216,3.0216,0.5436,0.5436,0.5536,0.5634,0.5737,0.5977,0.6197,0.7058,0.7839,0.8361,0.977,1.1037,1.161,1.2437,1.3064,1.348,1.3319,1.3147,1.2985,1.2904,1.2867,1.2867,1.2802,1.2764,1.2764,1.2764,1.2764,1.2764,1.3522,1.3811,1.3619,1.4382,1.4286,1.3522,1.3522,1.3238,1.2764,1.2764,1.2764,1.2764,1.2953,1.305,1.3238,1.4274,1.5399,1.6525,1.7468,1.8503,1.9446,1.9729,1.982,1.9911,2.0201,2.0292,2.0292,2.0292,2.0292,2.0292,2.0292,2.0382,2.0473,2.0564,2.0648,2.0739,2.0829,2.0536,2.0321,2.0445,2.0201,2.006,2.0016,2.0071,2.0154,2.0154,2.0154,2.0154,2.0154,2.0264,2.0338,2.0338,2.1278,2.2032,2.2285,2.3834,2.4934,2.5185,2.6191,2.688,2.7149,2.7231,2.7231,2.7231,2.7713,2.8149,2.8482,2.885,2.9194,2.9504,2.9837,3.0078,3.0216,3.0216,3.0216,3.0216,3.0216,3.0216,3.0216,3.0216,3.0216,3.0216,3.0216,3.0216,3.0216,3.0216,3.0216,3.0216,0.5737,0.5737,0.5837,0.5937,0.6037,0.6163,0.6235,0.74,0.8364,0.8805,1.0403,1.1754,1.2082,1.2788,1.3195,1.3195,1.3055,1.291,1.277,1.2764,1.2764,1.2764,1.305,1.3238,1.3238,1.3238,1.3431,1.3715,1.4478,1.4669,1.4382,1.5146,1.5146,1.4382,1.4382,1.3908,1.3238,1.3238,1.3335,1.3522,1.3613,1.4088,1.4746,1.5684,1.6713,1.7747,1.8503,1.9446,2.0292,2.0292,2.0292,2.0292,2.0292,2.0292,2.0292,2.0292,2.0292,2.0292,2.0473,2.0473,2.0564,2.0934,2.0925,2.0916,2.1105,2.1016,2.0898,2.0893,2.0762,2.0543,2.0549,2.0521,2.0521,2.0521,2.0521,2.0521,2.0521,2.0649,2.092,2.125,2.2121,2.3057,2.3727,2.4977,2.5913,2.6351,2.688,2.7231,2.7231,2.7231,2.7323,2.7518,2.8012,2.8505,2.901,2.9527,2.9791,2.9791,3.0078,3.0216,3.0216,3.0216,3.0216,3.0216,3.0216,3.0216,3.0216,3.0216,3.0216,3.0216,3.0216,3.0216,3.0216,3.0216,3.0216,3.0216,0.5939,0.6042,0.6139,0.6337,0.6437,0.6434,0.6537,0.7538,0.8686,0.9628,1.0748,1.189,1.2689,1.2764,1.2764,1.2764,1.2764,1.2764,1.2764,1.2764,1.2861,1.2861,1.3522,1.3998,1.4094,1.3998,1.4382,1.5051,1.5812,1.5906,1.5242,1.5906,1.5906,1.5242,1.5242,1.4765,1.4094,1.4094,1.4376,1.4746,1.4835,1.5684,1.6901,1.6994,1.7747,1.8796,1.8888,1.9538,2.0292,2.0292,2.0292,2.0292,2.0292,2.0292,2.0292,2.0292,2.0292,2.0382,2.0654,2.0654,2.0744,2.1212,2.1024,2.0835,2.1302,2.1392,2.1373,2.1158,2.1163,2.1053,2.0695,2.0631,2.0631,2.0631,2.0631,2.0631,2.0706,2.1019,2.1586,2.2614,2.3034,2.3953,2.5652,2.5913,2.6268,2.7149,2.7231,2.7231,2.7231,2.7231,2.7461,2.7966,2.8448,2.8953,2.9493,2.9975,3.0216,3.0216,3.0216,3.0216,3.0216,3.0216,3.0216,3.0216,3.0216,3.0216,3.0216,3.0216,3.0216,3.0216,3.0216,3.0216,3.0216,3.0216,3.0216,3.0216,0.6337,0.6337,0.6337,0.6437,0.6437,0.6634,0.7528,0.8546,0.9648,1.0685,1.181,1.252,1.277,1.2764,1.2764,1.2764,1.2764,1.2764,1.2764,1.2764,1.305,1.3619,1.3811,1.4478,1.5717,1.5146,1.4956,1.5051,1.5812,1.6096,1.6001,1.6756,1.6662,1.6001,1.6001,1.571,1.5419,1.5419,1.5697,1.6069,1.6344,1.6619,1.6994,1.8033,1.8603,1.8888,1.9729,2.0102,2.0292,2.0292,2.0292,2.0292,2.0292,2.0292,2.0292,2.0292,2.0292,2.0382,2.0654,2.0564,2.0473,2.1006,2.0997,2.1096,2.1562,2.1651,2.1624,2.1621,2.1603,2.1575,2.1493,2.1475,2.1475,2.1475,2.1475,2.1729,2.239,2.264,2.3046,2.3917,2.4756,2.54,2.5735,2.6445,2.6974,2.7149,2.7231,2.7231,2.7231,2.7231,2.7461,2.7966,2.8448,2.8953,2.9493,2.9975,3.0216,3.0216,3.0216,3.0216,3.0216,3.0216,3.0216,3.0216,3.0216,3.0216,3.0216,3.0216,3.0216,3.0216,3.0216,3.0216,3.0216,3.0216,3.0216,3.0216,0.6437,0.6437,0.6437,0.6437,0.6437,0.6734,0.7822,0.9011,1.0194,1.1268,1.2457,1.3055,1.2958,1.2953,1.2861,1.2764,1.2764,1.2764,1.2764,1.2764,1.3147,1.3902,1.4286,1.5051,1.619,1.619,1.619,1.619,1.6567,1.6756,1.6763,1.7138,1.7138,1.6756,1.6951,1.685,1.6365,1.6553,1.7016,1.7468,1.7554,1.8025,1.8588,1.9255,1.9538,1.9538,2.0102,2.0292,2.0292,2.0292,2.0292,2.0292,2.0292,2.0292,2.0292,2.0292,2.0382,2.0564,2.0654,2.0645,2.0736,2.1105,2.1195,2.1284,2.1472,2.1651,2.1741,2.1741,2.1741,2.1741,2.1741,2.1741,2.182,2.2334,2.2334,2.2677,2.3627,2.38,2.4135,2.4988,2.5495,2.5997,2.6434,2.688,2.7231,2.7231,2.7231,2.7231,2.7231,2.7461,2.7816,2.831,2.8815,2.932,2.9837,3.0089,3.0216,3.0216,3.0216,3.0216,3.0216,3.0216,3.0216,3.0216,3.0216,3.0216,3.0216,3.0216,3.0216,3.0216,3.0216,3.0216,3.0216,3.0216,3.0216,3.0216,0.6437,0.6437,0.6437,0.6437,0.6534,0.703,0.812,0.9402,1.0685,1.176,1.2754,1.3346,1.3147,1.305,1.2953,1.2861,1.2861,1.2953,1.305,1.305,1.3431,1.4286,1.4956,1.5622,1.6379,1.6951,1.7326,1.7326,1.7326,1.7326,1.7326,1.7326,1.7326,1.7426,1.7893,1.7792,1.7397,1.787,1.8326,1.868,1.868,1.9347,2.0292,2.0292,2.0292,2.0292,2.0292,2.0292,2.0292,2.0292,2.0292,2.0292,2.0292,2.0292,2.0382,2.0292,2.0473,2.0744,2.0744,2.0907,2.1087,2.1302,2.1392,2.1392,2.1392,2.1571,2.1741,2.1741,2.1741,2.1731,2.1909,2.1909,2.2246,2.3193,2.3357,2.3704,2.4573,2.4744,2.5084,2.5913,2.5997,2.6351,2.7138,2.7231,2.7231,2.7231,2.7231,2.7231,2.7231,2.7713,2.8207,2.8689,2.9217,2.9734,3.0216,3.0216,3.0216,3.0216,3.0216,3.0216,3.0216,3.0216,3.0216,3.0216,3.0216,3.0216,3.0216,3.0216,3.0216,3.0216,3.0216,3.0216,3.0216,3.0216,3.0216,3.0216,0.6437,0.6437,0.6437,0.6437,0.7129,0.812,0.9209,1.0485,1.176,1.2754,1.305,1.3147,1.3147,1.2953,1.2861,1.305,1.305,1.334,1.401,1.4106,1.4675,1.5812,1.6001,1.6379,1.7138,1.7232,1.7326,1.7326,1.7326,1.7326,1.7326,1.7326,1.752,1.7994,1.8087,1.8535,1.9271,1.9271,1.9637,2.0002,2.0002,2.0102,2.0292,2.0292,2.0292,2.0292,2.0292,2.0292,2.0292,2.0292,2.0292,2.0292,2.0292,2.0473,2.0564,2.0382,2.0645,2.0997,2.0997,2.0997,2.1087,2.1302,2.1392,2.1392,2.1392,2.1571,2.1741,2.1741,2.1741,2.1989,2.2755,2.2921,2.3183,2.4145,2.4317,2.4659,2.5495,2.5652,2.6008,2.688,2.6974,2.7056,2.7149,2.7231,2.7231,2.7231,2.7231,2.7231,2.7231,2.7713,2.8207,2.8689,2.9217,2.9734,3.0216,3.0216,3.0216,3.0216,3.0216,3.0216,3.0216,3.0216,3.0216,3.0216,3.0216,3.0216,3.0216,3.0216,3.0216,3.0216,3.0216,3.0216,3.0216,3.0216,3.0216,3.0216,0.6836,0.6637,0.6734,0.7621,0.8018,0.881,1.0681,1.156,1.2349,1.3437,1.3539,1.3443,1.3346,1.3147,1.3055,1.3346,1.3147,1.3437,1.4298,1.4202,1.4669,1.6096,1.619,1.6567,1.7232,1.7326,1.7326,1.7326,1.7326,1.7326,1.7333,1.7613,1.7893,1.8087,1.8727,1.918,1.9637,1.992,2.0102,2.0292,2.0292,2.0292,2.0292,2.0292,2.0292,2.0292,2.0292,2.0292,2.0292,2.0292,2.0382,2.0473,2.0382,2.0473,2.0654,2.0382,2.0645,2.0997,2.0826,2.1006,2.1293,2.1392,2.1392,2.1392,2.1571,2.1651,2.1741,2.1741,2.2167,2.2589,2.3008,2.3531,2.4145,2.5073,2.5242,2.5495,2.6445,2.661,2.6704,2.7149,2.7231,2.7231,2.7231,2.7231,2.7231,2.7231,2.7231,2.7231,2.7231,2.7966,2.8482,2.8689,2.9481,2.9998,3.0216,3.0216,3.0216,3.0216,3.0216,3.0216,3.0216,3.0216,3.0216,3.0216,3.0216,3.0216,3.0216,3.0216,3.0216,3.0216,3.0216,3.0216,3.0216,3.0216,3.0216,3.0216]}]]